[[{"header":{"parameterUnit":"m.s-1","parameterCategory":1,"la1":30.6,"la2":29.2853,"lo1":-89.7004,"lo2":-87.6739,"dy":0.0162,"dx":0.0183,"nx":112,"ny":82,"refTime":"2023-08-05T12:00:00:Z","depth":0,"parameterNumber":2,"parameterNumberName":"U-component_of_WINDS"},"data":[0.0,0.0,0.0,0.0,0.0,0.0,0.0,0.0,0.0,0.0,0.0,0.0,0.0,0.0,0.0,0.0,0.0,0.0,0.0,0.0,0.0,0.0,0.0,0.0,0.0,0.0,0.0,0.0,0.0,0.0,0.0,0.0,0.0,0.0,0.0,0.0,0.0,0.0,0.0,0.0,0.0,0.0,0.0,0.0,0.0,0.0,0.0,0.0,0.0,0.0,0.0,0.0,0.0,0.0,0.0,0.0,0.0,0.0,0.0,0.0,0.0,0.0,0.0,0.0,0.0,0.0,0.0,0.0,0.0,0.0,0.0,0.0,0.0,0.0,0.0,0.0,0.0,0.0,0.0,0.0,0.0,0.0,0.0,0.0,0.0,0.0,0.0,0.0,0.0,0.0,-3.7968,-3.7505,-3.6799,-3.6489,-3.6888,-3.7293,-3.7308,-3.6822,0.0,0.0,0.0,0.0,0.0,0.0,0.0,0.0,0.0,0.0,0.0,0.0,0.0,0.0,0.0,0.0,0.0,0.0,0.0,0.0,0.0,0.0,0.0,0.0,0.0,0.0,0.0,0.0,0.0,0.0,0.0,0.0,0.0,0.0,0.0,0.0,0.0,0.0,0.0,0.0,0.0,0.0,0.0,0.0,0.0,0.0,0.0,0.0,0.0,0.0,0.0,0.0,0.0,0.0,0.0,0.0,0.0,0.0,0.0,0.0,0.0,0.0,0.0,0.0,0.0,0.0,0.0,0.0,0.0,0.0,0.0,0.0,0.0,0.0,0.0,0.0,0.0,0.0,0.0,0.0,0.0,0.0,0.0,0.0,0.0,0.0,0.0,0.0,0.0,0.0,0.0,0.0,0.0,0.0,0.0,0.0,0.0,0.0,0.0,0.0,0.0,0.0,0.0,0.0,-3.7905,-3.6933,-3.6139,-3.589,-3.6527,-3.7186,-3.7591,-3.7613,0.0,0.0,0.0,0.0,0.0,0.0,0.0,0.0,0.0,0.0,0.0,0.0,0.0,0.0,0.0,0.0,0.0,0.0,0.0,0.0,0.0,0.0,0.0,0.0,0.0,0.0,0.0,0.0,0.0,0.0,0.0,0.0,0.0,0.0,0.0,0.0,0.0,0.0,0.0,0.0,0.0,0.0,0.0,0.0,0.0,0.0,0.0,0.0,0.0,0.0,0.0,0.0,0.0,0.0,0.0,0.0,0.0,0.0,0.0,0.0,0.0,0.0,0.0,0.0,0.0,0.0,0.0,0.0,0.0,0.0,0.0,0.0,0.0,0.0,0.0,0.0,0.0,0.0,0.0,0.0,0.0,0.0,0.0,0.0,0.0,0.0,0.0,0.0,0.0,0.0,0.0,0.0,0.0,0.0,0.0,0.0,0.0,0.0,0.0,0.0,0.0,0.0,0.0,-3.8328,-3.7923,-3.6033,-3.5826,-3.6015,-3.6522,-3.7002,-3.7537,-3.8149,-3.6841,0.0,0.0,0.0,0.0,0.0,0.0,0.0,0.0,0.0,0.0,0.0,0.0,0.0,0.0,0.0,0.0,0.0,0.0,0.0,0.0,0.0,0.0,0.0,0.0,0.0,0.0,0.0,0.0,0.0,0.0,0.0,0.0,0.0,0.0,0.0,0.0,0.0,0.0,0.0,0.0,0.0,0.0,0.0,0.0,0.0,0.0,0.0,0.0,0.0,0.0,0.0,0.0,0.0,0.0,0.0,0.0,0.0,0.0,0.0,0.0,0.0,0.0,0.0,0.0,0.0,0.0,0.0,0.0,0.0,0.0,0.0,0.0,0.0,0.0,0.0,0.0,0.0,0.0,0.0,0.0,0.0,0.0,0.0,0.0,0.0,0.0,0.0,0.0,0.0,0.0,0.0,0.0,0.0,0.0,0.0,0.0,0.0,0.0,0.0,0.0,0.0,0.0,-3.803,-3.7303,-3.5226,-3.5621,-3.6232,-3.6697,-3.6924,-3.7464,-3.8444,-3.734,0.0,0.0,0.0,0.0,0.0,0.0,0.0,0.0,0.0,0.0,0.0,0.0,0.0,0.0,0.0,0.0,0.0,0.0,0.0,0.0,0.0,0.0,0.0,0.0,0.0,0.0,0.0,0.0,0.0,0.0,0.0,0.0,0.0,0.0,0.0,0.0,0.0,0.0,0.0,0.0,0.0,0.0,0.0,0.0,0.0,0.0,0.0,0.0,0.0,0.0,0.0,0.0,0.0,0.0,0.0,0.0,0.0,0.0,0.0,0.0,0.0,0.0,0.0,0.0,0.0,0.0,0.0,0.0,0.0,0.0,0.0,0.0,0.0,0.0,0.0,0.0,0.0,0.0,0.0,0.0,0.0,0.0,0.0,0.0,0.0,0.0,0.0,0.0,0.0,0.0,0.0,0.0,0.0,0.0,0.0,0.0,0.0,0.0,0.0,0.0,0.0,0.0,-3.6365,-3.5404,-3.4787,-3.5375,-3.6167,-3.7078,-3.7195,-3.7557,-3.8442,-3.8334,0.0,0.0,0.0,0.0,0.0,0.0,0.0,0.0,0.0,0.0,0.0,0.0,0.0,0.0,0.0,0.0,0.0,0.0,0.0,0.0,0.0,0.0,0.0,0.0,0.0,0.0,0.0,0.0,0.0,0.0,0.0,0.0,0.0,0.0,0.0,0.0,0.0,0.0,0.0,0.0,0.0,0.0,0.0,0.0,0.0,0.0,0.0,0.0,0.0,0.0,0.0,0.0,0.0,0.0,0.0,0.0,0.0,0.0,0.0,0.0,0.0,0.0,0.0,0.0,0.0,0.0,0.0,0.0,0.0,0.0,0.0,0.0,0.0,0.0,0.0,0.0,0.0,0.0,0.0,0.0,0.0,0.0,0.0,0.0,0.0,0.0,0.0,0.0,0.0,0.0,0.0,0.0,0.0,0.0,0.0,0.0,0.0,0.0,0.0,0.0,0.0,0.0,-3.7234,-3.6027,0.0,-3.5951,-3.6644,-3.6983,-3.7171,-3.7861,-3.9207,0.0,0.0,0.0,0.0,0.0,0.0,0.0,0.0,0.0,0.0,0.0,0.0,0.0,0.0,0.0,0.0,0.0,0.0,0.0,0.0,0.0,0.0,0.0,0.0,0.0,0.0,0.0,0.0,0.0,0.0,0.0,0.0,0.0,0.0,0.0,0.0,0.0,0.0,0.0,0.0,0.0,0.0,0.0,0.0,0.0,0.0,0.0,0.0,0.0,0.0,0.0,0.0,0.0,0.0,0.0,0.0,0.0,0.0,0.0,0.0,0.0,0.0,0.0,0.0,0.0,0.0,0.0,0.0,0.0,0.0,0.0,0.0,0.0,0.0,0.0,0.0,0.0,0.0,0.0,0.0,0.0,0.0,0.0,0.0,0.0,0.0,0.0,0.0,0.0,0.0,0.0,0.0,0.0,0.0,0.0,0.0,0.0,0.0,0.0,0.0,0.0,0.0,-3.921,-3.7803,-3.6475,0.0,-3.6543,-3.7128,-3.7198,-3.7396,-3.8266,-4.009,0.0,0.0,0.0,0.0,0.0,0.0,0.0,0.0,0.0,0.0,0.0,0.0,0.0,0.0,0.0,0.0,0.0,0.0,0.0,0.0,0.0,0.0,0.0,0.0,0.0,0.0,0.0,0.0,0.0,0.0,0.0,0.0,0.0,0.0,0.0,0.0,0.0,0.0,0.0,0.0,0.0,0.0,0.0,0.0,0.0,0.0,0.0,0.0,0.0,0.0,0.0,0.0,0.0,0.0,0.0,0.0,0.0,0.0,0.0,0.0,0.0,0.0,0.0,0.0,0.0,0.0,0.0,0.0,0.0,0.0,0.0,0.0,0.0,0.0,0.0,0.0,0.0,0.0,0.0,0.0,0.0,0.0,0.0,0.0,0.0,0.0,0.0,0.0,0.0,0.0,0.0,0.0,0.0,0.0,0.0,0.0,0.0,0.0,0.0,0.0,0.0,0.0,-3.9164,-3.7623,-3.6393,-3.6408,-3.7054,-3.7612,-3.7857,-3.7886,-3.8815,0.0,0.0,0.0,0.0,0.0,0.0,0.0,0.0,0.0,0.0,0.0,0.0,0.0,0.0,0.0,0.0,0.0,0.0,0.0,0.0,0.0,0.0,0.0,0.0,0.0,0.0,0.0,0.0,0.0,0.0,0.0,0.0,0.0,0.0,0.0,0.0,0.0,0.0,0.0,0.0,0.0,0.0,0.0,0.0,0.0,0.0,0.0,0.0,0.0,0.0,0.0,0.0,0.0,0.0,0.0,0.0,0.0,0.0,0.0,0.0,0.0,0.0,0.0,0.0,0.0,0.0,0.0,0.0,0.0,0.0,0.0,0.0,0.0,0.0,0.0,0.0,0.0,0.0,0.0,0.0,0.0,0.0,0.0,0.0,0.0,0.0,0.0,0.0,0.0,0.0,0.0,0.0,0.0,0.0,0.0,0.0,0.0,0.0,0.0,0.0,0.0,0.0,0.0,-3.9603,-3.7807,-3.6582,-3.7117,-3.7354,-3.7524,-3.7612,-3.7612,-3.8425,-4.0323,0.0,0.0,0.0,0.0,0.0,0.0,0.0,0.0,0.0,0.0,0.0,0.0,0.0,0.0,0.0,0.0,0.0,0.0,0.0,0.0,0.0,0.0,0.0,0.0,0.0,0.0,0.0,0.0,0.0,0.0,0.0,0.0,0.0,0.0,0.0,0.0,0.0,0.0,0.0,0.0,0.0,0.0,0.0,0.0,0.0,0.0,0.0,0.0,0.0,0.0,0.0,0.0,0.0,0.0,0.0,0.0,0.0,0.0,0.0,0.0,0.0,0.0,0.0,0.0,0.0,0.0,0.0,0.0,0.0,0.0,0.0,0.0,0.0,0.0,0.0,0.0,0.0,0.0,0.0,0.0,0.0,0.0,0.0,0.0,0.0,0.0,0.0,0.0,0.0,0.0,0.0,0.0,0.0,0.0,0.0,0.0,0.0,0.0,0.0,0.0,0.0,0.0,-3.9849,-3.8133,-3.7006,-3.7462,-3.751,-3.751,-3.751,-3.751,-3.8278,-4.0095,0.0,0.0,0.0,0.0,0.0,0.0,0.0,0.0,0.0,0.0,0.0,0.0,0.0,0.0,0.0,0.0,0.0,0.0,0.0,0.0,0.0,0.0,0.0,0.0,0.0,0.0,0.0,0.0,0.0,0.0,0.0,0.0,0.0,0.0,0.0,0.0,0.0,0.0,0.0,0.0,0.0,0.0,0.0,0.0,0.0,0.0,0.0,0.0,0.0,0.0,0.0,0.0,0.0,0.0,0.0,0.0,0.0,0.0,0.0,0.0,0.0,0.0,0.0,0.0,0.0,0.0,0.0,0.0,0.0,0.0,0.0,0.0,0.0,0.0,0.0,0.0,0.0,0.0,0.0,0.0,0.0,0.0,0.0,0.0,0.0,0.0,0.0,0.0,0.0,0.0,0.0,0.0,0.0,0.0,0.0,0.0,0.0,0.0,0.0,0.0,0.0,0.0,-3.9961,-3.8583,-3.7605,-3.7605,-3.7541,-3.751,-3.751,-3.751,-3.8226,-3.9962,0.0,0.0,0.0,0.0,0.0,0.0,0.0,0.0,0.0,0.0,0.0,0.0,0.0,0.0,0.0,0.0,0.0,0.0,0.0,0.0,0.0,0.0,0.0,0.0,0.0,0.0,0.0,0.0,0.0,0.0,0.0,0.0,0.0,0.0,0.0,0.0,0.0,0.0,0.0,0.0,0.0,0.0,0.0,0.0,0.0,0.0,0.0,0.0,0.0,0.0,0.0,0.0,0.0,0.0,0.0,0.0,0.0,0.0,0.0,0.0,-4.1564,0.0,0.0,0.0,0.0,0.0,0.0,0.0,0.0,0.0,0.0,0.0,0.0,0.0,0.0,0.0,0.0,0.0,0.0,0.0,0.0,0.0,0.0,0.0,0.0,0.0,0.0,0.0,0.0,0.0,0.0,0.0,0.0,0.0,0.0,0.0,0.0,0.0,0.0,0.0,0.0,0.0,-4.0514,-3.9219,-3.8302,-3.8302,-3.7796,-3.751,-3.751,-3.751,-3.7934,-3.8969,-3.9016,0.0,0.0,0.0,0.0,0.0,0.0,0.0,0.0,0.0,0.0,0.0,0.0,0.0,0.0,0.0,0.0,0.0,0.0,0.0,0.0,0.0,0.0,0.0,0.0,0.0,0.0,0.0,0.0,0.0,0.0,0.0,0.0,0.0,0.0,0.0,0.0,0.0,0.0,0.0,0.0,0.0,0.0,0.0,0.0,0.0,0.0,0.0,0.0,0.0,0.0,0.0,0.0,0.0,0.0,0.0,0.0,0.0,0.0,0.0,0.0,-4.1934,0.0,0.0,0.0,0.0,0.0,0.0,0.0,0.0,0.0,0.0,0.0,0.0,0.0,0.0,0.0,0.0,0.0,0.0,0.0,0.0,0.0,0.0,0.0,0.0,0.0,0.0,0.0,0.0,0.0,0.0,0.0,0.0,0.0,0.0,0.0,0.0,0.0,0.0,0.0,0.0,-4.108,-3.9806,-3.892,-3.895,-3.8665,-3.8444,-3.8444,-3.816,-3.8148,-3.8599,-3.8704,0.0,0.0,0.0,0.0,0.0,0.0,0.0,0.0,0.0,0.0,0.0,0.0,0.0,0.0,0.0,0.0,0.0,0.0,0.0,0.0,0.0,0.0,0.0,0.0,0.0,0.0,0.0,0.0,0.0,0.0,0.0,0.0,0.0,0.0,0.0,0.0,0.0,0.0,0.0,0.0,0.0,0.0,0.0,0.0,0.0,0.0,0.0,0.0,0.0,0.0,0.0,0.0,0.0,-4.4223,-4.4202,-4.4854,-4.4854,-4.5295,-4.5976,-4.3813,-4.346,-4.4423,-4.3814,0.0,0.0,0.0,0.0,0.0,0.0,0.0,0.0,0.0,0.0,0.0,0.0,0.0,0.0,0.0,0.0,0.0,0.0,0.0,0.0,0.0,0.0,0.0,0.0,-4.2663,-4.2722,-4.1552,0.0,0.0,0.0,0.0,0.0,0.0,0.0,0.0,0.0,0.0,0.0,-4.1475,-4.0294,-3.9534,-3.9661,-3.9582,-3.9503,-3.9503,-3.8997,-3.8681,-3.8681,-3.8676,-3.8721,0.0,0.0,0.0,0.0,0.0,0.0,0.0,0.0,0.0,0.0,0.0,0.0,0.0,0.0,0.0,0.0,0.0,0.0,0.0,0.0,0.0,0.0,0.0,0.0,0.0,0.0,0.0,0.0,0.0,0.0,0.0,0.0,-3.9317,-4.0268,0.0,0.0,0.0,0.0,0.0,0.0,0.0,0.0,0.0,0.0,0.0,0.0,0.0,-4.4582,-4.3711,-4.4019,-4.4544,-4.5252,-4.4732,-4.4538,-4.464,-4.464,-4.4714,-4.4828,-4.4476,0.0,-4.5912,-4.5831,0.0,0.0,0.0,0.0,0.0,0.0,0.0,0.0,0.0,0.0,0.0,0.0,0.0,0.0,0.0,0.0,0.0,0.0,0.0,0.0,0.0,0.0,-4.4094,-4.4224,-4.4298,-4.4315,0.0,-4.3293,-4.2526,-4.2322,-4.1933,0.0,0.0,0.0,0.0,0.0,0.0,0.0,-4.1395,-4.0642,-4.0242,-4.0419,-3.9882,-3.9503,-3.9503,-3.9424,-3.9376,-3.9376,-3.8851,-3.8841,-3.9539,-3.9171,0.0,0.0,0.0,0.0,0.0,0.0,0.0,0.0,0.0,0.0,0.0,0.0,0.0,0.0,0.0,0.0,0.0,0.0,0.0,0.0,0.0,0.0,0.0,0.0,0.0,0.0,0.0,0.0,0.0,-3.9736,-4.0753,-4.2083,-4.1694,-4.1766,0.0,0.0,0.0,0.0,0.0,0.0,0.0,0.0,0.0,-4.4624,-4.538,-4.5485,-4.4825,-4.5364,-4.5595,-4.551,-4.5309,-4.5432,-4.585,-4.585,-4.6058,-4.6447,-4.6447,-4.6484,-4.6533,-4.6248,-4.6254,-4.6439,0.0,0.0,0.0,0.0,-4.5613,-4.5486,-4.4647,-4.4036,-4.3606,-4.3649,0.0,0.0,0.0,0.0,0.0,0.0,0.0,0.0,0.0,0.0,-4.4238,-4.4524,-4.4615,-4.4615,-4.4615,-4.4228,-4.3724,0.0,-4.3093,-4.301,-4.3098,0.0,0.0,0.0,0.0,-4.2019,-4.1738,-4.1034,-4.0685,-4.0949,-4.0699,-4.0543,-4.0672,-4.0324,-4.0119,-4.0119,-3.9455,-3.9055,-3.9015,-3.9219,-3.9427,0.0,0.0,0.0,0.0,0.0,0.0,0.0,0.0,0.0,0.0,0.0,0.0,0.0,0.0,0.0,0.0,0.0,0.0,0.0,0.0,0.0,0.0,0.0,0.0,0.0,0.0,0.0,0.0,-4.1248,-4.2249,-4.3685,-4.3288,-4.3322,0.0,0.0,0.0,0.0,0.0,0.0,-4.5563,-4.598,-4.6065,-4.5692,-4.6265,-4.6385,-4.5991,-4.6532,-4.6515,-4.5974,-4.5974,-4.6261,-4.6786,-4.6786,-4.7107,-4.7631,-4.7631,-4.7411,-4.7052,-4.6697,-4.6891,-4.7442,-4.7827,-4.7996,-4.7916,-4.728,-4.7018,-4.6861,-4.5716,-4.4947,-4.439,-4.4165,-4.3765,-4.3365,-4.3486,0.0,0.0,0.0,0.0,-4.3493,-4.3773,-4.3926,-4.4106,-4.4507,-4.4615,-4.4615,-4.4615,-4.4643,-4.4484,0.0,-4.3865,-4.3759,-4.3346,0.0,0.0,0.0,0.0,-4.1885,-4.1739,-4.1158,-4.0935,-4.1205,-4.1239,-4.1305,-4.1472,-4.1048,-4.0748,-4.0732,-4.0118,-3.9519,-3.8982,-3.9234,-3.9267,-3.8997,0.0,0.0,0.0,0.0,0.0,0.0,0.0,0.0,0.0,0.0,0.0,0.0,0.0,0.0,0.0,0.0,0.0,0.0,0.0,0.0,0.0,0.0,0.0,0.0,0.0,0.0,0.0,0.0,0.0,-4.467,-4.4759,0.0,0.0,0.0,0.0,-4.6474,-4.6199,-4.6282,-4.6976,-4.6546,-4.6435,-4.6709,-4.676,-4.6764,-4.6735,-4.6769,-4.6769,-4.6735,-4.6735,-4.6752,-4.6786,-4.6786,-4.6802,-4.6853,-4.6853,-4.7225,-4.7821,-4.7817,-4.7644,-4.7466,-4.8203,-4.8269,-4.7941,-4.7513,-4.7374,-4.7215,-4.6062,-4.5647,-4.5552,-4.5084,-4.5001,-4.502,-4.4794,-4.4903,0.0,0.0,-4.4794,-4.4848,-4.4614,-4.4547,-4.4564,-4.4598,-4.4615,-4.4615,-4.4615,-4.4709,-4.4748,0.0,-4.4009,-4.3564,-4.3739,0.0,-4.2596,-4.1981,-4.1836,-4.1574,-4.0953,-4.0833,-4.0882,-4.1068,-4.1117,-4.1102,-4.1102,-4.1207,-4.1225,-4.1088,-4.0729,-4.045,-4.0225,-3.9171,-3.885,-3.9434,-3.899,0.0,0.0,0.0,0.0,0.0,0.0,0.0,0.0,0.0,0.0,0.0,0.0,0.0,0.0,0.0,0.0,0.0,0.0,0.0,0.0,0.0,0.0,0.0,0.0,0.0,0.0,0.0,0.0,-4.3885,-4.473,0.0,-4.4878,-4.538,-4.6086,-4.691,-4.6931,-4.7104,-4.7594,-4.742,-4.7153,-4.6802,-4.6786,-4.6786,-4.6786,-4.7276,-4.7513,-4.7513,-4.7986,-4.846,-4.8917,-4.8917,-4.8646,-4.8223,-4.8223,-4.7834,-4.7225,-4.7686,-4.8111,-4.8464,-4.8736,-4.8758,-4.857,-4.7962,-4.7733,-4.7602,-4.6709,-4.6109,-4.5585,-4.4947,-4.4776,-4.482,-4.4709,-4.4737,-4.4776,-4.4709,-4.4709,-4.4737,-4.4626,-4.4615,-4.4615,-4.4615,-4.4615,-4.4615,-4.4615,-4.4626,-4.4654,-4.4598,-4.4452,-4.4361,-4.4435,-4.3764,-4.3061,-4.2537,-4.1965,-4.1376,-4.0681,-4.0593,-4.0696,-4.0882,-4.0916,-4.095,-4.1083,-4.1135,-4.1169,-4.1102,-4.0984,-4.0723,-4.0318,-3.9752,-3.9251,-3.8852,-3.8478,-3.8971,0.0,0.0,0.0,0.0,0.0,0.0,0.0,0.0,0.0,0.0,0.0,0.0,0.0,0.0,0.0,0.0,0.0,0.0,0.0,0.0,0.0,0.0,0.0,0.0,0.0,0.0,-4.4674,-4.415,-4.5244,-4.5805,-4.5228,-4.6034,-4.6845,-4.7492,-4.749,-4.7519,-4.772,-4.7545,-4.744,-4.7487,-4.7517,-4.7885,-4.8646,-4.9154,-4.9526,-4.9813,-5.0287,-5.0777,-5.1234,-5.0963,-5.0574,-5.0101,-4.9864,-4.9187,-4.8325,-4.8815,-4.9292,-4.9729,-4.9475,-4.9373,-4.9306,-4.8832,-4.8494,-4.8189,-4.7428,-4.6684,-4.5991,-4.5483,-4.5359,-4.5359,-4.5359,-4.5359,-4.5359,-4.5359,-4.5359,-4.5359,-4.5359,-4.5359,-4.5359,-4.5359,-4.5359,-4.5359,-4.5359,-4.5156,-4.4959,-4.4959,-4.4851,-4.4665,-4.439,-4.3881,-4.3446,-4.3188,-4.2206,-4.1454,-4.1336,-4.082,-4.0558,-4.0696,-4.0696,-4.073,-4.0898,-4.1458,-4.1556,-4.0948,-4.1525,-4.1454,-4.0499,-4.0429,-4.0135,-3.945,-3.8743,-3.9042,-4.0336,0.0,0.0,0.0,0.0,0.0,0.0,0.0,0.0,0.0,0.0,0.0,0.0,0.0,0.0,0.0,0.0,0.0,0.0,0.0,0.0,0.0,0.0,0.0,-4.4551,-4.5135,-4.5636,-4.5598,-4.6393,-4.691,-4.6878,-4.7827,-4.8386,-4.8194,-4.7862,-4.7634,-4.7512,-4.7012,-4.7389,-4.8902,-4.906,-5.0168,-5.2283,-5.235,-5.2756,-5.3501,-5.3551,-5.3568,-5.3551,-5.2756,-5.2384,-5.2334,-5.164,-5.1269,-5.1252,-5.1251,-5.1236,-5.1217,-5.0422,-5.0118,-5.0118,-5.0118,-4.9661,-4.8934,-4.824,-4.7479,-4.6819,-4.6819,-4.6802,-4.6786,-4.6786,-4.6786,-4.6786,-4.6786,-4.6786,-4.6786,-4.6786,-4.6786,-4.6786,-4.6786,-4.6786,-4.6786,-4.6786,-4.6244,-4.5737,-4.5737,-4.5145,-4.4434,-4.3647,-4.3512,-4.3564,-4.3776,-4.2494,0.0,-4.2726,-4.1463,-4.0539,-4.0555,-4.0539,-4.0539,-4.0555,-4.2157,-4.237,-4.0589,-4.2257,-4.2553,-4.0848,-4.1103,-4.1256,-4.1224,-3.9916,-3.9234,-3.9231,0.0,0.0,0.0,0.0,0.0,0.0,0.0,0.0,0.0,0.0,0.0,0.0,0.0,0.0,0.0,0.0,0.0,0.0,0.0,0.0,0.0,0.0,-4.6118,-4.5391,-4.5993,-4.6335,-4.5794,-4.6895,-4.7285,-4.6207,-4.6989,-4.7525,-4.7478,-4.858,-4.9476,-4.9967,-5.1005,-5.1778,-5.22,-5.2233,-5.2283,-5.23,-5.3399,-5.3805,-5.3518,-5.46,-5.5108,-5.5108,-5.4888,-5.4482,-5.3957,-5.3754,-5.3365,-5.2824,-5.2249,-5.235,-5.2756,-5.142,-5.0913,-5.0913,-5.0913,-5.0439,-4.9763,-4.956,-4.8663,-4.7614,-4.7614,-4.7242,-4.6786,-4.6786,-4.6786,-4.6786,-4.6786,-4.6786,-4.6786,-4.6786,-4.6786,-4.6786,-4.6786,-4.6786,-4.6786,-4.6786,-4.6633,-4.6498,-4.6498,-4.6329,-4.563,-4.383,-4.3512,-4.3202,-4.2318,-4.1767,0.0,-4.1187,-4.0754,-4.0916,-4.1998,-4.159,-4.1447,-4.2032,-4.2033,-4.1547,-4.0558,-4.1022,-4.114,-4.0799,-4.0733,-4.0491,-3.9992,-3.994,-3.993,0.0,0.0,0.0,0.0,0.0,0.0,0.0,0.0,0.0,0.0,0.0,0.0,0.0,0.0,0.0,0.0,0.0,0.0,0.0,0.0,0.0,0.0,-4.6663,-4.7217,-4.7099,-4.7495,-4.7453,-4.6456,-4.7586,-4.795,-4.6583,-4.7461,-4.8275,-4.8753,-4.9971,-5.1043,-5.1866,-5.2842,-5.3517,-5.3821,-5.3923,-5.4025,-5.4177,-5.5074,-5.5463,-5.5344,-5.6207,-5.663,-5.6613,-5.6308,-5.5936,-5.5497,-5.5192,-5.482,-5.4397,-5.3923,-5.4008,0.0,0.0,0.0,0.0,0.0,-5.0947,-5.0557,-5.0557,-5.0016,-4.9275,-4.9275,-4.9001,-4.8595,-4.8274,-4.8173,-4.8105,-4.78,-4.7716,-4.7716,-4.7716,-4.7716,-4.7716,-4.7716,-4.7716,-4.7716,-4.7716,-4.7479,-4.7259,-4.7259,-4.7005,0.0,-4.4726,-4.4447,-4.4062,-4.3073,-4.2365,-4.1817,-4.1534,-4.0919,-4.0851,-4.1687,-4.1375,-4.1281,-4.1737,-4.1964,0.0,0.0,0.0,-4.1422,-4.1223,-4.1107,0.0,0.0,0.0,-3.997,-3.9075,0.0,0.0,0.0,-3.8822,-3.8948,0.0,0.0,0.0,0.0,0.0,0.0,0.0,0.0,0.0,0.0,0.0,0.0,0.0,0.0,0.0,0.0,-4.7571,-4.8382,-4.9127,-4.9309,-4.8829,-4.7481,-4.8365,-4.8729,-4.782,-4.8858,-5.0025,-5.111,-5.185,-5.2588,-5.3397,0.0,0.0,0.0,0.0,-5.5547,-5.6799,-5.6884,-5.7205,-5.7763,-5.7848,-5.7881,-5.7865,-5.7222,-5.6917,-5.6884,-5.6241,-5.597,-5.5953,-5.5869,-5.5801,-5.5478,-5.3382,-5.252,-5.2367,-5.1708,-5.142,-5.1303,-5.1303,0.0,0.0,-5.1185,-5.1185,-5.1099,-5.0422,-5.0219,-5.0084,-4.9441,-4.9255,-4.9255,-4.9255,-4.9187,-4.912,-4.912,-4.9069,-4.9001,-4.9001,-4.8494,-4.8007,-4.8007,-4.7496,-4.6844,-4.6153,-4.5778,-4.5384,-4.4837,-4.3477,-4.2591,-4.2741,-4.1523,-4.0647,-4.0735,0.0,0.0,-4.072,-4.1974,-4.2122,-4.0589,-4.1841,-4.2324,-4.1688,-4.1656,-4.1355,-4.0705,-4.061,-3.966,-3.777,-3.7569,-3.6931,-3.5923,-3.858,-3.8708,0.0,0.0,0.0,0.0,0.0,0.0,0.0,0.0,0.0,0.0,0.0,0.0,0.0,0.0,0.0,-4.8298,-4.8656,-4.9144,-4.9889,-5.0485,-5.0354,-4.8879,-4.8928,-4.9226,-4.9609,-5.066,-5.1613,-5.2313,-5.395,-5.4933,-5.4946,-5.6269,-5.7067,-5.7203,-5.7239,-5.7103,-5.6799,-5.7391,-5.7459,-5.7019,0.0,0.0,-5.7881,-5.7746,-5.7679,-5.7679,-5.7526,-5.7459,-5.7425,-5.6833,-5.6241,-5.5615,-5.4566,-5.3788,-5.3264,-5.3112,-5.2655,-5.2097,-5.2097,-5.1708,-5.1185,-5.1185,-5.1185,-5.1183,-5.1048,-5.0997,0.0,-5.0828,-5.0762,-5.0762,-5.0762,-5.0338,-4.9881,-4.9881,-4.9424,-4.9001,-4.9001,-4.89,-4.8798,-4.8798,-4.868,-4.8329,-4.7616,-4.6059,-4.4675,-4.404,-4.3179,-4.2408,-4.1934,-4.1569,-4.1616,-4.2208,-4.1673,-4.1563,-4.2212,-4.1983,-4.1417,-4.0558,-4.0804,-4.0907,-4.0749,-4.0749,-4.0672,-4.0548,-4.0006,-3.9619,-3.9354,-3.8111,-3.7526,-3.7513,-3.7063,-3.6027,0.0,0.0,0.0,0.0,0.0,0.0,0.0,0.0,0.0,0.0,0.0,-4.7281,0.0,0.0,-4.8529,-4.9338,-4.9593,-4.9922,-5.0651,-5.075,-5.0485,-4.9756,-5.0303,-5.0803,-5.0958,-5.2044,-5.3135,-5.4116,-5.5385,-5.6267,-5.6622,-5.7456,-5.7881,-5.7881,-5.7881,-5.7712,-5.734,-5.7712,-5.7712,-5.734,-5.7712,-5.7881,-5.7881,-5.7881,-5.7881,-5.7881,-5.7881,-5.7881,-5.7865,-5.7492,-5.6917,-5.6224,-5.5835,-5.5023,-5.4042,-5.4042,-5.3551,-5.2909,-5.2909,-5.2672,-5.2367,-5.2367,-5.2367,-5.2283,-5.1877,-5.1758,-5.1674,-5.1286,-5.1185,-5.1185,-5.1185,-5.0947,-5.0659,-5.0659,-5.0371,-5.0016,-4.9627,-4.9543,-4.9441,-4.9069,-4.9001,-4.8892,-4.8513,-4.6963,-4.5393,-4.437,-4.3899,-4.327,-4.2248,-4.2109,-4.2098,-4.2147,-4.1772,-4.1554,-4.1588,-4.1226,-4.087,-4.0524,-4.0489,-4.0489,-4.0489,-4.0489,-4.0489,-4.0489,-4.0166,-3.9896,-3.964,-3.8879,-3.8484,-3.8384,-3.7597,-3.6175,0.0,0.0,0.0,0.0,0.0,0.0,0.0,0.0,-4.6583,-4.778,-4.7916,-4.8128,-4.9102,-4.9175,-4.9385,-5.0255,-5.0419,-5.0717,-5.1578,-5.1197,-5.0883,-5.1032,-5.1827,-5.24,-5.2399,-5.3499,-5.4692,-5.5965,-5.6501,-5.7111,-5.7865,-5.7881,-5.7881,-5.7881,-5.7881,-5.7881,-5.7881,-5.7881,-5.7881,-5.7881,-5.7881,-5.7881,-5.7881,-5.7881,-5.7881,-5.7881,-5.7881,-5.7881,-5.7881,-5.7881,-5.7543,-5.7019,-5.7019,-5.619,-5.4989,-5.4702,-5.4211,-5.3687,-5.3551,-5.3501,-5.3501,-5.3501,-5.3501,-5.3382,-5.2739,-5.2536,-5.2418,-5.1826,-5.1657,-5.1657,-5.1657,-5.1539,-5.1388,-5.1388,-5.1286,-5.1048,-5.0439,-5.0185,-4.9915,-4.9323,-4.9103,-4.9001,-4.9001,-4.7901,-4.6617,-4.5485,-4.5096,-4.4457,-4.3184,-4.3004,-4.2705,-4.1863,-4.1801,-4.1509,-4.0766,-4.0566,-4.0489,-4.0489,-4.0489,-4.0489,-4.0489,-4.0489,-4.0489,-4.0489,-4.0489,-4.0228,-3.9674,-3.9551,-3.9313,-3.8984,-3.8683,-3.7355,-4.4292,-4.4083,-4.4673,-4.559,-4.5864,-4.6237,0.0,0.0,-4.7977,-4.9576,-4.9377,-4.936,-5.0755,-5.0489,-5.0289,-5.105,-5.1199,-5.1628,-5.2986,-5.3102,-5.3301,-5.3927,-5.3053,-5.2945,-5.4322,-5.5335,-5.6342,-5.7322,-5.7603,-5.7797,-5.7881,-5.7881,-5.7881,-5.7881,-5.7881,-5.7881,-5.7881,-5.7881,-5.7881,-5.7881,-5.7881,-5.7881,-5.7881,-5.7881,-5.7881,-5.7881,-5.7881,-5.7881,-5.7881,-5.7881,-5.7831,-5.7763,-5.7763,-5.7273,-5.6393,-5.5074,-5.4532,-5.438,-5.3737,-5.3501,-5.3501,-5.3501,-5.3501,-5.3484,-5.3399,-5.3365,-5.3348,-5.3281,-5.3247,-5.3247,-5.3247,-5.2723,-5.2181,-5.2181,-5.1691,-5.1168,-5.1099,-5.0557,-5.0067,-4.9982,-4.9441,-4.9001,-4.9001,-4.8306,-4.7721,-4.7572,-4.6445,-4.531,-4.4567,-4.4453,-4.3968,-4.2628,-4.2494,-4.2217,-4.154,-4.0893,-4.0489,-4.0489,-4.0489,-4.0489,-4.0489,-4.0489,-4.0489,-4.0489,-4.0489,-4.0459,-4.0382,-3.9782,-3.956,-3.9665,-3.9062,-3.8266,-4.5364,0.0,0.0,0.0,-4.7255,-4.7689,-4.8232,-4.8629,-4.913,-5.0024,-4.9955,-5.0071,-5.1116,-5.1067,-5.1065,0.0,-5.2258,-5.2738,-5.3334,-5.3745,-5.4365,-5.5223,-5.47,-5.4568,-5.5351,-5.6291,-5.7029,-5.7554,-5.7772,-5.7881,-5.7881,-5.7881,-5.7881,-5.7881,-5.7881,-5.7881,-5.7881,-5.7881,-5.7881,-5.7881,-5.7881,-5.7881,-5.7881,-5.7881,-5.7881,-5.7881,-5.7881,-5.7881,-5.7881,-5.7881,-5.7881,-5.7881,-5.7881,-5.7695,-5.7306,-5.6275,-5.5615,-5.5141,-5.4397,-5.4143,-5.4059,-5.3653,-5.3501,-5.3501,-5.3501,-5.3501,-5.3501,-5.3501,-5.3501,-5.3501,-5.3501,-5.3247,-5.301,-5.301,-5.2773,-5.2418,-5.1944,-5.1606,-5.1133,-5.0253,-4.9847,-4.9492,-4.9069,-4.837,-4.7885,-4.7885,-4.6657,-4.5457,-4.4715,-4.4647,-4.4287,-4.327,-4.2833,-4.234,-4.1663,-4.1324,-4.097,-4.052,-4.0489,-4.0489,-4.0489,-4.0489,-4.0489,-4.0489,-4.0489,-4.0489,-4.0489,-4.0213,-4.0108,-4.0211,-3.9933,-3.9625,-4.6121,0.0,0.0,-4.7706,-4.831,-4.8769,-4.8987,-4.9455,-4.9959,-5.0405,-5.0502,-5.0734,-5.1481,-5.1614,-5.1796,-5.2326,-5.2953,-5.3483,-5.3682,-5.4398,-5.5202,-5.6083,-5.6312,-5.6362,-5.6313,-5.6913,-5.7402,-5.7588,-5.7772,-5.7881,-5.7881,-5.7881,-5.7881,-5.7881,-5.7881,-5.7881,-5.7881,-5.7881,-5.7881,-5.7881,-5.7881,-5.7881,-5.7881,-5.7881,-5.7881,-5.7881,-5.7881,-5.7881,-5.7881,-5.7881,-5.7881,-5.7881,-5.7881,-5.7881,-5.7831,-5.7289,-5.6647,-5.5919,-5.5158,-5.4769,-5.4499,-5.3974,-5.367,-5.3501,-5.3501,-5.3501,-5.3501,-5.3501,-5.3501,-5.3501,-5.3501,-5.3501,-5.3501,-5.3501,-5.3501,-5.3348,-5.2756,-5.2469,-5.1978,-5.0913,-5.0371,-4.9915,-4.9407,-4.8535,-4.7885,-4.7885,-4.6657,-4.5531,-4.4971,-4.4723,-4.4425,-4.3932,-4.3264,-4.2679,-4.2186,-4.1986,-4.1571,-4.0863,-4.0782,-4.0689,-4.0505,-4.0489,-4.0489,-4.0489,-4.0489,-4.0489,-4.0489,-4.0489,-4.0489,-4.0489,-4.0489,-4.0489,0.0,0.0,-4.7179,-4.8281,-4.8841,-4.926,-4.9988,-5.0154,-5.0386,-5.1133,-5.1282,-5.1498,-5.2243,-5.2393,-5.2393,-5.2409,-5.2953,-5.3665,-5.4394,-5.5273,-5.6117,-5.687,-5.774,-5.806,0.0,-5.7273,-5.7402,-5.7588,-5.7772,-5.7881,-5.7881,-5.7881,-5.7881,-5.7881,-5.7881,-5.7881,-5.7881,-5.7881,-5.7881,-5.7881,-5.7881,-5.7881,-5.7881,-5.7881,-5.7881,-5.7881,-5.7881,-5.7881,-5.7881,-5.7881,-5.7881,-5.7881,-5.7881,-5.7881,-5.7881,-5.7865,-5.7391,-5.6664,-5.5936,-5.5209,-5.4583,-5.4566,-5.4076,-5.3501,-5.3501,-5.3501,-5.3501,-5.3501,-5.3501,-5.3501,-5.3501,-5.3501,-5.3501,-5.3501,-5.3501,-5.3501,-5.3467,-5.2858,-5.2283,-5.2249,-5.1082,-5.0084,-5.005,-4.887,-4.7885,-4.7885,-4.6657,-4.5697,-4.566,-4.503,-4.461,-4.4594,-4.3978,-4.3562,-4.3547,-4.294,-4.2294,-4.1617,-4.1571,-4.1263,-4.052,-4.0489,-4.0489,-4.0489,-4.0489,-4.0489,-4.0489,-4.0489,-4.0489,-4.0489,-4.0489,-4.0489,0.0,0.0,-4.8176,-4.9359,-5.009,-5.0601,-5.085,-5.1297,-5.1711,-5.1995,-5.144,-5.1061,-5.1278,-5.1329,-5.1329,-5.1329,-5.3026,-5.4413,-5.4662,-5.5929,-5.7168,-5.8018,-5.7846,0.0,0.0,0.0,0.0,-5.7621,-5.7772,-5.7881,-5.7881,-5.7881,-5.7881,-5.7881,-5.7881,-5.7881,-5.7881,-5.7881,-5.7881,-5.7881,-5.7881,-5.7881,-5.7881,-5.7881,-5.7881,-5.7881,-5.7881,-5.7881,-5.7881,-5.7881,-5.8186,-5.8592,-5.8084,-5.8203,-5.8575,-5.8068,-5.7729,-5.7408,-5.6697,-5.6275,-5.5902,-5.4905,-5.4431,-5.4143,-5.3653,-5.3501,-5.3501,-5.3501,-5.3501,-5.3501,-5.3501,-5.3501,-5.3501,-5.3501,-5.3501,-5.3501,-5.3501,-5.3298,-5.2942,-5.2401,-5.1894,-5.1251,-5.0253,-4.9675,-4.9034,-4.8065,-4.6657,-4.5531,-4.503,-4.4761,-4.461,-4.461,-4.4409,-4.4086,-4.3639,-4.3408,-4.2971,-4.2309,-4.1848,-4.1494,-4.1247,-4.0751,-4.0489,-4.0489,-4.0489,-4.0489,-4.0489,-4.0489,-4.0489,-4.0489,-4.0489,-4.0489,0.0,-4.8193,-4.8757,-5.0222,-5.0932,-5.1382,-5.1647,-5.2078,-5.2409,-5.2409,-5.1561,-5.0792,-5.0792,-5.0792,-5.069,-5.0249,-5.215,-5.3795,-5.4169,-5.542,-5.6808,-5.816,-5.8089,-5.8038,0.0,0.0,0.0,-5.7638,-5.7772,-5.7881,-5.7881,-5.7881,-5.7881,-5.7881,-5.7881,-5.7881,-5.7881,-5.7881,-5.7881,-5.7881,-5.7881,-5.7881,-5.7881,-5.7881,-5.7881,-5.7881,-5.7881,-5.8051,-5.8287,-5.8287,-5.8727,-5.9353,-5.8863,-5.8812,-5.8947,-5.8473,-5.8118,-5.7814,-5.7357,-5.7019,-5.6596,-5.5395,-5.4803,-5.4448,-5.3721,-5.3501,-5.3501,-5.3501,-5.3501,-5.3501,-5.3501,-5.3501,-5.3501,-5.3501,-5.3501,-5.3501,-5.3501,-5.3501,-5.3348,-5.2841,-5.2503,-5.1995,-5.1048,-5.0439,-4.9592,-4.8131,-4.6864,-4.5841,-4.5104,-4.4746,-4.461,-4.461,-4.461,-4.444,-4.4009,-4.3978,-4.3685,-4.2987,-4.254,-4.2202,-4.1971,-4.1278,-4.0874,-4.0874,-4.0628,-4.0489,-4.0489,-4.0489,-4.0489,-4.0489,-4.0489,-4.0489,-4.8056,-4.8503,-4.8991,-5.0887,-5.1365,-5.1547,-5.226,-5.2409,-5.2393,-5.2326,-5.1478,-5.0691,0.0,0.0,-5.0384,-4.928,-5.0622,-5.2167,-5.3093,-5.4023,-5.5375,0.0,0.0,0.0,0.0,0.0,0.0,-5.7675,0.0,-5.7881,-5.7881,-5.7881,-5.7881,-5.7881,-5.7881,-5.7881,-5.7881,-5.7881,-5.7881,-5.7881,-5.7881,-5.7881,-5.7881,-5.7881,-5.7898,-5.7949,-5.7949,-5.8372,-5.9066,-5.9066,-5.9505,-6.0165,-6.0114,-5.9674,-5.9066,-5.9032,-5.8541,-5.7881,-5.7881,-5.7442,-5.6731,-5.6004,-5.526,-5.4515,-5.3788,-5.3534,-5.3501,-5.3501,-5.3501,-5.3501,-5.3501,-5.3501,-5.3501,-5.3501,-5.3501,-5.3501,-5.3501,-5.3501,-5.3501,-5.3501,-5.2858,-5.2283,-5.2249,-5.1048,-4.9592,-4.8131,-4.7288,-4.6534,-4.5805,-4.5067,-4.461,-4.461,-4.461,-4.461,-4.461,-4.461,-4.4348,-4.3701,-4.3624,-4.3294,-4.2679,-4.2001,-4.1632,-4.1601,-4.0889,-4.0536,-4.0489,-4.0489,-4.0489,-4.0489,-4.0489,-4.0489,-4.8954,-4.9876,-5.0822,-5.1846,-5.2127,-5.2177,-5.2376,-5.2409,-5.213,-5.1259,-5.0253,-4.928,0.0,0.0,0.0,-4.9358,-5.1744,0.0,-5.471,-5.5609,0.0,0.0,0.0,-5.8321,-5.8693,-5.8389,0.0,0.0,-5.7881,-5.7881,-5.7881,-5.7881,-5.7881,-5.7881,-5.7881,-5.7881,-5.7881,-5.7881,-5.7881,-5.7881,-5.7881,-5.7881,-5.7881,-5.7881,-5.8203,-5.8727,-5.8727,-5.915,-5.9827,-5.9827,-6.0283,-6.0943,-6.0334,-5.9996,-5.9759,-5.9218,-5.8541,-5.7881,-5.7881,-5.7763,-5.7492,-5.6765,-5.6021,-5.5294,-5.4532,-5.394,-5.3501,-5.3501,-5.3501,-5.3501,-5.3501,-5.3501,-5.3501,-5.3501,-5.3501,-5.3501,-5.3501,-5.3501,-5.3501,-5.3501,-5.2858,-5.2131,-5.1589,-5.071,-4.9592,-4.8131,-4.7288,-4.6534,-4.5805,-4.5067,-4.461,-4.461,-4.461,-4.461,-4.461,-4.461,-4.4548,-4.4363,-4.3886,-4.3531,-4.3362,-4.2694,-4.2109,-4.1617,-4.1432,-4.1063,-4.0489,-4.0489,-4.0489,-4.0489,-4.0489,-4.0489,-4.9559,-5.0539,-5.1481,-5.2227,-5.2409,-5.2243,-5.172,-5.1605,-5.1292,-5.0089,-4.9066,0.0,0.0,0.0,0.0,0.0,0.0,0.0,-5.448,-5.5108,-5.621,0.0,-5.8152,0.0,-5.849,-5.8135,-5.7881,0.0,-5.7881,-5.7881,-5.7881,-5.7881,-5.7881,-5.7881,-5.7881,-5.7881,-5.7881,-5.7881,-5.7881,-5.7881,-5.7881,-5.8068,-5.8389,-5.8389,-5.8795,-5.9488,0.0,-5.9928,-6.0639,-6.0639,-6.1078,-6.1738,-6.1281,-6.0689,-6.0047,-5.9641,-5.8812,-5.7881,-5.7881,-5.7881,-5.7763,-5.7036,-5.6308,-5.5581,-5.482,-5.4076,-5.3501,-5.3501,-5.3501,-5.3501,-5.3501,-5.3501,-5.3501,-5.3501,-5.3501,-5.3501,-5.3501,-5.3501,-5.3501,-5.3501,-5.3145,-5.2486,-5.1403,-5.0862,-4.9963,-4.8181,-4.7288,-4.6534,-4.5805,-4.5067,-4.461,-4.461,-4.461,-4.461,-4.461,-4.461,-4.461,-4.461,-4.4255,-4.4055,-4.4055,-4.3387,-4.2848,-4.2479,-4.1894,-4.1401,-4.1001,-4.0643,-4.0489,-4.0489,-4.0489,-4.0489,-4.9924,-5.08,-5.1614,-5.226,-5.2409,-5.2099,-5.086,-5.0593,-5.0241,-4.8942,0.0,0.0,-4.7146,0.0,-4.8834,-4.7991,0.0,-5.1891,-5.3702,-5.3957,-5.4941,-5.7596,-5.7881,-5.7881,-5.7881,-5.7881,-5.7881,-5.7881,-5.7881,-5.7881,-5.7881,-5.7881,-5.7881,-5.7881,-5.7881,-5.7881,-5.7881,-5.7881,-5.7881,-5.7881,-5.7983,-5.8389,-5.9015,-5.9116,-5.9556,-6.0266,-6.0266,-6.0706,-6.145,-6.145,-6.1823,-6.2381,-6.2381,-6.1518,-6.025,-6.0131,-5.9235,-5.8017,-5.7915,-5.7881,-5.778,-5.7154,-5.6461,-5.5716,-5.4972,-5.4228,-5.3636,-5.3534,-5.3501,-5.3501,-5.3501,-5.3501,-5.3501,-5.3501,-5.3501,-5.3501,-5.3501,-5.3501,-5.3501,-5.3501,-5.3501,-5.301,-5.1488,-5.1185,-5.0435,-4.81,-4.7221,-4.6499,-4.566,-4.5008,-4.461,-4.461,-4.461,-4.461,-4.461,-4.461,-4.461,-4.461,-4.461,-4.461,-4.461,-4.4055,-4.3701,-4.3608,-4.2355,-4.1694,-4.1566,-4.0843,-4.0489,-4.0455,-4.0455,-4.0489,-5.0137,-5.1181,-5.226,-5.2393,-5.2409,-5.2099,-5.086,-5.0593,0.0,0.0,0.0,-4.6931,-4.5937,-4.6852,0.0,-4.8949,0.0,0.0,0.0,0.0,-5.6005,0.0,0.0,0.0,0.0,0.0,0.0,0.0,0.0,-5.7881,-5.7881,-5.7881,-5.7881,-5.7881,-5.7881,-5.7881,-5.7881,-5.7881,-5.7881,-5.7898,-5.8524,-5.8896,-5.9032,-5.9641,-6.0351,-6.1095,-6.1095,0.0,-6.2195,-6.2195,-6.2279,-6.2381,-6.2381,-6.1856,-6.1011,-6.0351,-5.9556,-5.8727,-5.8101,-5.7881,-5.7865,-5.7746,-5.7205,-5.6478,-5.5733,-5.4989,-5.4279,-5.367,-5.3501,-5.3501,-5.3501,-5.3501,-5.3501,-5.3501,-5.3501,-5.3501,-5.3501,-5.3501,-5.3501,-5.3501,-5.3501,-5.301,-5.1488,-5.1185,-5.0256,-4.7399,-4.688,-4.6324,-4.4955,-4.4685,-4.461,-4.461,-4.461,-4.461,-4.461,-4.461,-4.461,-4.461,-4.461,-4.461,-4.461,-4.4502,-4.4178,-4.3624,-4.2817,-4.2068,-4.1357,-4.0793,-4.0436,-4.0331,-4.0331,-4.0401,-4.9525,-5.0701,-5.1846,-5.1846,-5.1846,-5.1453,-5.0039,0.0,0.0,0.0,0.0,-4.6086,-4.5508,0.0,0.0,0.0,0.0,0.0,0.0,0.0,0.0,0.0,0.0,0.0,0.0,0.0,0.0,0.0,0.0,-5.7881,-5.7881,-5.7881,-5.7881,-5.7881,-5.7881,-5.7881,-5.7881,-5.7881,-5.8084,-5.849,-5.8846,-5.9438,-6.0216,-6.0571,-6.1146,-6.1873,-6.1873,-6.2059,-6.2381,-6.2381,-6.2381,-6.2381,-6.2381,-6.1941,-6.1197,-6.0402,-5.9641,-5.8896,-5.8152,-5.7881,-5.7881,-5.7881,-5.7391,-5.6664,-5.5936,-5.5192,-5.4448,-5.3704,-5.3501,-5.3501,-5.3501,-5.3501,-5.3501,-5.3501,-5.3501,-5.3501,-5.3501,-5.3501,-5.3501,-5.3501,-5.3501,-5.301,-5.1488,-5.1185,-5.019,-4.7228,-4.6811,-4.6253,-4.4783,-4.461,-4.461,-4.461,-4.461,-4.461,-4.461,-4.461,-4.461,-4.461,-4.461,-4.461,-4.461,-4.461,-4.4471,-4.4132,-4.3448,-4.2735,-4.195,-4.126,-4.0718,-4.0312,-4.0207,-4.0172,-4.8796,-4.999,-5.1101,-5.1083,-5.1118,-5.0725,-4.9036,-4.8244,0.0,0.0,0.0,0.0,0.0,0.0,0.0,0.0,0.0,0.0,0.0,0.0,0.0,0.0,0.0,0.0,0.0,0.0,0.0,0.0,0.0,0.0,-5.7881,-5.7881,-5.7881,-5.7881,-5.7881,-5.7881,-5.7881,-5.8051,-5.844,-5.9015,-5.9353,-6.0148,-6.1315,-6.1467,-6.1839,-6.2381,-6.2381,-6.2381,-6.2381,-6.2381,-6.2381,-6.2381,-6.2381,-6.2042,-6.1417,-6.0452,-5.9742,-5.9116,-5.8203,-5.7881,-5.7881,-5.7881,-5.7509,-5.6867,-5.5987,-5.531,-5.4651,-5.3754,-5.3501,-5.3501,-5.3501,-5.3501,-5.3501,-5.3501,-5.3501,-5.3501,-5.3501,-5.3501,-5.3501,-5.3501,-5.3501,-5.301,-5.1488,-5.1185,-5.0256,-4.7467,-4.6914,-4.6324,-4.5008,-4.4685,-4.461,-4.461,-4.461,-4.461,-4.461,-4.461,-4.461,-4.461,-4.461,-4.461,-4.461,-4.4549,-4.4549,-4.4549,-4.3872,-4.3174,-4.2404,-4.173,-4.0969,-4.0156,-4.0066,-4.0011,-4.8311,-4.936,-5.0458,-5.0337,-5.0525,-5.0257,-4.8341,0.0,0.0,0.0,0.0,0.0,0.0,0.0,0.0,0.0,0.0,0.0,0.0,0.0,0.0,0.0,0.0,0.0,0.0,0.0,0.0,0.0,0.0,0.0,-5.7881,-5.7881,-5.7881,-5.7881,-5.7881,-5.7881,-5.7881,-5.8558,-5.8947,-5.9032,-6.0419,-6.1163,-6.1315,-6.1992,-6.233,-6.2381,-6.2381,-6.2381,0.0,-6.2381,-6.2381,-6.2381,-6.2381,-6.2347,-6.211,-6.0639,-6.0063,-5.981,-5.8389,-5.7881,-5.7881,-5.7881,-5.7831,-5.7526,-5.6139,-5.5666,-5.5327,-5.3907,-5.3501,-5.3501,-5.3501,-5.3501,-5.3501,-5.3501,-5.3501,-5.3501,-5.3501,-5.3501,-5.3501,-5.3501,-5.3501,-5.301,-5.1488,-5.1185,-5.0435,-4.8133,-4.7221,-4.6499,-4.5697,-4.4993,-4.461,-4.461,-4.461,-4.461,-4.461,-4.461,-4.461,-4.461,-4.461,-4.461,-4.461,-4.4419,-4.432,-4.432,-4.3662,-4.2824,-4.1783,-4.1658,-4.0949,-3.9753,-3.9925,-4.0011,-4.7456,-4.8075,-4.8658,-4.8911,-4.8907,-4.8688,-4.8118,0.0,0.0,0.0,-4.5397,-4.5397,-4.5397,0.0,0.0,0.0,0.0,0.0,0.0,0.0,0.0,0.0,0.0,0.0,0.0,0.0,0.0,0.0,0.0,0.0,-5.7881,-5.7881,-5.7881,-5.7881,-5.8321,-5.8558,-5.8558,-5.9302,-5.9911,-6.0402,-6.1011,-6.1535,-6.1958,-6.2262,-6.2381,-6.2381,-6.2381,-6.2381,0.0,-6.2381,-6.2381,-6.2381,-6.2381,-6.2381,-6.2195,-6.0672,-6.0097,-5.9894,-5.8406,-5.7881,-5.7881,-5.7881,-5.7881,-5.7611,-5.6156,-5.5681,-5.5377,-5.3923,-5.3501,-5.3501,-5.3501,-5.3501,-5.3501,-5.3501,-5.3501,-5.3501,-5.3501,-5.3501,-5.3501,-5.3501,-5.3501,-5.301,-5.1488,-5.1185,-5.0289,-4.7636,-4.6983,-4.6534,-4.5805,-4.5067,-4.4746,-4.5216,-4.4858,-4.461,-4.461,-4.461,-4.461,-4.461,-4.461,-4.461,-4.461,-4.4534,-4.4473,-4.4473,-4.4212,-4.3462,-4.2258,-4.1946,-4.1167,-3.9889,-3.9711,-3.964,-4.6602,-4.7077,-4.7479,-4.7623,-4.7538,-4.7419,0.0,0.0,0.0,-4.5499,-4.5397,-4.5397,-4.5397,0.0,0.0,0.0,0.0,0.0,0.0,0.0,0.0,0.0,0.0,0.0,0.0,0.0,0.0,0.0,0.0,0.0,-5.8203,-5.822,-5.822,-5.822,-5.8744,-5.9116,-5.9336,-6.008,-6.074,-6.1298,-6.1518,-6.189,-6.2381,-6.2381,-6.2381,-6.2381,-6.2381,-6.2381,0.0,-6.2381,-6.2381,-6.2381,-6.2381,-6.2381,-6.2195,-6.0672,-6.0097,-5.9894,-5.8406,-5.7881,-5.7881,-5.7881,-5.7881,-5.7611,-5.6156,-5.5681,-5.5377,-5.3923,-5.3501,-5.3501,-5.3501,-5.3501,-5.3501,-5.3501,-5.3501,-5.3501,-5.3501,-5.3501,-5.3501,-5.3501,-5.3501,-5.301,-5.1488,-5.1185,-5.0354,-4.7819,-4.7254,-4.688,-4.6111,-4.5384,-4.503,-4.5348,-4.4896,-4.461,-4.461,-4.461,-4.461,-4.461,-4.461,-4.461,-4.461,-4.4549,-4.4511,-4.4511,-4.4511,-4.3813,-4.242,-4.2258,-4.1425,-3.9996,-3.9711,-3.9496,-4.5855,-4.6587,-4.7396,-4.6525,-4.6654,-4.6816,0.0,0.0,0.0,-4.5526,-4.5397,-4.5397,-4.5397,0.0,0.0,0.0,0.0,0.0,0.0,0.0,0.0,0.0,0.0,0.0,0.0,0.0,0.0,0.0,0.0,0.0,-5.8964,-5.8998,-5.8998,-5.8998,-5.9015,-5.9353,-6.008,-6.0892,-6.1298,-6.1315,-6.2026,-6.2381,-6.2381,-6.2381,-6.2381,-6.2381,-6.2381,-6.2381,0.0,-6.2381,-6.2381,-6.2381,-6.2381,-6.2381,-6.2195,-6.0672,-6.0097,-5.9894,-5.8406,-5.7881,-5.7881,-5.7881,-5.7881,-5.7611,-5.6156,-5.5681,-5.5377,-5.3923,-5.3501,-5.3501,-5.3501,-5.3501,-5.3501,-5.3501,-5.3501,-5.3501,-5.3501,-5.3501,-5.3501,-5.3501,-5.3501,-5.301,-5.1488,-5.1185,-5.0678,-4.919,-4.8338,-4.7622,-4.688,-4.6147,-4.5421,-4.4685,-4.461,-4.461,-4.461,-4.461,-4.461,-4.461,-4.461,-4.461,-4.461,-4.4396,-4.4281,-4.4281,-4.4281,-4.3548,-4.1999,-4.242,-4.1679,-4.0011,-4.0011,-3.9783,-4.5784,-4.579,-4.5869,-4.5986,-4.5892,-4.5846,-4.6075,0.0,0.0,-4.5449,-4.5397,-4.5397,-4.5397,-4.5397,0.0,0.0,0.0,0.0,0.0,0.0,0.0,0.0,0.0,0.0,0.0,0.0,0.0,0.0,0.0,0.0,-5.8998,-5.9488,-5.9759,-5.9759,-6.03,-6.0689,-6.0926,-6.167,-6.2042,-6.2042,-6.2279,-6.2381,-6.2381,-6.2381,-6.2381,0.0,-6.2381,-6.2381,-6.2381,-6.2381,-6.2381,-6.2381,-6.2381,-6.2076,-6.1518,-6.0486,-5.9793,-5.9218,-5.8237,-5.7881,-5.7881,-5.7881,-5.7881,-5.7611,-5.6156,-5.5681,-5.5377,-5.3923,-5.3501,-5.3501,-5.3501,-5.3501,-5.3501,-5.3501,-5.3501,-5.3501,-5.3501,-5.3501,-5.3501,-5.3501,-5.3501,-5.301,-5.1488,-5.1185,-5.0532,-4.8555,-4.8064,-4.7622,-4.688,-4.6163,-4.5588,-4.5384,-4.4896,-4.461,-4.461,-4.461,-4.461,-4.461,-4.461,-4.461,-4.461,-4.4549,-4.4511,-4.4511,-4.405,-4.3352,-4.242,-4.1799,-4.0933,-3.9803,-3.9803,-3.9803,0.0,-4.5531,-4.5429,-4.555,-4.5391,0.0,0.0,0.0,0.0,-4.5397,-4.5397,-4.5397,-4.5397,0.0,0.0,0.0,0.0,0.0,0.0,0.0,0.0,0.0,0.0,0.0,0.0,0.0,0.0,0.0,0.0,0.0,-5.9404,-6.0148,-6.0672,-6.096,-6.118,-6.1434,-6.1704,-6.2161,-6.2381,-6.2381,-6.2381,-6.2381,-6.2381,-6.2381,-6.2381,-6.2381,-6.2381,-6.2381,0.0,-6.2381,-6.2381,-6.2364,-6.2076,-6.1704,-6.118,-6.008,-5.9404,-5.8896,-5.8152,-5.7881,-5.7881,-5.7881,-5.7509,-5.69,-5.5987,-5.5327,-5.4685,-5.3771,-5.3501,-5.3501,-5.3501,-5.3501,-5.3501,-5.3501,-5.3501,-5.3501,-5.3501,-5.3501,-5.3501,-5.3501,-5.3501,-5.301,-5.1488,-5.1185,-5.0532,-4.8604,-4.8306,-4.8032,-4.7322,-4.6569,-4.602,-4.5733,-4.503,-4.461,-4.461,-4.461,-4.461,-4.461,-4.461,-4.461,-4.461,-4.461,-4.4486,-4.424,-4.3824,-4.3162,-4.2232,-4.1275,-4.0497,-3.991,-3.9839,-3.9839,0.0,0.0,0.0,0.0,0.0,0.0,0.0,0.0,0.0,-4.5397,-4.5397,-4.5397,0.0,0.0,0.0,0.0,0.0,0.0,0.0,0.0,0.0,0.0,0.0,0.0,0.0,0.0,0.0,0.0,0.0,0.0,-6.0148,-6.0943,-6.1687,-6.2364,-6.1738,-6.1704,-6.2381,-6.2381,-6.2381,-6.2381,-6.2381,-6.2381,-6.2381,-6.2381,-6.2381,0.0,-6.2381,-6.2364,-6.2313,-6.2313,-6.2279,-6.2161,-6.1484,-6.118,-6.096,-5.9539,-5.8981,-5.8829,-5.8135,-5.7881,-5.7881,-5.7881,-5.69,-5.5681,-5.5681,-5.4685,-5.3501,-5.3501,-5.3501,-5.3501,-5.3501,-5.3501,-5.3501,-5.3501,-5.3501,-5.3501,-5.3501,-5.3501,-5.3501,-5.3501,-5.345,-5.2942,-5.1471,-5.1166,-5.061,-4.9142,-4.897,-4.8719,-4.7917,-4.7221,-4.6499,-4.5769,-4.503,-4.461,-4.461,-4.461,-4.461,-4.461,-4.461,-4.461,-4.461,-4.4564,-4.4255,-4.3624,-4.3516,-4.2802,-4.1524,-4.0812,-4.0436,-4.0312,-4.0101,-3.9925,-4.5371,0.0,-4.5515,0.0,0.0,0.0,0.0,0.0,0.0,0.0,0.0,0.0,0.0,0.0,0.0,0.0,0.0,0.0,0.0,0.0,0.0,0.0,0.0,0.0,0.0,0.0,0.0,0.0,0.0,-6.0842,-6.1011,-6.1721,-6.2212,-6.2381,-6.2229,-6.2212,-6.2381,-6.2381,-6.2381,-6.2381,-6.2381,-6.2381,-6.2381,-6.2381,-6.2381,-6.2381,-6.2381,-6.2076,-6.1552,-6.1552,-6.1197,-6.0622,-6.0452,-6.0047,-5.9505,-5.915,-5.8643,-5.8118,-5.7949,-5.7881,-5.7881,-5.7881,-5.69,-5.5681,-5.5681,-5.4685,-5.3501,-5.3501,-5.3501,-5.3501,-5.3501,-5.3501,-5.3501,-5.3501,-5.3501,-5.3501,-5.3501,-5.3501,-5.3501,-5.3501,-5.301,-5.23,-5.1369,-5.0727,-4.9875,-4.8375,-4.8656,-4.853,-4.7221,-4.6914,-4.6499,-4.5769,-4.503,-4.461,-4.461,-4.461,-4.461,-4.461,-4.461,-4.461,-4.461,-4.4117,-4.3762,-4.3608,-4.2571,-4.1576,-4.0627,-4.0547,-4.0436,-4.0312,-4.0242,-4.0137,-4.5397,-4.5397,-4.5397,-4.5397,-4.5397,-4.5397,0.0,0.0,0.0,0.0,0.0,0.0,0.0,0.0,0.0,0.0,0.0,0.0,0.0,0.0,0.0,0.0,0.0,0.0,0.0,0.0,0.0,0.0,0.0,-6.1298,-6.1298,-6.1992,-6.2381,-6.2381,-6.2381,-6.2381,-6.2381,-6.2381,-6.2381,-6.2381,-6.2381,-6.2381,-6.2381,-6.2381,-6.2212,-6.189,-6.189,-6.145,-6.0757,-6.0757,-6.0486,-6.0063,-5.9742,-5.9353,-5.8981,-5.8626,-5.8237,-5.7881,-5.7881,-5.7881,-5.7831,-5.7492,-5.663,-5.5649,-5.531,-5.4397,-5.3501,-5.3501,-5.3501,-5.3501,-5.3501,-5.3501,-5.3501,-5.3501,-5.3501,-5.3501,-5.3501,-5.3501,-5.3501,-5.3501,-5.2858,-5.208,-5.1352,-5.0591,-4.9704,-4.8582,-4.875,-4.8593,-4.7456,-4.7017,-4.6499,-4.5769,-4.503,-4.461,-4.461,-4.461,-4.461,-4.461,-4.461,-4.4471,-4.4163,-4.3793,-4.3316,-4.2679,-4.1648,-4.0854,-4.0401,-4.0455,-4.047,-4.0401,-4.0347,-4.0207,-4.5259,-4.5397,-4.5526,-4.5432,-4.5311,-4.5259,0.0,0.0,0.0,0.0,0.0,0.0,0.0,0.0,0.0,0.0,0.0,0.0,0.0,0.0,0.0,0.0,0.0,0.0,0.0,0.0,0.0,0.0,0.0,-6.1467,-6.1467,-6.2059,-6.2381,-6.2381,-6.2381,-6.2381,-6.2381,-6.2381,-6.2381,-6.2381,-6.2381,-6.2381,-6.2381,-6.2279,-6.189,-6.1298,0.0,0.0,-5.9928,-5.9928,-5.9877,-5.9708,-5.9082,-5.8846,-5.8761,-5.8118,-5.7881,-5.7881,-5.7881,-5.7881,-5.7763,-5.7036,-5.6308,-5.5581,-5.482,-5.4076,-5.3501,-5.3501,-5.3501,-5.3501,-5.3501,-5.3501,-5.3501,-5.3501,-5.3501,-5.3501,-5.3501,-5.3501,-5.3467,-5.3348,-5.2689,-5.1911,-5.1166,-5.0422,-4.968,-4.8945,-4.894,-4.8688,-4.7852,-4.7187,-4.6499,-4.5769,-4.503,-4.461,-4.461,-4.461,-4.4579,-4.4471,-4.4471,-4.4117,-4.3347,-4.33,-4.273,-4.1463,-4.0797,-4.0489,-4.0489,-4.0489,-4.0489,-4.0489,-4.0366,-4.0242,-4.463,-4.5283,-4.6028,-4.5526,-4.4941,-4.463,0.0,0.0,0.0,0.0,0.0,0.0,0.0,0.0,0.0,0.0,0.0,0.0,0.0,0.0,0.0,0.0,0.0,0.0,0.0,0.0,0.0,0.0,0.0,-6.2229,-6.2229,-6.233,-6.2381,-6.2381,-6.2381,-6.2381,-6.2381,-6.2381,-6.2381,-6.2381,-6.2381,-6.2381,-6.2364,-6.1755,-6.1417,-6.1264,0.0,-5.986,-5.9184,-5.9184,-5.8812,-5.822,-5.8101,-5.8068,-5.8051,-5.7932,-5.7881,-5.7881,-5.7881,-5.7881,-5.7763,-5.7036,-5.6308,-5.5581,-5.482,-5.4076,-5.3501,-5.3501,-5.3501,-5.3501,-5.3501,-5.3501,-5.3501,-5.3501,-5.3501,-5.3501,-5.3501,-5.3501,-5.3298,-5.2621,-5.1894,-5.115,-5.0388,-4.9661,-4.8916,-4.8177,-4.8593,-4.8498,-4.7153,-4.688,-4.6499,-4.5769,-4.503,-4.461,-4.461,-4.461,-4.4379,-4.3793,-4.3762,-4.3208,-4.1955,-4.1909,-4.1524,-4.0674,-4.0551,-4.0489,-4.0489,-4.0489,-4.0489,-4.0489,-4.0489,-4.0401,-4.4397,-4.4466,-4.4819,-4.5686,-4.5873,-4.5956,0.0,0.0,0.0,0.0,0.0,0.0,0.0,0.0,0.0,0.0,0.0,0.0,0.0,0.0,0.0,0.0,0.0,0.0,0.0,0.0,0.0,0.0,0.0,0.0,-6.1163,-6.1163,-6.1163,-6.1163,-6.1163,-6.1163,-6.1163,-6.1163,-6.1569,-6.2381,-6.2381,-6.2178,-6.1789,-6.145,-6.0858,-6.0047,0.0,-5.9099,-5.8406,-5.8406,-5.8203,-5.7881,-5.7881,-5.7881,-5.7881,-5.7881,-5.7881,-5.7881,-5.7881,-5.7881,-5.7695,-5.6579,-5.5987,-5.5497,-5.4346,-5.3771,-5.3501,-5.3501,-5.3501,-5.3501,-5.3501,-5.3501,-5.3501,-5.3501,-5.3501,-5.3501,-5.3501,-5.3501,-5.3264,-5.2469,-5.1708,-5.098,-5.0219,-4.9492,-4.8892,-4.8545,-4.845,-4.8032,-4.6949,-4.6464,-4.5913,-4.5179,-4.4783,-4.461,-4.461,-4.4286,-4.3932,-4.3624,-4.2931,-4.2232,-4.1632,-4.1232,-4.0863,-4.0505,-4.0489,-4.0489,-4.0489,-4.0489,-4.0489,-4.0489,-4.0489,-4.0436,-4.406,-4.388,-4.4087,0.0,0.0,0.0,0.0,0.0,0.0,0.0,0.0,0.0,0.0,0.0,0.0,0.0,0.0,0.0,0.0,0.0,0.0,0.0,0.0,0.0,0.0,0.0,0.0,0.0,0.0,0.0,-6.0097,-6.0097,-6.0097,-6.0097,-6.0097,-6.0097,-6.0097,-6.0097,-6.0689,-6.1856,-6.1856,-6.1569,-6.1011,-6.0842,-6.0131,-5.8998,-5.8829,-5.8423,-5.7881,-5.7881,-5.7881,-5.7881,-5.7881,-5.7881,-5.7881,-5.7881,-5.7881,-5.7881,-5.7881,-5.778,-5.7425,-5.6139,-5.5563,-5.5209,-5.389,-5.3501,-5.3501,-5.3501,-5.3501,-5.3501,-5.3501,-5.3501,-5.3501,-5.3501,-5.3501,-5.3501,-5.3501,-5.3348,-5.2993,-5.2198,-5.1454,-5.071,-4.9965,-4.9373,-4.9001,-4.9001,-4.837,-4.7622,-4.688,-4.6163,-4.5421,-4.4685,-4.461,-4.4548,-4.4394,-4.3624,-4.3146,-4.3146,-4.2155,-4.1524,-4.1355,-4.0782,-4.0489,-4.0489,-4.0489,-4.0489,-4.0489,-4.0489,-4.0489,-4.0489,-4.0489,-4.042,-4.3373,-4.4293,-4.5276,-4.5432,0.0,0.0,0.0,0.0,0.0,0.0,0.0,0.0,0.0,0.0,0.0,0.0,0.0,0.0,0.0,0.0,0.0,0.0,0.0,0.0,0.0,0.0,0.0,0.0,0.0,0.0,-6.0097,-6.0097,-6.0097,-6.0097,-6.0097,-6.0097,-6.0097,-6.0097,-6.0165,-6.0266,-6.0266,-6.0233,-6.0165,-5.9488,-5.9116,-5.8981,-5.8271,-5.7932,-5.7881,-5.7881,-5.7881,-5.7881,-5.7881,-5.7881,-5.7881,-5.7881,-5.7881,-5.7881,-5.7881,-5.7442,-5.6748,-5.597,-5.5243,-5.4532,-5.3737,-5.3501,-5.3501,-5.3501,-5.3501,-5.3501,-5.3501,-5.3501,-5.3501,-5.3501,-5.3501,-5.3501,-5.3501,-5.2909,-5.2181,-5.1437,-5.0676,-4.9932,-4.9204,-4.9035,-4.9001,-4.9001,-4.837,-4.7622,-4.688,-4.6163,-4.5421,-4.4685,-4.461,-4.4363,-4.3732,-4.2479,-4.174,-4.174,-4.1648,-4.1294,-4.0597,-4.052,-4.0489,-4.0489,-4.0489,-4.0489,-4.0489,-4.0489,-4.0489,-4.0489,-4.0489,-4.0489,-4.2756,-4.3694,-4.4656,-4.4751,0.0,0.0,0.0,0.0,0.0,0.0,0.0,0.0,0.0,0.0,0.0,0.0,0.0,0.0,0.0,0.0,0.0,0.0,0.0,0.0,0.0,0.0,0.0,0.0,0.0,0.0,-5.8727,-5.8727,-5.8727,-5.8727,-5.8727,-5.8727,-5.8727,-5.8727,-5.8727,-5.8727,-5.9658,-5.986,-5.9421,-5.915,-5.8761,-5.8287,-5.8017,-5.7881,-5.7881,-5.7881,-5.7881,-5.7881,-5.7881,-5.7881,-5.7881,-5.7881,-5.7881,-5.7814,-5.7374,-5.7036,-5.6613,-5.5395,-5.482,-5.4448,-5.3721,-5.3501,-5.3501,-5.3501,-5.3501,-5.3501,-5.3501,-5.3501,-5.3501,-5.3501,-5.3501,-5.3365,-5.2858,-5.252,-5.1944,-5.0744,-5.0287,-4.9864,-4.9137,-4.9001,-4.9001,-4.9001,-4.7967,-4.7288,-4.7456,-4.6448,-4.5769,-4.5949,-4.5173,-4.4194,-4.3048,-4.2147,-4.1401,-4.0955,-4.094,-4.0782,-4.0505,-4.0489,-4.0489,-4.0489,-4.0489,-4.0489,-4.0489,-4.0489,-4.0489,-4.0489,-4.0489,-4.0489,-4.2912,-4.346,-4.4156,0.0,0.0,0.0,0.0,0.0,0.0,0.0,0.0,0.0,0.0,0.0,0.0,0.0,0.0,0.0,0.0,0.0,0.0,0.0,0.0,0.0,0.0,0.0,0.0,0.0,0.0,0.0,0.0,-5.7881,-5.7881,-5.7881,-5.7881,-5.7881,-5.7881,-5.7881,-5.7881,-5.7898,-5.8913,-5.915,-5.866,-5.866,-5.8372,-5.7881,-5.7881,-5.7881,-5.7881,-5.7881,-5.7881,-5.7881,-5.7881,-5.7881,-5.7881,-5.7881,-5.7746,-5.7476,-5.6985,-5.6494,-5.5936,-5.4921,-5.4431,-5.416,-5.3653,-5.3501,-5.3501,-5.3501,-5.3501,-5.3501,-5.3501,-5.3501,-5.3501,-5.3501,-5.3315,-5.2976,-5.2418,-5.1928,-5.1302,-5.0287,-4.9898,-4.9593,-4.9086,-4.9001,-4.9001,-4.9001,-4.7737,-4.7085,-4.7819,-4.6622,-4.5818,-4.6124,-4.4875,-4.3573,-4.2385,-4.1651,-4.1047,-4.052,-4.0489,-4.0489,-4.0489,-4.0489,-4.0489,-4.0489,-4.0489,-4.0489,-4.0489,-4.0489,-4.0489,-4.0489,-4.0489,-4.0489,-4.3988,-4.385,0.0,0.0,0.0,0.0,0.0,0.0,0.0,0.0,0.0,0.0,0.0,0.0,0.0,0.0,0.0,0.0,0.0,0.0,0.0,0.0,0.0,0.0,0.0,0.0,0.0,0.0,0.0,0.0,0.0,-5.7865,-5.7865,-5.7865,-5.7865,-5.7865,-5.7865,-5.7865,-5.7865,-5.7865,-5.7865,-5.7881,-5.7881,-5.7881,-5.7881,-5.7881,-5.7881,-5.7881,-5.7881,-5.7881,-5.7881,-5.7881,-5.7881,-5.7881,-5.7881,-5.7881,-5.7408,-5.6799,-5.6782,-5.5818,-5.4583,-5.4583,-5.4093,-5.3501,-5.3501,-5.3501,-5.3501,-5.3501,-5.3501,-5.3501,-5.3501,-5.3501,-5.3501,-5.3501,-5.2892,-5.23,-5.23,-5.1133,-5.0084,-5.0084,-4.9492,-4.9001,-4.9001,-4.9001,-4.9001,-4.9001,-4.7737,-4.7069,-4.7819,-4.6606,-4.5448,-4.4788,-4.3472,-4.2341,-4.1657,-4.094,-4.0489,-4.0489,-4.0489,-4.0489,-4.0489,-4.0489,-4.0489,-4.0489,-4.0489,-4.0489,-4.0489,-4.0489,-4.0489,-4.0489,-4.0489,-4.0489,-4.2317,0.0,0.0,0.0,0.0,0.0,0.0,0.0,0.0,0.0,0.0,0.0,0.0,0.0,0.0,0.0,0.0,0.0,0.0,0.0,0.0,0.0,0.0,0.0,0.0,0.0,0.0,0.0,0.0,0.0,0.0,-5.6359,-5.6359,-5.6359,-5.6359,-5.6359,-5.6359,-5.6359,-5.6359,-5.6359,-5.6359,-5.69,-5.7881,-5.7881,-5.7881,-5.7881,-5.7881,-5.7881,-5.7881,-5.7881,-5.7881,-5.7881,-5.7881,-5.7577,-5.712,-5.712,-5.6664,-5.5953,-5.5429,-5.4955,-5.4499,-5.3991,-5.3687,-5.3501,-5.3501,-5.3501,-5.3501,-5.3501,-5.3501,-5.3501,-5.3501,-5.3501,-5.3501,-5.3501,-5.2892,-5.2164,-5.1657,-5.0777,-4.9949,-4.9424,-4.9154,-4.9001,-4.9001,-4.9001,-4.9001,-4.9001,-4.8177,-4.7474,-4.7173,-4.7188,-4.658,-4.4899,-4.3881,-4.2877,-4.1637,-4.0892,-4.0489,-4.0489,-4.0489,-4.0489,-4.0489,-4.0489,-4.0489,-4.0489,-4.0489,-4.0489,-4.0489,-4.0489,-4.0489,-4.0489,-4.0489,-4.0489,0.0,0.0,0.0,0.0,0.0,0.0,0.0,0.0,0.0,0.0,0.0,0.0,0.0,0.0,0.0,0.0,0.0,0.0,0.0,0.0,0.0,0.0,0.0,0.0,0.0,0.0,0.0,0.0,0.0,0.0,0.0,-5.5681,-5.5681,-5.5681,-5.5681,-5.5681,-5.5681,-5.5681,-5.5681,-5.5681,-5.5681,-5.6173,-5.7019,-5.7019,-5.7019,-5.7019,-5.7019,-5.7019,-5.7019,-5.7019,-5.7019,-5.7019,-5.7019,-5.6748,-5.6376,-5.6376,-5.5902,-5.5209,-5.4752,-5.4397,-5.4093,-5.3653,-5.3501,-5.3501,-5.3501,-5.3501,-5.3501,-5.3501,-5.3501,-5.3501,-5.3501,-5.3264,-5.3027,-5.3027,-5.2435,-5.1674,-5.093,-5.0185,-4.9526,-4.9086,-4.9001,-4.9001,-4.9001,-4.9001,-4.9001,-4.9001,-4.8373,-4.7626,-4.6874,-4.6938,-4.6341,-4.4509,-4.3647,-4.2655,-4.1207,-4.0749,-4.0489,-4.0489,-4.0489,-4.0489,-4.0489,-4.0489,-4.0489,-4.0489,-4.0489,-4.0489,-4.0489,-4.0489,-4.0489,-4.0489,-4.0489,-4.0489,0.0,0.0,0.0,0.0,0.0,0.0,0.0,0.0,0.0,0.0,0.0,0.0,0.0,0.0,0.0,0.0,0.0,0.0,0.0,0.0,0.0,0.0,0.0,0.0,0.0,0.0,0.0,0.0,0.0,0.0,0.0,-5.5513,-5.5513,-5.5513,-5.5513,-5.5513,-5.5513,-5.5513,-5.5513,-5.5513,-5.5513,-5.5513,-5.5513,-5.5649,-5.5681,-5.5681,-5.5681,-5.5681,-5.5681,-5.5681,-5.5681,-5.5681,-5.5681,-5.5683,-5.5615,-5.5615,-5.5141,-5.4499,-5.4499,-5.4059,-5.3501,-5.3501,-5.3501,-5.3501,-5.3501,-5.3501,-5.3501,-5.3501,-5.3501,-5.3484,-5.3416,-5.2858,-5.2266,-5.2131,-5.1589,-5.093,-5.0236,-4.9509,-4.9001,-4.9001,-4.9001,-4.9001,-4.9001,-4.9001,-4.8984,-4.8917,-4.8342,-4.7591,-4.6817,-4.6066,-4.5122,-4.381,-4.2925,-4.1933,-4.0681,-4.0524,-4.0489,-4.0489,-4.0489,-4.0489,-4.0489,-4.0489,-4.0489,-4.0489,-4.0489,-4.0489,-4.0489,-4.0489,-4.0489,-4.0489,-4.0489,-4.0489,0.0,0.0,0.0,0.0,0.0,0.0,0.0,0.0,0.0,0.0,0.0,0.0,0.0,0.0,0.0,0.0,0.0,0.0,0.0,0.0,0.0,0.0,0.0,0.0,0.0,0.0,0.0,0.0,0.0,0.0,-5.3974,-5.3974,-5.3974,-5.3974,-5.3974,-5.3974,-5.3974,-5.3974,-5.3974,-5.3974,-5.3974,-5.3974,-5.4025,-5.5192,-5.5681,-5.5681,-5.5681,-5.5681,-5.5681,-5.5681,-5.5681,-5.5681,-5.5681,-5.5361,-5.4837,-5.4837,-5.4363,-5.3737,-5.3737,-5.3636,-5.3501,-5.3501,-5.3501,-5.3501,-5.3501,-5.3501,-5.3501,-5.3501,-5.3501,-5.3365,-5.2723,-5.2435,-5.2012,-5.0845,-5.0439,-5.0287,-5.0118,-4.9509,-4.9001,-4.9001,-4.9001,-4.9001,-4.9001,-4.9001,-4.8798,-4.821,-4.799,-4.7436,-4.6106,-4.5327,-4.4577,-4.363,-4.246,-4.1608,-4.1309,-4.0802,-4.0489,-4.0489,-4.0489,-4.0489,-4.0489,-4.0489,-4.0489,-4.0489,-4.0489,-4.0489,-4.0489,-4.0489,-4.0489,-4.0489,-4.0489,-4.0489,0.0,0.0,0.0,0.0,0.0,0.0,0.0,0.0,0.0,0.0,0.0,0.0,0.0,0.0,0.0,0.0,0.0,0.0,0.0,0.0,0.0,0.0,0.0,0.0,0.0,0.0,0.0,0.0,0.0,-5.3501,-5.3501,-5.3501,-5.3501,-5.3501,-5.3501,-5.3501,-5.3501,-5.3501,-5.3501,-5.3501,-5.3501,-5.3501,-5.3534,-5.4313,-5.4668,-5.4668,-5.4668,-5.4668,-5.4668,-5.4668,-5.4668,-5.4668,-5.4668,-5.4414,-5.4059,-5.4059,-5.3822,-5.3501,-5.3501,-5.3501,-5.3501,-5.3501,-5.3501,-5.3501,-5.3501,-5.3501,-5.3501,-5.3501,-5.323,-5.2841,-5.2418,-5.1775,-5.1048,-5.027,-5.0084,-4.9999,-4.9644,-4.9272,-4.9001,-4.9001,-4.9001,-4.9001,-4.9001,-4.8714,-4.8359,-4.7939,-4.731,-4.6583,-4.5805,-4.5076,-4.4365,-4.3575,-4.2583,-4.1836,-4.1525,-4.0904,-4.0489,-4.0489,-4.0489,-4.0489,-4.0489,-4.0489,-4.0489,-4.0489,-4.0489,-4.0489,-4.0489,-4.0489,-4.0489,-4.0489,-4.0489,-4.0489,0.0,0.0,0.0,0.0,0.0,0.0,0.0,0.0,0.0,0.0,0.0,0.0,0.0,0.0,0.0,0.0,0.0,0.0,0.0,0.0,0.0,0.0,0.0,0.0,0.0,0.0,0.0,0.0,0.0,-5.3501,-5.3501,-5.3501,-5.3501,-5.3501,-5.3501,-5.3501,-5.3501,-5.3501,-5.3501,-5.3501,-5.3501,-5.3501,-5.3501,-5.3501,-5.3501,-5.3501,-5.3501,-5.3501,-5.3501,-5.3501,-5.3501,-5.3501,-5.3501,-5.3501,-5.3501,-5.3501,-5.3501,-5.3501,-5.3501,-5.3501,-5.3501,-5.3501,-5.3501,-5.3501,-5.3501,-5.3399,-5.3298,-5.3298,-5.2723,-5.208,-5.1944,-5.0997,-5.005,-4.9932,-4.9898,-4.9729,-4.9137,-4.9001,-4.9001,-4.9001,-4.9001,-4.8968,-4.8832,-4.8308,-4.7804,-4.7551,-4.6498,-4.5652,-4.5534,-4.4857,-4.4179,-4.3571,-4.28,-4.2109,-4.1558,-4.0904,-4.0489,-4.0489,-4.0489,-4.0489,-4.0489,-4.0489,-4.0489,-4.0489,-4.0489,-4.0489,-4.0489,-4.0489,-4.0489,-4.0489,-4.0489,-4.0489,0.0,0.0,0.0,0.0,0.0,0.0,0.0,0.0,0.0,0.0,0.0,0.0,0.0,0.0,0.0,0.0,0.0,0.0,0.0,0.0,0.0,0.0,0.0,0.0,0.0,0.0,0.0,0.0,-5.3501,-5.3501,-5.3501,-5.3501,-5.3501,-5.3501,-5.3501,-5.3501,-5.3501,-5.3501,-5.3501,-5.3501,-5.3501,-5.3501,-5.3501,-5.3501,-5.3501,-5.3501,-5.3501,-5.3501,-5.3501,-5.3501,-5.3501,-5.3501,-5.3501,-5.3501,-5.3501,-5.3501,-5.3501,-5.3501,-5.3501,-5.3501,-5.3501,-5.3501,-5.3501,-5.3501,-5.3501,-5.301,-5.2469,-5.2469,-5.1928,-5.1217,-5.0557,-5.0236,-4.9932,-4.9306,-4.9154,-4.912,-4.9018,-4.9001,-4.9001,-4.9001,-4.9001,-4.8798,-4.8173,-4.7956,-4.7479,-4.6194,-4.5838,-4.5466,-4.4852,-4.4097,-4.3601,-4.3512,-4.2395,-4.1608,-4.1525,-4.0904,-4.0489,-4.0489,-4.0489,-4.0489,-4.0489,-4.0489,-4.0489,-4.0489,-4.0489,-4.0489,-4.0489,-4.0489,-4.0489,-4.0489,-4.0489,-4.0489,0.0,0.0,0.0,0.0,0.0,0.0,0.0,0.0,0.0,0.0,0.0,0.0,0.0,0.0,0.0,0.0,0.0,0.0,0.0,0.0,0.0,0.0,0.0,0.0,0.0,0.0,0.0,0.0,-5.2215,-5.2215,-5.2215,-5.2215,-5.2215,-5.2215,-5.2215,-5.2215,-5.2215,-5.2621,-5.3061,-5.3501,-5.3501,-5.3501,-5.3501,-5.3501,-5.3501,-5.3501,-5.3501,-5.3501,-5.3501,-5.3501,-5.3501,-5.3501,-5.3501,-5.3501,-5.3501,-5.3501,-5.3501,-5.3501,-5.3501,-5.3501,-5.3501,-5.3501,-5.3196,-5.2841,-5.2841,-5.23,-5.1691,-5.1691,-5.115,-5.0507,-5.0168,-4.9779,-4.9407,-4.9086,-4.9001,-4.9001,-4.9001,-4.9001,-4.9001,-4.9001,-4.868,-4.8261,-4.7939,-4.7196,-4.6464,-4.5805,-4.5348,-4.4987,-4.4649,-4.3943,-4.3676,-4.4076,-4.2878,-4.2205,-4.2583,-4.2013,-4.1608,-4.1608,-4.1276,-4.1057,-4.1057,-4.0715,-4.0489,-4.0489,-4.0489,-4.0489,-4.0489,-4.0489,-4.0489,-4.0489,-4.0489,-4.0489,0.0,0.0,0.0,0.0,0.0,0.0,0.0,0.0,0.0,0.0,0.0,0.0,0.0,0.0,0.0,0.0,0.0,0.0,0.0,0.0,0.0,0.0,0.0,0.0,0.0,0.0,0.0,0.0,-5.1282,-5.1249,-5.1185,-5.1185,-5.1185,-5.1185,-5.1185,-5.1185,-5.1185,-5.1758,-5.2334,-5.2926,-5.2926,-5.2926,-5.2926,-5.2926,-5.2926,-5.2942,-5.3331,-5.3501,-5.3501,-5.3501,-5.3501,-5.3501,-5.3501,-5.3501,-5.3501,-5.3501,-5.3501,-5.3467,-5.3264,-5.3196,-5.3162,-5.2993,-5.252,-5.2029,-5.2029,-5.1522,-5.093,-5.093,-5.0388,-4.9813,-4.9813,-4.9407,-4.9001,-4.9001,-4.9001,-4.9001,-4.9001,-4.9001,-4.8951,-4.8765,-4.8261,-4.777,-4.7398,-4.6447,-4.5652,-4.5449,-4.4942,-4.4615,-4.4615,-4.3943,-4.3706,-4.4265,-4.3213,-4.2707,-4.3196,-4.28,-4.2426,-4.2269,-4.1771,-4.1426,-4.1243,-4.0783,-4.0489,-4.0489,-4.0489,-4.0489,-4.0489,-4.0489,-4.0489,-4.0489,-4.0489,-4.0489,0.0,0.0,0.0,0.0,0.0,0.0,0.0,0.0,0.0,0.0,0.0,0.0,0.0,0.0,0.0,0.0,0.0,0.0,0.0,0.0,0.0,0.0,0.0,0.0,0.0,0.0,0.0,0.0,-5.1473,-5.141,-5.1217,-5.1185,-5.1185,-5.1185,-5.1185,-5.1185,-5.1185,-5.1251,-5.1302,-5.1303,-5.1303,-5.1303,-5.1303,-5.1303,-5.1303,-5.142,-5.2875,-5.3501,-5.3501,-5.3501,-5.3501,-5.3501,-5.3501,-5.3501,-5.3501,-5.3501,-5.3501,-5.3399,-5.2638,-5.2367,-5.2249,-5.1555,-5.1269,-5.1268,-5.1268,-5.0744,-5.0152,-5.0152,-4.9627,-4.9069,-4.9069,-4.9035,-4.9001,-4.9001,-4.9001,-4.9001,-4.9001,-4.9001,-4.8798,-4.8075,-4.7922,-4.7449,-4.6075,-4.5754,-4.5466,-4.4767,-4.4632,-4.4615,-4.4615,-4.3943,-4.3512,-4.3542,-4.2923,-4.252,-4.2552,-4.252,-4.2237,-4.1575,-4.1525,-4.1209,-4.0593,-4.0524,-4.0489,-4.0489,-4.0489,-4.0489,-4.0489,-4.0489,-4.0489,-4.0489,-4.0489,-4.0489,0.0,0.0,0.0,0.0,0.0,0.0,0.0,0.0,0.0,0.0,0.0,0.0,0.0,0.0,0.0,0.0,0.0,0.0,0.0,0.0,0.0,0.0,0.0,0.0,0.0,0.0,0.0,0.0,0.0,-5.0199,-5.009,-5.0107,-5.0107,-5.0107,-5.0107,-5.0345,-5.0822,-5.0602,-5.0807,-5.1378,-5.1249,-5.1185,-5.1185,-5.1185,-5.1185,-5.1219,-5.1792,-5.2029,-5.2029,-5.2029,-5.2029,-5.2029,-5.2029,-5.2029,-5.2029,-5.2029,-5.2029,-5.1995,-5.1708,-5.1606,-5.1555,-5.1269,-5.0896,-5.049,-5.049,-4.9982,-4.939,-4.939,-4.9204,-4.9001,-4.9001,-4.9001,-4.9001,-4.9001,-4.9001,-4.8883,-4.8409,-4.8308,-4.824,-4.7939,-4.7158,-4.6329,-4.5788,-4.5314,-4.4919,-4.4649,-4.4615,-4.4615,-4.4615,-4.3943,-4.3676,-4.415,-4.3558,-4.3136,-4.3136,-4.3136,-4.2862,-4.2173,-4.1739,-4.1393,-4.1142,-4.0715,-4.0489,-4.0489,-4.0489,-4.0489,-4.0489,-4.0489,-4.0489,-4.0489,-4.0489,-4.0489,0.0,0.0,0.0,0.0,0.0,0.0,0.0,0.0,0.0,0.0,0.0,0.0,0.0,0.0,0.0,0.0,0.0,0.0,0.0,0.0,0.0,0.0,0.0,0.0,0.0,0.0,0.0,0.0,0.0,0.0,-4.9518,-4.9518,-4.9518,-4.9518,-4.9518,-4.9727,-5.0239,-5.0008,-5.017,-5.0725,-5.06,-5.0505,-5.0473,-5.0473,-5.0473,-5.0473,-5.0473,-5.076,-5.1185,-5.1185,-5.1185,-5.1185,-5.1185,-5.1185,-5.1185,-5.1185,-5.1185,-5.1151,-5.093,-5.0845,-5.0794,-5.0557,-5.0135,-4.9729,-4.9729,-4.939,-4.9001,-4.9001,-4.9001,-4.9001,-4.9001,-4.9001,-4.8951,-4.8697,-4.8646,-4.8443,-4.7699,-4.775,-4.7736,-4.7246,-4.638,-4.5618,-4.5365,-4.4908,-4.4615,-4.4615,-4.4615,-4.4615,-4.4615,-4.3943,-4.3764,-4.4514,-4.3943,-4.3512,-4.3512,-4.3512,-4.3106,-4.2205,-4.1739,-4.1393,-4.1176,-4.0749,-4.0489,-4.0489,-4.0489,-4.0489,-4.0489,-4.0489,-4.0489,-4.0489,-4.0489,-4.0489,0.0,0.0,0.0,0.0,0.0,0.0,0.0,0.0,0.0,0.0,0.0,0.0,0.0,0.0,0.0,0.0,0.0,0.0,0.0,0.0,0.0,0.0,0.0,0.0,0.0,0.0,0.0,0.0,-4.9708,-4.9649,-4.9518,-4.9518,-4.9518,-4.9518,-4.9518,-4.9518,-4.9518,-4.9518,-4.9381,-4.9229,-4.9199,-4.9138,-4.9001,-4.9001,-4.9001,-4.9001,-4.9001,-4.9813,-5.115,-5.115,-5.115,-5.115,-5.115,-5.115,-5.115,-5.115,-5.115,-5.1016,-5.0321,-5.005,-4.9949,-4.9238,-4.9001,-4.9001,-4.9001,-4.9001,-4.9001,-4.9001,-4.9001,-4.9001,-4.8984,-4.8951,-4.8748,-4.8054,-4.7855,-4.7682,-4.6921,-4.7344,-4.7398,-4.5991,-4.5686,-4.5432,-4.4733,-4.4615,-4.4615,-4.4615,-4.4615,-4.4615,-4.4615,-4.3972,-4.381,-4.4542,-4.3943,-4.3482,-4.3482,-4.3436,-4.2892,-4.1558,-4.1492,-4.1176,-4.0524,-4.0489,-4.0489,-4.0489,-4.0489,-4.0489,-4.0489,-4.0489,-4.0489,-4.0489,-4.0489,-4.0489,-4.2009,0.0,0.0,0.0,0.0,0.0,0.0,0.0,0.0,0.0,0.0,0.0,0.0,0.0,0.0,0.0,0.0,0.0,0.0,0.0,0.0,0.0,0.0,0.0,0.0,0.0,0.0,0.0,-4.9935,-4.9906,-4.9877,-4.9877,-4.9877,-4.9877,-4.9725,-4.9725,-4.9877,-4.9607,-4.95,-4.956,-4.9471,-4.9398,-4.9367,-4.9367,-4.9367,-4.9367,-4.9367,-4.9498,-4.9766,-4.9641,-4.961,-4.961,-4.961,-4.961,-4.961,-4.961,-4.961,-4.9593,-4.9373,-4.9306,-4.9272,-4.9069,-4.9001,-4.9001,-4.9001,-4.9001,-4.9001,-4.9001,-4.9001,-4.8883,-4.8359,-4.7817,-4.7361,-4.7141,-4.7107,-4.6904,-4.616,-4.6177,-4.6194,-4.5788,-4.5263,-4.4852,-4.4649,-4.4615,-4.4615,-4.4615,-4.4615,-4.4615,-4.4615,-4.4412,-4.4367,-4.457,-4.3943,-4.3287,-4.2831,-4.2332,-4.1673,-4.0836,-4.0904,-4.0919,-4.073,-4.073,-4.073,-4.073,-4.0558,-4.0489,-4.0489,-4.0489,-4.0489,-4.0489,-4.0489,-4.0489,0.0,0.0,0.0,0.0,0.0,0.0,-4.2859,-4.3757,0.0,0.0,0.0,0.0,0.0,0.0,0.0,0.0,0.0,0.0,0.0,0.0,0.0,0.0,0.0,0.0,0.0,-4.9045,-4.9045,-4.9045,-4.9045,-4.9045,-4.9045,-4.9045,-4.9045,-4.9045,-4.8942,-4.9051,-4.951,-4.932,-4.937,-4.9708,-4.9619,-4.953,-4.9518,-4.9518,-4.9518,-4.9518,-4.9518,-4.9411,-4.932,-4.9138,-4.9063,-4.9001,-4.9001,-4.9001,-4.9001,-4.9001,-4.9001,-4.9001,-4.9001,-4.9001,-4.9001,-4.9063,-4.9077,-4.9094,-4.9185,-4.8934,-4.8619,-4.8619,-4.8369,-4.7986,-4.7564,-4.7124,-4.6718,-4.6413,-4.6387,-4.6213,-4.5467,-4.5315,-4.5315,-4.5258,-4.4874,-4.4615,-4.4615,-4.4615,-4.4615,-4.4615,-4.4615,-4.4626,-4.4682,-4.4682,-4.4709,-4.4748,-4.439,-4.3718,-4.2707,-4.2332,-4.1706,-4.0696,-4.0814,-4.0916,-4.0916,-4.0916,-4.0916,-4.0916,-4.0814,-4.0746,-4.0746,-4.0677,-4.0677,-4.0746,-4.0746,-4.0712,0.0,0.0,0.0,0.0,0.0,0.0,-4.3021,-4.3404,-4.3767,0.0,0.0,0.0,0.0,0.0,0.0,0.0,0.0,0.0,0.0,0.0,0.0,0.0,0.0,0.0,-4.7689,-4.7689,-4.7689,-4.7689,-4.7689,-4.7689,-4.7689,-4.7689,-4.7689,-4.7689,-4.7689,-4.8,-4.8654,-4.8672,-4.8942,-4.9497,-4.9497,-4.9409,-4.9291,-4.9291,-4.9291,-4.9291,-4.9291,-4.9291,-4.9261,-4.9065,-4.9033,-4.9032,-4.9001,-4.9001,-4.9032,-4.9032,-4.9032,-4.9063,-4.9063,-4.9063,-4.9046,-4.9114,-4.911,-4.9124,-4.9219,-4.8664,-4.7971,-4.7942,-4.7344,-4.6667,-4.6667,-4.6629,-4.6409,-4.5766,-4.5711,-4.562,-4.4956,-4.4831,-4.4793,-4.4682,-4.4626,-4.4615,-4.4615,-4.4598,-4.4626,-4.4626,-4.4626,-4.4682,-4.4803,-4.4831,-4.4886,-4.4978,-4.4852,-4.4243,-4.2923,-4.2845,-4.2284,-4.0919,-4.1086,-4.1203,-4.1135,-4.1102,-4.1102,-4.1102,-4.1117,-4.1117,-4.1102,-4.0916,-4.0916,-4.1117,-4.1117,-4.1,0.0,0.0,0.0,0.0,0.0,0.0,-4.1928,-4.2696,-4.3315,0.0,0.0,0.0,0.0,0.0,0.0,0.0,0.0,0.0,0.0,0.0,0.0,0.0,0.0,0.0,-4.7689,-4.7689,-4.7689,-4.7689,-4.7689,-4.7689,-4.7689,-4.7689,-4.7689,-4.7689,-4.7689,-4.7758,-4.7896,-4.7896,-4.7965,-4.8092,-4.8092,-4.8064,-4.8036,-4.8036,-4.8036,-4.8036,-4.8036,-4.798,-4.7883,-4.7855,-4.8353,-4.9138,-4.9032,-4.9063,-4.9168,-4.9168,-4.926,-4.9398,-4.9398,-4.9398,-4.9295,-4.8728,-4.857,-4.845,-4.7819,-4.7442,-4.7194,-4.7077,-4.651,-4.5923,-4.5923,-4.5535,-4.5156,-4.5003,-4.508,-4.5138,-4.4985,-4.4951,-4.4951,-4.494,-4.4765,-4.4615,-4.4615,-4.4682,-4.4748,-4.4748,-4.4858,-4.494,-4.4951,-4.4951,-4.4951,-4.5005,-4.4037,-4.327,-4.2998,-4.2488,-4.1868,-4.1102,-4.1687,-4.1819,-4.129,-4.1272,-4.1272,-4.1272,-4.1153,-4.1153,-4.1272,-4.112,-4.1068,-4.1117,-4.1117,-4.1,0.0,0.0,0.0,-4.1973,0.0,0.0,0.0,-4.2626,-4.3054,0.0,0.0,0.0,0.0,0.0,0.0,0.0,0.0,0.0,0.0,0.0,0.0,0.0,0.0,0.0,-4.6535,-4.6535,-4.6535,-4.6535,-4.6535,-4.6535,-4.6535,-4.6535,-4.6535,-4.6535,-4.6535,-4.6741,-4.7165,-4.7165,-4.7355,-4.7689,-4.7689,-4.7689,-4.7689,-4.7689,-4.7689,-4.7689,-4.7689,-4.7662,-4.7578,-4.7522,-4.7826,-4.8348,-4.8154,-4.8137,-4.8196,-4.8196,-4.8272,-4.8343,-4.8343,-4.8343,-4.8292,-4.8037,-4.7946,-4.7877,-4.7551,-4.7073,-4.6538,-4.5971,-4.5569,-4.5354,-4.5354,-4.512,-4.4913,-4.4913,-4.5005,-4.5113,-4.5113,-4.5113,-4.5113,-4.5113,-4.494,-4.4803,-4.4803,-4.4858,-4.4913,-4.4913,-4.4968,-4.5032,-4.5086,-4.5113,-4.514,-4.5194,-4.4608,-4.3905,-4.3213,-4.2907,-4.2316,-4.1272,-4.1671,-4.1786,-4.1456,-4.1456,-4.1456,-4.1456,-4.1372,-4.1372,-4.1456,-4.1372,-4.1355,-4.1355,-4.1355,-4.1239,0.0,0.0,0.0,0.0,0.0,-4.2147,0.0,0.0,0.0,0.0,0.0,0.0,0.0,0.0,0.0,0.0,0.0,0.0,0.0,0.0,0.0,0.0,0.0,0.0,0.0,-4.5243,-4.5268,-4.538,-4.5285,-4.5268,-4.538,-4.5397,-4.5397,-4.5397,-4.5397,-4.5707,-4.6372,-4.6372,-4.6655,-4.7241,-4.7241,-4.7241,-4.7241,-4.7241,-4.7241,-4.7241,-4.7241,-4.7241,-4.7258,-4.7148,-4.7093,-4.7082,-4.717,-4.7216,-4.7261,-4.7261,-4.7273,-4.7318,-4.7318,-4.7318,-4.7301,-4.7322,-4.7213,-4.712,-4.7186,-4.6694,-4.5922,-4.5067,-4.4913,-4.5005,-4.5005,-4.5005,-4.5032,-4.5032,-4.514,-4.5247,-4.5247,-4.5247,-4.5247,-4.5247,-4.514,-4.5059,-4.5005,-4.5005,-4.5032,-4.5032,-4.5059,-4.5113,-4.522,-4.5247,-4.5274,-4.5397,-4.5194,-4.4569,-4.3456,-4.335,-4.2754,-4.144,-4.1638,-4.1737,-4.1621,-4.1588,-4.1588,-4.1588,-4.1588,-4.1588,-4.1588,-4.1462,-4.1462,-4.1588,-4.1462,-4.13,0.0,0.0,0.0,0.0,-4.2082,0.0,0.0,0.0,-4.2121,-4.221,0.0,0.0,0.0,0.0,0.0,0.0,0.0,0.0,0.0,0.0,0.0,0.0,0.0,0.0,0.0,-4.462,-4.482,-4.5345,-4.4906,-4.4837,-4.5363,-4.5397,-4.5397,-4.5397,-4.5397,-4.5432,-4.5535,-4.5535,-4.5569,-4.5656,-4.5656,-4.5656,-4.5656,-4.5656,-4.5656,-4.5656,-4.5656,-4.5656,-4.5656,-4.5629,-4.5629,-4.574,-4.6788,-4.7318,-4.7466,-4.7466,-4.755,-4.7644,-4.7644,-4.7644,-4.7541,-4.6931,-4.6224,-4.5629,-4.5505,-4.5409,-4.527,-4.5022,-4.4978,-4.5005,-4.5005,-4.5086,-4.5194,-4.5194,-4.5274,-4.5371,-4.5371,-4.5371,-4.5371,-4.5371,-4.5371,-4.5291,-4.5032,-4.5113,-4.5194,-4.5194,-4.5274,-4.5371,-4.5371,-4.5371,-4.5371,-4.5397,-4.4384,-4.366,-4.3482,-4.2986,-4.2396,-4.1621,-4.2158,-4.2206,-4.1621,-4.1588,-4.1588,-4.1588,-4.1588,-4.1588,-4.1588,-4.1004,-4.102,-4.1573,-4.0988,-4.0607,0.0,0.0,0.0,0.0,0.0,0.0,-4.2311,0.0,-4.2076,0.0,0.0,0.0,0.0,0.0,0.0,0.0,-4.2276,0.0,0.0,0.0,0.0,0.0,0.0,0.0,0.0,0.0,0.0,0.0,-4.5156,-4.5148,-4.538,-4.5397,-4.5397,-4.5397,-4.5397,-4.5397,-4.5397,-4.5397,-4.5397,-4.5397,-4.5397,-4.5397,-4.5397,-4.5397,-4.5397,-4.5397,-4.5397,-4.5397,-4.5397,-4.5397,-4.5397,-4.5466,-4.5952,-4.621,-4.6281,-4.6281,-4.6308,-4.6362,-4.6362,-4.6362,-4.631,-4.6,-4.5673,-4.5371,-4.5247,-4.5247,-4.5274,-4.5167,-4.5167,-4.522,-4.522,-4.5274,-4.5318,-4.5318,-4.5371,-4.5397,-4.5397,-4.5397,-4.5397,-4.5397,-4.5397,-4.5371,-4.5264,-4.5291,-4.5318,-4.5318,-4.5353,-4.5397,-4.5397,-4.5397,-4.5397,-4.5397,-4.4917,-4.4468,-4.41,-4.3839,-4.341,-4.2724,-4.2632,-4.2301,-4.1621,-4.1588,-4.1588,-4.1588,-4.1588,-4.1399,-4.102,-4.0735,-4.0514,-4.0372,-4.0087,-3.9929,-4.2917,0.0,0.0,0.0,0.0,0.0,0.0,0.0,0.0,0.0,0.0,0.0,0.0,0.0,0.0,0.0,0.0,0.0,0.0,0.0,0.0,0.0,0.0,0.0,0.0,0.0,0.0,-4.4811,-4.4639,-4.4691,-4.5096,-4.5113,-4.5173,-4.5397,-4.5397,-4.5397,-4.5397,-4.5397,-4.5397,-4.5397,-4.5397,-4.5397,-4.5397,-4.5397,-4.5397,-4.5397,-4.5397,-4.5397,-4.5397,-4.5397,-4.5397,-4.5397,-4.5397,-4.5397,-4.5397,-4.5397,-4.5397,-4.5397,-4.5397,-4.5397,-4.5397,-4.5397,-4.5397,-4.5371,-4.5274,-4.53,-4.5371,-4.5274,-4.5327,-4.5397,-4.5397,-4.5397,-4.5397,-4.5397,-4.5397,-4.5397,-4.5397,-4.5397,-4.5397,-4.5397,-4.5397,-4.5397,-4.5397,-4.5397,-4.5397,-4.5397,-4.5397,-4.5397,-4.5397,-4.5397,-4.5397,-4.5397,-4.5247,-4.4978,-4.453,-4.4174,-4.3676,-4.3031,-4.2569,-4.2126,-4.1621,-4.1588,-4.1494,-4.132,-4.132,-4.0988,-4.0293,-4.0119,-3.9756,-3.9234,-3.9234,-3.9234,0.0,0.0,0.0,-4.2703,0.0,0.0,0.0,0.0,-4.2287,0.0,0.0,0.0,0.0,0.0,0.0,0.0,0.0,0.0,0.0,0.0,0.0,0.0,0.0,0.0,0.0,0.0,0.0,-4.3321,-4.2715,-4.2891,-4.4259,-4.4345,-4.4647,-4.538,-4.5397,-4.5397,-4.5397,-4.5397,-4.5397,-4.5397,-4.5397,-4.5397,-4.5397,-4.5397,-4.5397,-4.5397,-4.5397,-4.5397,-4.5397,-4.5397,-4.5397,-4.5397,-4.5397,-4.5397,-4.5397,-4.5397,-4.5397,-4.5397,-4.5397,-4.5397,-4.5397,-4.5397,-4.5397,-4.5397,-4.5397,-4.5397,-4.5397,-4.5397,-4.5397,-4.5397,-4.5397,-4.5397,-4.5397,-4.5397,-4.5397,-4.5397,-4.5397,-4.5397,-4.5397,-4.5397,-4.5397,-4.5397,-4.5397,-4.5397,-4.5397,-4.5397,-4.5397,-4.5397,-4.5397,-4.5397,-4.5397,-4.5397,-4.4879,-4.453,-4.4502,-4.3366,-4.2365,-4.1704,-4.1654,-4.1621,-4.1588,-4.1588,-4.1288,-4.064,-4.0625,-4.0277,-3.9534,-3.8886,-3.857,-3.8539,-3.8539,-3.8539,0.0,0.0,-4.5424,-4.388,0.0,0.0,0.0,0.0,0.0,0.0,0.0,0.0,0.0,0.0,0.0,0.0,0.0,0.0,0.0,0.0,0.0,0.0,0.0,0.0,0.0,0.0,0.0,-4.3433,-4.3079,-4.3084,-4.3552,-4.3569,-4.369,-4.3949,-4.4406,-4.4665,-4.4665,-4.5165,-4.5397,-4.5397,-4.5397,-4.5397,-4.5397,-4.5397,-4.5397,-4.5397,-4.5397,-4.5397,-4.5397,-4.5397,-4.5397,-4.5397,-4.5397,-4.5397,-4.5397,-4.5397,-4.5397,-4.5397,-4.5397,-4.5397,-4.5397,-4.5397,-4.5397,-4.5397,-4.5397,-4.5397,-4.5397,-4.5397,-4.5397,-4.5397,-4.5397,-4.5397,-4.5397,-4.5397,-4.5397,-4.5397,-4.5397,-4.5397,-4.5397,-4.5397,-4.5397,-4.5397,-4.5397,-4.5397,-4.5397,-4.5397,-4.5397,-4.5397,-4.5397,-4.5397,-4.5397,-4.5397,-4.522,-4.5113,-4.5113,-4.4344,-4.3389,-4.2269,-4.1764,-4.115,-4.0261,-4.0214,-4.0103,-3.9882,-3.9866,-3.9534,-3.8855,-3.8618,-3.827,-3.7828,-3.7828,-3.7828,-4.5761,-4.623,0.0,-4.4914,-4.4988,0.0,-4.3404,0.0,-4.2927,0.0,0.0,0.0,0.0,0.0,0.0,0.0,0.0,0.0,0.0,-4.2142,0.0,0.0,0.0,0.0,0.0,0.0,-4.2824,-4.2652,-4.2556,-4.258,0.0,-4.2775,-4.2896,-4.3189,-4.3655,-4.3914,-4.3914,-4.463,-4.501,-4.501,-4.5259,-4.5397,-4.5397,-4.5397,-4.5397,-4.5397,-4.5397,-4.5397,-4.5397,-4.5397,-4.5397,-4.5397,-4.5397,-4.5397,-4.5397,-4.5397,-4.5397,-4.5397,-4.5397,-4.5397,-4.5397,-4.5397,-4.5397,-4.5397,-4.5397,-4.5397,-4.5397,-4.5397,-4.5397,-4.5397,-4.5397,-4.5397,-4.5397,-4.5397,-4.5397,-4.5397,-4.5397,-4.5397,-4.5397,-4.5397,-4.5397,-4.5397,-4.5397,-4.5397,-4.5397,-4.5397,-4.5397,-4.5397,-4.5397,-4.5397,-4.5397,-4.5397,-4.5397,-4.5117,-4.4433,-4.3996,-4.3122,-4.1534,-4.1037,-4.0415,-3.955,-3.9503,-3.9392,-3.9155,-3.9139,-3.8823,-3.8144,-3.8144,-3.7923,-3.751,-3.751,-3.751]},{"header":{"parameterUnit":"m.s-1","parameterCategory":1,"la1":30.6,"la2":29.2853,"lo1":-89.7004,"lo2":-87.6739,"dy":0.0162,"dx":0.0183,"nx":112,"ny":82,"refTime":"2023-08-05T12:00:00:Z","depth":0,"parameterNumber":3,"parameterNumberName":"V-component_of_WINDS"},"data":[0.0,0.0,0.0,0.0,0.0,0.0,0.0,0.0,0.0,0.0,0.0,0.0,0.0,0.0,0.0,0.0,0.0,0.0,0.0,0.0,0.0,0.0,0.0,0.0,0.0,0.0,0.0,0.0,0.0,0.0,0.0,0.0,0.0,0.0,0.0,0.0,0.0,0.0,0.0,0.0,0.0,0.0,0.0,0.0,0.0,0.0,0.0,0.0,0.0,0.0,0.0,0.0,0.0,0.0,0.0,0.0,0.0,0.0,0.0,0.0,0.0,0.0,0.0,0.0,0.0,0.0,0.0,0.0,0.0,0.0,0.0,0.0,0.0,0.0,0.0,0.0,0.0,0.0,0.0,0.0,0.0,0.0,0.0,0.0,0.0,0.0,0.0,0.0,0.0,0.0,-1.5873,-1.6698,-1.8247,-1.8944,-1.8241,-1.7539,-1.6708,-1.5725,0.0,0.0,0.0,0.0,0.0,0.0,0.0,0.0,0.0,0.0,0.0,0.0,0.0,0.0,0.0,0.0,0.0,0.0,0.0,0.0,0.0,0.0,0.0,0.0,0.0,0.0,0.0,0.0,0.0,0.0,0.0,0.0,0.0,0.0,0.0,0.0,0.0,0.0,0.0,0.0,0.0,0.0,0.0,0.0,0.0,0.0,0.0,0.0,0.0,0.0,0.0,0.0,0.0,0.0,0.0,0.0,0.0,0.0,0.0,0.0,0.0,0.0,0.0,0.0,0.0,0.0,0.0,0.0,0.0,0.0,0.0,0.0,0.0,0.0,0.0,0.0,0.0,0.0,0.0,0.0,0.0,0.0,0.0,0.0,0.0,0.0,0.0,0.0,0.0,0.0,0.0,0.0,0.0,0.0,0.0,0.0,0.0,0.0,0.0,0.0,0.0,0.0,0.0,0.0,-1.7979,-2.0105,-2.029,-1.9894,-1.8913,-1.8998,-1.8182,-1.616,0.0,0.0,0.0,0.0,0.0,0.0,0.0,0.0,0.0,0.0,0.0,0.0,0.0,0.0,0.0,0.0,0.0,0.0,0.0,0.0,0.0,0.0,0.0,0.0,0.0,0.0,0.0,0.0,0.0,0.0,0.0,0.0,0.0,0.0,0.0,0.0,0.0,0.0,0.0,0.0,0.0,0.0,0.0,0.0,0.0,0.0,0.0,0.0,0.0,0.0,0.0,0.0,0.0,0.0,0.0,0.0,0.0,0.0,0.0,0.0,0.0,0.0,0.0,0.0,0.0,0.0,0.0,0.0,0.0,0.0,0.0,0.0,0.0,0.0,0.0,0.0,0.0,0.0,0.0,0.0,0.0,0.0,0.0,0.0,0.0,0.0,0.0,0.0,0.0,0.0,0.0,0.0,0.0,0.0,0.0,0.0,0.0,0.0,0.0,0.0,0.0,0.0,0.0,-1.772,-1.9011,-2.0909,-2.1261,-2.1056,-2.0245,-2.0143,-1.9126,-1.6885,-1.5828,0.0,0.0,0.0,0.0,0.0,0.0,0.0,0.0,0.0,0.0,0.0,0.0,0.0,0.0,0.0,0.0,0.0,0.0,0.0,0.0,0.0,0.0,0.0,0.0,0.0,0.0,0.0,0.0,0.0,0.0,0.0,0.0,0.0,0.0,0.0,0.0,0.0,0.0,0.0,0.0,0.0,0.0,0.0,0.0,0.0,0.0,0.0,0.0,0.0,0.0,0.0,0.0,0.0,0.0,0.0,0.0,0.0,0.0,0.0,0.0,0.0,0.0,0.0,0.0,0.0,0.0,0.0,0.0,0.0,0.0,0.0,0.0,0.0,0.0,0.0,0.0,0.0,0.0,0.0,0.0,0.0,0.0,0.0,0.0,0.0,0.0,0.0,0.0,0.0,0.0,0.0,0.0,0.0,0.0,0.0,0.0,0.0,0.0,0.0,0.0,0.0,0.0,-1.9534,-2.089,-2.1799,-2.2421,-2.2476,-2.167,-2.1318,-2.0025,-1.7469,-1.7017,0.0,0.0,0.0,0.0,0.0,0.0,0.0,0.0,0.0,0.0,0.0,0.0,0.0,0.0,0.0,0.0,0.0,0.0,0.0,0.0,0.0,0.0,0.0,0.0,0.0,0.0,0.0,0.0,0.0,0.0,0.0,0.0,0.0,0.0,0.0,0.0,0.0,0.0,0.0,0.0,0.0,0.0,0.0,0.0,0.0,0.0,0.0,0.0,0.0,0.0,0.0,0.0,0.0,0.0,0.0,0.0,0.0,0.0,0.0,0.0,0.0,0.0,0.0,0.0,0.0,0.0,0.0,0.0,0.0,0.0,0.0,0.0,0.0,0.0,0.0,0.0,0.0,0.0,0.0,0.0,0.0,0.0,0.0,0.0,0.0,0.0,0.0,0.0,0.0,0.0,0.0,0.0,0.0,0.0,0.0,0.0,0.0,0.0,0.0,0.0,0.0,0.0,-2.2668,-2.4963,-2.4245,-2.4597,-2.4338,-2.2889,-2.2737,-2.1195,-1.7519,-1.752,0.0,0.0,0.0,0.0,0.0,0.0,0.0,0.0,0.0,0.0,0.0,0.0,0.0,0.0,0.0,0.0,0.0,0.0,0.0,0.0,0.0,0.0,0.0,0.0,0.0,0.0,0.0,0.0,0.0,0.0,0.0,0.0,0.0,0.0,0.0,0.0,0.0,0.0,0.0,0.0,0.0,0.0,0.0,0.0,0.0,0.0,0.0,0.0,0.0,0.0,0.0,0.0,0.0,0.0,0.0,0.0,0.0,0.0,0.0,0.0,0.0,0.0,0.0,0.0,0.0,0.0,0.0,0.0,0.0,0.0,0.0,0.0,0.0,0.0,0.0,0.0,0.0,0.0,0.0,0.0,0.0,0.0,0.0,0.0,0.0,0.0,0.0,0.0,0.0,0.0,0.0,0.0,0.0,0.0,0.0,0.0,0.0,0.0,0.0,0.0,0.0,0.0,-2.2483,-2.4301,0.0,-2.5408,-2.5303,-2.477,-2.4487,-2.2806,-1.9281,0.0,0.0,0.0,0.0,0.0,0.0,0.0,0.0,0.0,0.0,0.0,0.0,0.0,0.0,0.0,0.0,0.0,0.0,0.0,0.0,0.0,0.0,0.0,0.0,0.0,0.0,0.0,0.0,0.0,0.0,0.0,0.0,0.0,0.0,0.0,0.0,0.0,0.0,0.0,0.0,0.0,0.0,0.0,0.0,0.0,0.0,0.0,0.0,0.0,0.0,0.0,0.0,0.0,0.0,0.0,0.0,0.0,0.0,0.0,0.0,0.0,0.0,0.0,0.0,0.0,0.0,0.0,0.0,0.0,0.0,0.0,0.0,0.0,0.0,0.0,0.0,0.0,0.0,0.0,0.0,0.0,0.0,0.0,0.0,0.0,0.0,0.0,0.0,0.0,0.0,0.0,0.0,0.0,0.0,0.0,0.0,0.0,0.0,0.0,0.0,0.0,0.0,-2.0903,-2.2827,-2.4545,0.0,-2.6126,-2.6179,-2.6046,-2.5761,-2.4086,-2.0482,0.0,0.0,0.0,0.0,0.0,0.0,0.0,0.0,0.0,0.0,0.0,0.0,0.0,0.0,0.0,0.0,0.0,0.0,0.0,0.0,0.0,0.0,0.0,0.0,0.0,0.0,0.0,0.0,0.0,0.0,0.0,0.0,0.0,0.0,0.0,0.0,0.0,0.0,0.0,0.0,0.0,0.0,0.0,0.0,0.0,0.0,0.0,0.0,0.0,0.0,0.0,0.0,0.0,0.0,0.0,0.0,0.0,0.0,0.0,0.0,0.0,0.0,0.0,0.0,0.0,0.0,0.0,0.0,0.0,0.0,0.0,0.0,0.0,0.0,0.0,0.0,0.0,0.0,0.0,0.0,0.0,0.0,0.0,0.0,0.0,0.0,0.0,0.0,0.0,0.0,0.0,0.0,0.0,0.0,0.0,0.0,0.0,0.0,0.0,0.0,0.0,0.0,-2.1154,-2.4258,-2.6501,-2.6513,-2.6921,-2.7015,-2.6569,-2.6528,-2.4787,0.0,0.0,0.0,0.0,0.0,0.0,0.0,0.0,0.0,0.0,0.0,0.0,0.0,0.0,0.0,0.0,0.0,0.0,0.0,0.0,0.0,0.0,0.0,0.0,0.0,0.0,0.0,0.0,0.0,0.0,0.0,0.0,0.0,0.0,0.0,0.0,0.0,0.0,0.0,0.0,0.0,0.0,0.0,0.0,0.0,0.0,0.0,0.0,0.0,0.0,0.0,0.0,0.0,0.0,0.0,0.0,0.0,0.0,0.0,0.0,0.0,0.0,0.0,0.0,0.0,0.0,0.0,0.0,0.0,0.0,0.0,0.0,0.0,0.0,0.0,0.0,0.0,0.0,0.0,0.0,0.0,0.0,0.0,0.0,0.0,0.0,0.0,0.0,0.0,0.0,0.0,0.0,0.0,0.0,0.0,0.0,0.0,0.0,0.0,0.0,0.0,0.0,0.0,-2.2179,-2.4728,-2.6639,-2.6967,-2.7139,-2.7138,-2.7015,-2.7015,-2.5493,-2.2007,0.0,0.0,0.0,0.0,0.0,0.0,0.0,0.0,0.0,0.0,0.0,0.0,0.0,0.0,0.0,0.0,0.0,0.0,0.0,0.0,0.0,0.0,0.0,0.0,0.0,0.0,0.0,0.0,0.0,0.0,0.0,0.0,0.0,0.0,0.0,0.0,0.0,0.0,0.0,0.0,0.0,0.0,0.0,0.0,0.0,0.0,0.0,0.0,0.0,0.0,0.0,0.0,0.0,0.0,0.0,0.0,0.0,0.0,0.0,0.0,0.0,0.0,0.0,0.0,0.0,0.0,0.0,0.0,0.0,0.0,0.0,0.0,0.0,0.0,0.0,0.0,0.0,0.0,0.0,0.0,0.0,0.0,0.0,0.0,0.0,0.0,0.0,0.0,0.0,0.0,0.0,0.0,0.0,0.0,0.0,0.0,0.0,0.0,0.0,0.0,0.0,0.0,-2.2776,-2.512,-2.6887,-2.7156,-2.719,-2.719,-2.719,-2.719,-2.6063,-2.3442,0.0,0.0,0.0,0.0,0.0,0.0,0.0,0.0,0.0,0.0,0.0,0.0,0.0,0.0,0.0,0.0,0.0,0.0,0.0,0.0,0.0,0.0,0.0,0.0,0.0,0.0,0.0,0.0,0.0,0.0,0.0,0.0,0.0,0.0,0.0,0.0,0.0,0.0,0.0,0.0,0.0,0.0,0.0,0.0,0.0,0.0,0.0,0.0,0.0,0.0,0.0,0.0,0.0,0.0,0.0,0.0,0.0,0.0,0.0,0.0,0.0,0.0,0.0,0.0,0.0,0.0,0.0,0.0,0.0,0.0,0.0,0.0,0.0,0.0,0.0,0.0,0.0,0.0,0.0,0.0,0.0,0.0,0.0,0.0,0.0,0.0,0.0,0.0,0.0,0.0,0.0,0.0,0.0,0.0,0.0,0.0,0.0,0.0,0.0,0.0,0.0,0.0,-2.3129,-2.5538,-2.7259,-2.7259,-2.7213,-2.719,-2.719,-2.719,-2.6518,-2.491,0.0,0.0,0.0,0.0,0.0,0.0,0.0,0.0,0.0,0.0,0.0,0.0,0.0,0.0,0.0,0.0,0.0,0.0,0.0,0.0,0.0,0.0,0.0,0.0,0.0,0.0,0.0,0.0,0.0,0.0,0.0,0.0,0.0,0.0,0.0,0.0,0.0,0.0,0.0,0.0,0.0,0.0,0.0,0.0,0.0,0.0,0.0,0.0,0.0,0.0,0.0,0.0,0.0,0.0,0.0,0.0,0.0,0.0,0.0,0.0,-1.9881,0.0,0.0,0.0,0.0,0.0,0.0,0.0,0.0,0.0,0.0,0.0,0.0,0.0,0.0,0.0,0.0,0.0,0.0,0.0,0.0,0.0,0.0,0.0,0.0,0.0,0.0,0.0,0.0,0.0,0.0,0.0,0.0,0.0,0.0,0.0,0.0,0.0,0.0,0.0,0.0,0.0,-2.3924,-2.6205,-2.7828,-2.7828,-2.7461,-2.719,-2.719,-2.719,-2.6561,-2.5126,-2.4617,0.0,0.0,0.0,0.0,0.0,0.0,0.0,0.0,0.0,0.0,0.0,0.0,0.0,0.0,0.0,0.0,0.0,0.0,0.0,0.0,0.0,0.0,0.0,0.0,0.0,0.0,0.0,0.0,0.0,0.0,0.0,0.0,0.0,0.0,0.0,0.0,0.0,0.0,0.0,0.0,0.0,0.0,0.0,0.0,0.0,0.0,0.0,0.0,0.0,0.0,0.0,0.0,0.0,0.0,0.0,0.0,0.0,0.0,0.0,0.0,-2.0283,0.0,0.0,0.0,0.0,0.0,0.0,0.0,0.0,0.0,0.0,0.0,0.0,0.0,0.0,0.0,0.0,0.0,0.0,0.0,0.0,0.0,0.0,0.0,0.0,0.0,0.0,0.0,0.0,0.0,0.0,0.0,0.0,0.0,0.0,0.0,0.0,0.0,0.0,0.0,0.0,-2.4805,-2.6976,-2.8472,-2.8364,-2.8092,-2.7931,-2.7931,-2.7725,-2.7273,-2.6528,-2.5497,0.0,0.0,0.0,0.0,0.0,0.0,0.0,0.0,0.0,0.0,0.0,0.0,0.0,0.0,0.0,0.0,0.0,0.0,0.0,0.0,0.0,0.0,0.0,0.0,0.0,0.0,0.0,0.0,0.0,0.0,0.0,0.0,0.0,0.0,0.0,0.0,0.0,0.0,0.0,0.0,0.0,0.0,0.0,0.0,0.0,0.0,0.0,0.0,0.0,0.0,0.0,0.0,0.0,-2.2351,-2.2522,-2.2792,-2.2792,-2.3642,-2.4898,-2.2808,-2.2684,-2.3745,-2.1904,0.0,0.0,0.0,0.0,0.0,0.0,0.0,0.0,0.0,0.0,0.0,0.0,0.0,0.0,0.0,0.0,0.0,0.0,0.0,0.0,0.0,0.0,0.0,0.0,-2.3709,-2.3803,-2.2974,0.0,0.0,0.0,0.0,0.0,0.0,0.0,0.0,0.0,0.0,0.0,-2.5916,-2.7888,-2.912,-2.8881,-2.8758,-2.87,-2.87,-2.8333,-2.8103,-2.8103,-2.6519,-2.5507,0.0,0.0,0.0,0.0,0.0,0.0,0.0,0.0,0.0,0.0,0.0,0.0,0.0,0.0,0.0,0.0,0.0,0.0,0.0,0.0,0.0,0.0,0.0,0.0,0.0,0.0,0.0,0.0,0.0,0.0,0.0,0.0,-1.8282,-1.8457,0.0,0.0,0.0,0.0,0.0,0.0,0.0,0.0,0.0,0.0,0.0,0.0,0.0,-2.1804,-2.1497,-2.2793,-2.356,-2.3808,-2.4731,-2.5198,-2.5256,-2.5256,-2.5362,-2.5557,-2.5227,0.0,-2.5058,-2.4755,0.0,0.0,0.0,0.0,0.0,0.0,0.0,0.0,0.0,0.0,0.0,0.0,0.0,0.0,0.0,0.0,0.0,0.0,0.0,0.0,0.0,0.0,-2.5266,-2.5276,-2.5382,-2.5392,0.0,-2.4183,-2.327,-2.3399,-2.4088,0.0,0.0,0.0,0.0,0.0,0.0,0.0,-2.7659,-2.8923,-2.9642,-2.9433,-2.8976,-2.87,-2.87,-2.8643,-2.8609,-2.8609,-2.7969,-2.7071,-2.5862,-2.4955,0.0,0.0,0.0,0.0,0.0,0.0,0.0,0.0,0.0,0.0,0.0,0.0,0.0,0.0,0.0,0.0,0.0,0.0,0.0,0.0,0.0,0.0,0.0,0.0,0.0,0.0,0.0,0.0,0.0,-1.7691,-1.8572,-1.8902,-1.8237,-1.7675,0.0,0.0,0.0,0.0,0.0,0.0,0.0,0.0,0.0,-2.2983,-2.3435,-2.3868,-2.4275,-2.5081,-2.5469,-2.5422,-2.5896,-2.623,-2.6405,-2.6405,-2.6592,-2.6816,-2.6816,-2.6635,-2.6193,-2.5702,-2.4918,-2.3982,0.0,0.0,0.0,0.0,-2.2804,-2.2927,-2.349,-2.3599,-2.3492,-2.3453,0.0,0.0,0.0,0.0,0.0,0.0,0.0,0.0,0.0,0.0,-2.5093,-2.5577,-2.5693,-2.5693,-2.5693,-2.515,-2.4612,0.0,-2.4381,-2.421,-2.3157,0.0,0.0,0.0,0.0,-2.8342,-2.8753,-2.9882,-3.0519,-3.0163,-2.991,-2.9727,-2.955,-2.9297,-2.9148,-2.9148,-2.8666,-2.7986,-2.7128,-2.5958,-2.4697,0.0,0.0,0.0,0.0,0.0,0.0,0.0,0.0,0.0,0.0,0.0,0.0,0.0,0.0,0.0,0.0,0.0,0.0,0.0,0.0,0.0,0.0,0.0,0.0,0.0,0.0,0.0,0.0,-1.8852,-1.9757,-1.9908,-2.0071,-1.9857,0.0,0.0,0.0,0.0,0.0,0.0,-2.2904,-2.2987,-2.3598,-2.4808,-2.5185,-2.5778,-2.6553,-2.6865,-2.6855,-2.6543,-2.6543,-2.6709,-2.7012,-2.7012,-2.7197,-2.75,-2.75,-2.7373,-2.7097,-2.642,-2.5992,-2.5759,-2.5497,-2.5052,-2.4612,-2.4481,-2.4476,-2.4524,-2.4886,-2.4786,-2.4542,-2.4544,-2.4259,-2.3852,-2.3672,0.0,0.0,0.0,0.0,-2.3985,-2.4765,-2.4852,-2.489,-2.5567,-2.5693,-2.5693,-2.5693,-2.5645,-2.5489,0.0,-2.4881,-2.4632,-2.4089,0.0,0.0,0.0,0.0,-2.9601,-2.9841,-3.0734,-3.1128,-3.0769,-3.0724,-3.0634,-3.0408,-3.0029,-2.981,-2.9866,-2.9282,-2.8778,-2.8453,-2.7154,-2.5991,-2.5083,0.0,0.0,0.0,0.0,0.0,0.0,0.0,0.0,0.0,0.0,0.0,0.0,0.0,0.0,0.0,0.0,0.0,0.0,0.0,0.0,0.0,0.0,0.0,0.0,0.0,0.0,0.0,0.0,0.0,-2.2332,-2.3486,0.0,0.0,0.0,0.0,-2.3871,-2.316,-2.3646,-2.5839,-2.5404,-2.5607,-2.6832,-2.6861,-2.6931,-2.6982,-2.7002,-2.7002,-2.6982,-2.6982,-2.6992,-2.7012,-2.7012,-2.7021,-2.7051,-2.7051,-2.7266,-2.7679,-2.7607,-2.6887,-2.5839,-2.624,-2.5665,-2.4691,-2.5463,-2.5722,-2.5769,-2.6193,-2.6288,-2.6101,-2.5183,-2.4688,-2.4571,-2.5022,-2.4826,0.0,0.0,-2.5022,-2.4924,-2.5499,-2.5654,-2.5664,-2.5684,-2.5693,-2.5693,-2.5693,-2.5489,-2.5382,0.0,-2.6378,-2.6958,-2.6672,0.0,-2.8462,-2.9396,-2.9704,-3.0136,-3.1071,-3.1261,-3.1229,-3.1017,-3.0984,-3.0972,-3.0972,-3.0701,-3.0644,-3.0892,-3.0001,-2.9523,-2.9697,-2.8525,-2.733,-2.6163,-2.5381,0.0,0.0,0.0,0.0,0.0,0.0,0.0,0.0,0.0,0.0,0.0,0.0,0.0,0.0,0.0,0.0,0.0,0.0,0.0,0.0,0.0,0.0,0.0,0.0,0.0,0.0,0.0,0.0,-2.2542,-2.4287,0.0,-2.33,-2.4192,-2.5023,-2.547,-2.6081,-2.665,-2.7133,-2.6966,-2.6882,-2.7021,-2.7012,-2.7012,-2.7012,-2.7295,-2.7432,-2.7432,-2.7705,-2.7978,-2.8242,-2.8242,-2.8086,-2.7842,-2.7842,-2.7617,-2.7266,-2.7601,-2.7567,-2.742,-2.7574,-2.7376,-2.6992,-2.6998,-2.7006,-2.7001,-2.6832,-2.6621,-2.6318,-2.5624,-2.5333,-2.5294,-2.5489,-2.544,-2.5333,-2.5489,-2.5489,-2.544,-2.5635,-2.5693,-2.5693,-2.5693,-2.5693,-2.5693,-2.5693,-2.5635,-2.5586,-2.5684,-2.5858,-2.5936,-2.5849,-2.6819,-2.7898,-2.8691,-2.9521,-3.0407,-3.1427,-3.1572,-3.1439,-3.1229,-3.1184,-3.1139,-3.1029,-3.0927,-3.0883,-3.0972,-3.0674,-3.0271,-2.9834,-2.9549,-2.878,-2.7395,-2.7383,-2.6224,0.0,0.0,0.0,0.0,0.0,0.0,0.0,0.0,0.0,0.0,0.0,0.0,0.0,0.0,0.0,0.0,0.0,0.0,0.0,0.0,0.0,0.0,0.0,0.0,0.0,0.0,-2.4955,-2.2922,-2.5338,-2.6445,-2.4557,-2.6045,-2.7182,-2.735,-2.7974,-2.8271,-2.7969,-2.7727,-2.7597,-2.7555,-2.7503,-2.7646,-2.8086,-2.8379,-2.8594,-2.876,-2.9033,-2.9316,-2.958,-2.9424,-2.9199,-2.8926,-2.8789,-2.8398,-2.79,-2.8184,-2.853,-2.8711,-2.8564,-2.8506,-2.8467,-2.8193,-2.7998,-2.7822,-2.7383,-2.6953,-2.6553,-2.626,-2.6122,-2.6122,-2.6122,-2.6122,-2.6122,-2.6122,-2.6122,-2.6122,-2.6122,-2.6122,-2.6122,-2.6122,-2.6122,-2.6122,-2.6122,-2.6005,-2.5957,-2.5957,-2.5635,-2.5528,-2.5887,-2.6628,-2.7478,-2.8383,-2.9484,-3.0465,-3.1149,-3.1535,-3.1617,-3.1439,-3.1439,-3.1395,-3.1241,-3.0888,-3.082,-3.1208,-3.0797,-3.0465,-3.0311,-2.9848,-2.9093,-2.8139,-2.8084,-2.7021,-2.49,0.0,0.0,0.0,0.0,0.0,0.0,0.0,0.0,0.0,0.0,0.0,0.0,0.0,0.0,0.0,0.0,0.0,0.0,0.0,0.0,0.0,0.0,0.0,-2.3378,-2.489,-2.5557,-2.3863,-2.6988,-2.8676,-2.6929,-2.8172,-2.9217,-2.9533,-2.8687,-2.8269,-2.8548,-2.79,-2.7915,-2.8734,-2.854,-2.8965,-3.0185,-3.0225,-3.0459,-3.0889,-3.0918,-3.0928,-3.0918,-3.0459,-3.0244,-3.0215,-2.9814,-2.9675,-2.9665,-2.959,-2.9655,-2.957,-2.9111,-2.8935,-2.8935,-2.8935,-2.8672,-2.8252,-2.7851,-2.7412,-2.7031,-2.7031,-2.7021,-2.7012,-2.7012,-2.7012,-2.7012,-2.7012,-2.7012,-2.7012,-2.7012,-2.7012,-2.7012,-2.7012,-2.7012,-2.7012,-2.7012,-2.6699,-2.6406,-2.6406,-2.6064,-2.6043,-2.701,-2.7189,-2.762,-2.8769,-2.9685,0.0,-3.0406,-3.1174,-3.1673,-3.1685,-3.1673,-3.1673,-3.1685,-3.0629,-3.0502,-3.1641,-3.0491,-3.0213,-3.1273,-2.9454,-2.8421,-2.8398,-2.737,-2.6776,-2.6711,0.0,0.0,0.0,0.0,0.0,0.0,0.0,0.0,0.0,0.0,0.0,0.0,0.0,0.0,0.0,0.0,0.0,0.0,0.0,0.0,0.0,0.0,-2.6292,-2.5355,-2.7092,-2.8117,-2.7312,-2.8737,-2.9332,-2.8177,-2.8584,-2.8981,-2.9095,-2.9046,-2.9144,-2.958,-2.982,-3.0045,-3.029,-3.0233,-3.0185,-3.0195,-3.083,-3.1064,-3.0898,-3.1523,-3.1816,-3.1816,-3.1689,-3.1455,-3.1152,-3.1035,-3.081,-3.0498,-3.0166,-3.0225,-3.0459,-2.9687,-2.9394,-2.9394,-2.9394,-2.9121,-2.873,-2.8613,-2.8096,-2.749,-2.749,-2.7275,-2.7012,-2.7012,-2.7012,-2.7012,-2.7012,-2.7012,-2.7012,-2.7012,-2.7012,-2.7012,-2.7012,-2.7012,-2.7012,-2.7012,-2.6924,-2.6846,-2.6846,-2.6748,-2.6744,-2.7123,-2.7189,-2.7788,-2.9562,-3.0068,0.0,-3.1248,-3.1555,-3.1538,-3.1077,-3.0775,-3.0739,-3.1031,-3.0468,-3.0603,-3.1617,-3.1335,-3.1213,-3.1306,-3.0974,-3.0582,-3.0205,-2.8292,-2.7315,0.0,0.0,0.0,0.0,0.0,0.0,0.0,0.0,0.0,0.0,0.0,0.0,0.0,0.0,0.0,0.0,0.0,0.0,0.0,0.0,0.0,0.0,-2.6873,-2.8091,-2.8021,-2.9105,-2.958,-2.8818,-2.9663,-2.9817,-2.8686,-2.9084,-2.9438,-2.9366,-2.9803,-3.0217,-3.0551,-3.0894,-3.1132,-3.1309,-3.1211,-3.1191,-3.1279,-3.1797,-3.2021,-3.1953,-3.2451,-3.2695,-3.2685,-3.251,-3.2295,-3.2041,-3.1865,-3.165,-3.1406,-3.1133,-3.1182,0.0,0.0,0.0,0.0,0.0,-2.9414,-2.9189,-2.9189,-2.8877,-2.852,-2.852,-2.8291,-2.8057,-2.7871,-2.7812,-2.7773,-2.7598,-2.7549,-2.7549,-2.7549,-2.7549,-2.7549,-2.7549,-2.7549,-2.7549,-2.7549,-2.7412,-2.7285,-2.7285,-2.7139,0.0,-2.7678,-2.7237,-2.76,-2.9673,-2.9733,-2.9966,-3.1015,-3.147,-3.1559,-3.12,-3.0966,-3.0896,-3.1167,-3.0629,0.0,0.0,0.0,-3.1001,-3.0713,-3.0836,0.0,0.0,0.0,-2.8182,-2.8259,0.0,0.0,0.0,-2.7437,-2.7462,0.0,0.0,0.0,0.0,0.0,0.0,0.0,0.0,0.0,0.0,0.0,0.0,0.0,0.0,0.0,0.0,-2.8867,-3.0232,-3.0698,-3.0812,-3.0438,-2.9239,-3.0075,-3.0228,-2.8946,-2.9721,-3.0281,-3.0257,-3.0847,-3.1287,-3.1453,0.0,0.0,0.0,0.0,-3.207,-3.2793,-3.2842,-3.3027,-3.335,-3.3398,-3.3418,-3.3408,-3.3037,-3.2861,-3.2842,-3.2471,-3.2314,-3.2305,-3.2256,-3.2217,-3.2111,-3.082,-3.0322,-3.0234,-2.9853,-2.9687,-2.9695,-2.9695,0.0,0.0,-2.9626,-2.9626,-2.9502,-2.9111,-2.8994,-2.8916,-2.8545,-2.8437,-2.8437,-2.8437,-2.8398,-2.8359,-2.8359,-2.833,-2.8291,-2.8291,-2.7998,-2.7787,-2.7787,-2.7422,-2.7456,-2.8491,-2.7642,-2.7539,-2.9607,-2.9533,-2.9546,-3.0487,-3.129,-3.1757,-3.1612,0.0,0.0,-3.16,-3.0847,-3.0744,-3.1641,-3.0961,-3.0399,-3.0011,-2.9988,-2.9772,-2.9304,-2.9235,-2.928,-2.9443,-2.9352,-2.931,-2.9285,-2.771,-2.7866,0.0,0.0,0.0,0.0,0.0,0.0,0.0,0.0,0.0,0.0,0.0,0.0,0.0,0.0,0.0,-2.8025,-2.9525,-3.0708,-3.1174,-3.1547,-3.1388,-3.0469,-3.0574,-3.076,-3.0849,-3.0892,-3.1166,-3.1744,-3.1938,-3.2116,-3.2365,-3.2733,-3.3031,-3.3109,-3.3047,-3.2969,-3.2793,-3.3135,-3.3174,-3.292,0.0,0.0,-3.3418,-3.334,-3.3301,-3.3301,-3.3213,-3.3174,-3.3154,-3.2812,-3.2471,-3.2109,-3.1504,-3.1055,-3.0752,-3.0664,-3.04,-3.0078,-3.0078,-2.9853,-2.9626,-2.9626,-2.9626,-2.9551,-2.9473,-2.9443,0.0,-2.9346,-2.9381,-2.9381,-2.9381,-2.9062,-2.8799,-2.8799,-2.8535,-2.8291,-2.8291,-2.8232,-2.8174,-2.8174,-2.8105,-2.8397,-2.9466,-2.9484,-2.9781,-3.1052,-3.1878,-3.2321,-3.2104,-3.2258,-3.2005,-3.109,-3.0696,-3.0615,-3.0951,-3.0503,-3.0647,-3.1617,-3.1523,-3.1389,-3.1339,-3.1339,-3.1279,-3.1184,-3.0767,-3.0469,-3.0334,-2.9642,-2.9121,-2.885,-2.8698,-2.9436,0.0,0.0,0.0,0.0,0.0,0.0,0.0,0.0,0.0,0.0,0.0,-2.5605,0.0,0.0,-2.8443,-2.9719,-3.054,-3.1195,-3.165,-3.1712,-3.1547,-3.1091,-3.1433,-3.1591,-3.1303,-3.1736,-3.2084,-3.2195,-3.2543,-3.2814,-3.3021,-3.3256,-3.3418,-3.3418,-3.3418,-3.332,-3.3105,-3.332,-3.332,-3.3105,-3.332,-3.3418,-3.3418,-3.3418,-3.3418,-3.3418,-3.3418,-3.3418,-3.3408,-3.3193,-3.2861,-3.2461,-3.2236,-3.1768,-3.1201,-3.1201,-3.0918,-3.0547,-3.0547,-3.041,-3.0234,-3.0234,-3.0234,-3.0185,-2.9951,-2.9883,-2.9834,-2.9685,-2.9626,-2.9626,-2.9626,-2.9414,-2.9248,-2.9248,-2.9082,-2.8877,-2.8652,-2.8603,-2.8545,-2.833,-2.8291,-2.8441,-2.9006,-3.0063,-3.1125,-3.1868,-3.1821,-3.2018,-3.2785,-3.2899,-3.2596,-3.176,-3.1478,-3.1313,-3.1268,-3.1066,-3.1149,-3.1661,-3.1705,-3.1705,-3.1705,-3.1705,-3.1705,-3.1705,-3.1452,-3.11,-3.0762,-3.0308,-2.9798,-2.9254,-2.9506,-3.0086,0.0,0.0,0.0,0.0,0.0,0.0,0.0,0.0,-2.4508,-2.6281,-2.656,-2.7022,-2.8779,-2.9039,-2.9527,-3.1251,-3.1505,-3.1692,-3.223,-3.1992,-3.1795,-3.1888,-3.2385,-3.2426,-3.164,-3.2464,-3.2944,-3.2556,-3.3033,-3.3306,-3.3408,-3.3418,-3.3418,-3.3418,-3.3418,-3.3418,-3.3418,-3.3418,-3.3418,-3.3418,-3.3418,-3.3418,-3.3418,-3.3418,-3.3418,-3.3418,-3.3418,-3.3418,-3.3418,-3.3418,-3.3223,-3.292,-3.292,-3.2441,-3.1748,-3.1582,-3.1299,-3.0996,-3.0918,-3.0889,-3.0889,-3.0889,-3.0889,-3.082,-3.0449,-3.0332,-3.0264,-2.9922,-2.9824,-2.9824,-2.9824,-2.9756,-2.9744,-2.9744,-2.9685,-2.9473,-2.9121,-2.8975,-2.8818,-2.8476,-2.835,-2.8291,-2.8291,-2.9932,-3.1444,-3.1849,-3.1212,-3.1274,-3.2913,-3.3148,-3.2992,-3.2707,-3.2659,-3.243,-3.1922,-3.1765,-3.1705,-3.1705,-3.1705,-3.1705,-3.1705,-3.1705,-3.1705,-3.1705,-3.1705,-3.15,-3.1067,-3.097,-3.0577,-2.9981,-3.0019,-3.0249,-2.2083,-2.2583,-2.3816,-2.5076,-2.5227,-2.5762,0.0,0.0,-2.7839,-3.0231,-3.0407,-3.0396,-3.1408,-3.132,-3.1271,-3.1822,-3.1915,-3.2261,-3.311,-3.3182,-3.3306,-3.3779,-3.3151,-3.2843,-3.3289,-3.3578,-3.3687,-3.3681,-3.3509,-3.3369,-3.3418,-3.3418,-3.3418,-3.3418,-3.3418,-3.3418,-3.3418,-3.3418,-3.3418,-3.3418,-3.3418,-3.3418,-3.3418,-3.3418,-3.3418,-3.3418,-3.3418,-3.3418,-3.3418,-3.3418,-3.3389,-3.335,-3.335,-3.3066,-3.2559,-3.1797,-3.1484,-3.1396,-3.1025,-3.0889,-3.0889,-3.0889,-3.0889,-3.0879,-3.083,-3.081,-3.0801,-3.0762,-3.0742,-3.0742,-3.0742,-3.0439,-3.0127,-3.0127,-2.9844,-2.9616,-2.9502,-2.9189,-2.8906,-2.8857,-2.8545,-2.8291,-2.8291,-2.9313,-3.011,-3.0161,-3.1697,-3.2769,-3.2529,-3.252,-3.2683,-3.3155,-3.32,-3.2984,-3.2454,-3.1949,-3.1705,-3.1705,-3.1705,-3.1705,-3.1705,-3.1705,-3.1705,-3.1705,-3.1705,-3.1681,-3.1621,-3.1151,-3.0769,-3.0505,-3.0041,-3.0235,-2.5081,0.0,0.0,0.0,-2.7214,-2.7672,-2.8981,-2.9003,-2.923,-3.1031,-3.1215,-3.1288,-3.1864,-3.1833,-3.1909,0.0,-3.2654,-3.2954,-3.3327,-3.3665,-3.3889,-3.4173,-3.4015,-3.3932,-3.4002,-3.4074,-3.4097,-3.3902,-3.3607,-3.3418,-3.3418,-3.3418,-3.3418,-3.3418,-3.3418,-3.3418,-3.3418,-3.3418,-3.3418,-3.3418,-3.3418,-3.3418,-3.3418,-3.3418,-3.3418,-3.3418,-3.3418,-3.3418,-3.3418,-3.3418,-3.3418,-3.3418,-3.3418,-3.331,-3.3086,-3.249,-3.2109,-3.1836,-3.1406,-3.126,-3.1211,-3.0976,-3.0889,-3.0889,-3.0889,-3.0889,-3.0889,-3.0889,-3.0889,-3.0889,-3.0889,-3.0742,-3.0605,-3.0605,-3.0469,-3.0264,-2.999,-2.9795,-2.9521,-2.9014,-2.8779,-2.8574,-2.833,-2.9207,-2.9922,-2.9922,-3.1768,-3.333,-3.3772,-3.3797,-3.3753,-3.373,-3.3464,-3.308,-3.2551,-3.2286,-3.201,-3.1729,-3.1705,-3.1705,-3.1705,-3.1705,-3.1705,-3.1705,-3.1705,-3.1705,-3.1705,-3.1488,-3.1336,-3.1205,-3.0989,-3.1098,-2.6561,0.0,0.0,-2.8031,-2.8813,-2.9376,-2.9507,-2.9789,-3.0316,-3.1344,-3.1557,-3.1702,-3.2091,-3.2173,-3.2287,-3.2618,-3.3089,-3.342,-3.3544,-3.3909,-3.4244,-3.4452,-3.4677,-3.4708,-3.434,-3.4366,-3.4235,-3.3922,-3.3607,-3.3418,-3.3418,-3.3418,-3.3418,-3.3418,-3.3418,-3.3418,-3.3418,-3.3418,-3.3418,-3.3418,-3.3418,-3.3418,-3.3418,-3.3418,-3.3418,-3.3418,-3.3418,-3.3418,-3.3418,-3.3418,-3.3418,-3.3418,-3.3418,-3.3418,-3.3389,-3.3076,-3.2705,-3.2285,-3.1846,-3.1621,-3.1465,-3.1162,-3.0986,-3.0889,-3.0889,-3.0889,-3.0889,-3.0889,-3.0889,-3.0889,-3.0889,-3.0889,-3.0889,-3.0889,-3.0889,-3.0801,-3.0459,-3.0293,-3.001,-2.9394,-2.9082,-2.8818,-2.8525,-2.9235,-2.9922,-2.9922,-3.1768,-3.3461,-3.4274,-3.4628,-3.4631,-3.4246,-3.3801,-3.3344,-3.2959,-3.2803,-3.2478,-3.1925,-3.1934,-3.1862,-3.1717,-3.1705,-3.1705,-3.1705,-3.1705,-3.1705,-3.1705,-3.1705,-3.1705,-3.1705,-3.1705,-3.1705,0.0,0.0,-2.7033,-2.844,-2.971,-3.0781,-3.1236,-3.134,-3.1485,-3.1874,-3.1967,-3.2101,-3.2566,-3.2659,-3.2659,-3.2669,-3.3089,-3.3534,-3.3989,-3.4204,-3.4473,-3.485,-3.5037,-3.4886,0.0,-3.4413,-3.4235,-3.3922,-3.3607,-3.3418,-3.3418,-3.3418,-3.3418,-3.3418,-3.3418,-3.3418,-3.3418,-3.3418,-3.3418,-3.3418,-3.3418,-3.3418,-3.3418,-3.3418,-3.3418,-3.3418,-3.3418,-3.3418,-3.3418,-3.3418,-3.3418,-3.3418,-3.3418,-3.3418,-3.3418,-3.3408,-3.3135,-3.2715,-3.2295,-3.1875,-3.1514,-3.1504,-3.1221,-3.0889,-3.0889,-3.0889,-3.0889,-3.0889,-3.0889,-3.0889,-3.0889,-3.0889,-3.0889,-3.0889,-3.0889,-3.0889,-3.0869,-3.0518,-3.0185,-3.0166,-2.9492,-2.8916,-2.8896,-2.9437,-2.9922,-2.9922,-3.1768,-3.3201,-3.325,-3.4164,-3.4775,-3.4763,-3.4282,-3.3958,-3.3946,-3.3549,-3.3044,-3.2515,-3.2478,-3.2238,-3.1729,-3.1705,-3.1705,-3.1705,-3.1705,-3.1705,-3.1705,-3.1705,-3.1705,-3.1705,-3.1705,-3.1705,0.0,0.0,-2.8733,-3.0173,-3.1072,-3.1619,-3.1774,-3.2054,-3.2313,-3.2411,-3.16,-3.0833,-3.104,-3.107,-3.107,-3.107,-3.2415,-3.359,-3.3743,-3.4106,-3.4435,-3.4689,-3.4672,0.0,0.0,0.0,0.0,-3.3942,-3.3607,-3.3418,-3.3418,-3.3418,-3.3418,-3.3418,-3.3418,-3.3418,-3.3418,-3.3418,-3.3418,-3.3418,-3.3418,-3.3418,-3.3418,-3.3418,-3.3418,-3.3418,-3.3418,-3.3418,-3.3418,-3.3418,-3.3594,-3.3828,-3.3535,-3.3603,-3.3818,-3.3525,-3.333,-3.3144,-3.2734,-3.249,-3.2275,-3.1699,-3.1426,-3.126,-3.0976,-3.0889,-3.0889,-3.0889,-3.0889,-3.0889,-3.0889,-3.0889,-3.0889,-3.0889,-3.0889,-3.0889,-3.0889,-3.0771,-3.0566,-3.0254,-2.9961,-2.959,-2.9014,-2.9115,-2.939,-2.9816,-3.1768,-3.3461,-3.4164,-3.458,-3.4775,-3.4775,-3.4619,-3.4366,-3.4018,-3.3838,-3.3573,-3.3056,-3.2695,-3.2418,-3.2226,-3.191,-3.1705,-3.1705,-3.1705,-3.1705,-3.1705,-3.1705,-3.1705,-3.1705,-3.1705,-3.1705,0.0,-2.8743,-2.9586,-3.123,-3.1826,-3.2029,-3.2194,-3.2463,-3.2669,-3.2669,-3.1365,-3.0218,-3.0218,-3.0218,-3.0008,-2.9525,-3.1335,-3.2804,-3.279,-3.3135,-3.3629,-3.4259,-3.4302,-3.4273,0.0,0.0,0.0,-3.3951,-3.3607,-3.3418,-3.3418,-3.3418,-3.3418,-3.3418,-3.3418,-3.3418,-3.3418,-3.3418,-3.3418,-3.3418,-3.3418,-3.3418,-3.3418,-3.3418,-3.3418,-3.3418,-3.3418,-3.3516,-3.3652,-3.3652,-3.3906,-3.4267,-3.3984,-3.3955,-3.4033,-3.376,-3.3555,-3.3379,-3.3115,-3.292,-3.2676,-3.1982,-3.1641,-3.1435,-3.1016,-3.0889,-3.0889,-3.0889,-3.0889,-3.0889,-3.0889,-3.0889,-3.0889,-3.0889,-3.0889,-3.0889,-3.0889,-3.0889,-3.0801,-3.0508,-3.0312,-3.0019,-2.9473,-2.9121,-2.9139,-2.9784,-3.1462,-3.3001,-3.4066,-3.4568,-3.4775,-3.4775,-3.4775,-3.4643,-3.4306,-3.4282,-3.4054,-3.3585,-3.3236,-3.2971,-3.2791,-3.225,-3.2006,-3.2006,-3.1813,-3.1705,-3.1705,-3.1705,-3.1705,-3.1705,-3.1705,-3.1705,-2.859,-2.9288,-2.9802,-3.1567,-3.2019,-3.2132,-3.2576,-3.2669,-3.2659,-3.2618,-3.1238,-3.0083,0.0,0.0,-2.9604,-2.8237,-2.9893,-3.1345,-3.1431,-3.1584,-3.2213,0.0,0.0,0.0,0.0,0.0,0.0,-3.3889,0.0,-3.3418,-3.3418,-3.3418,-3.3418,-3.3418,-3.3418,-3.3418,-3.3418,-3.3418,-3.3418,-3.3418,-3.3418,-3.3418,-3.3418,-3.3418,-3.3428,-3.3457,-3.3457,-3.3701,-3.4101,-3.4101,-3.4355,-3.4736,-3.4707,-3.4453,-3.4101,-3.4082,-3.3799,-3.3418,-3.3418,-3.3164,-3.2754,-3.2334,-3.1904,-3.1475,-3.1055,-3.0908,-3.0889,-3.0889,-3.0889,-3.0889,-3.0889,-3.0889,-3.0889,-3.0889,-3.0889,-3.0889,-3.0889,-3.0889,-3.0889,-3.0889,-3.0518,-3.0185,-3.0166,-2.9473,-2.9139,-2.9784,-3.0856,-3.1982,-3.3051,-3.4115,-3.4775,-3.4775,-3.4775,-3.4775,-3.4775,-3.4775,-3.457,-3.4066,-3.4006,-3.3825,-3.3344,-3.2815,-3.2527,-3.2503,-3.2018,-3.1741,-3.1705,-3.1705,-3.1705,-3.1705,-3.1705,-3.1705,-2.9487,-3.0489,-3.1449,-3.2318,-3.2494,-3.2525,-3.2649,-3.2669,-3.2416,-3.1335,-2.9749,-2.8237,0.0,0.0,0.0,-2.7783,-3.0025,0.0,-3.2227,-3.243,0.0,0.0,0.0,-3.3672,-3.3887,-3.3711,0.0,0.0,-3.3418,-3.3418,-3.3418,-3.3418,-3.3418,-3.3418,-3.3418,-3.3418,-3.3418,-3.3418,-3.3418,-3.3418,-3.3418,-3.3418,-3.3418,-3.3418,-3.3603,-3.3906,-3.3906,-3.415,-3.4541,-3.4541,-3.4805,-3.5185,-3.4834,-3.4639,-3.4502,-3.4189,-3.3799,-3.3418,-3.3418,-3.335,-3.3193,-3.2773,-3.2344,-3.1924,-3.1484,-3.1143,-3.0889,-3.0889,-3.0889,-3.0889,-3.0889,-3.0889,-3.0889,-3.0889,-3.0889,-3.0889,-3.0889,-3.0889,-3.0889,-3.0889,-3.0518,-3.0098,-2.9785,-2.9277,-2.9139,-2.9784,-3.0856,-3.1982,-3.3051,-3.4115,-3.4775,-3.4775,-3.4775,-3.4775,-3.4775,-3.4775,-3.4727,-3.4583,-3.421,-3.3934,-3.3802,-3.3356,-3.2899,-3.2515,-3.237,-3.2082,-3.1705,-3.1705,-3.1705,-3.1705,-3.1705,-3.1705,-3.0296,-3.1275,-3.2091,-3.2556,-3.2669,-3.2566,-3.1927,-3.1779,-3.1355,-2.9948,-2.8257,0.0,0.0,0.0,0.0,0.0,0.0,0.0,-3.1613,-3.1737,-3.2289,0.0,-3.3574,0.0,-3.3769,-3.3564,-3.3418,0.0,-3.3418,-3.3418,-3.3418,-3.3418,-3.3418,-3.3418,-3.3418,-3.3418,-3.3418,-3.3418,-3.3418,-3.3418,-3.3418,-3.3525,-3.3711,-3.3711,-3.3945,-3.4346,0.0,-3.46,-3.501,-3.501,-3.5264,-3.5644,-3.5381,-3.5039,-3.4668,-3.4434,-3.3955,-3.3418,-3.3418,-3.3418,-3.335,-3.293,-3.251,-3.209,-3.165,-3.1221,-3.0889,-3.0889,-3.0889,-3.0889,-3.0889,-3.0889,-3.0889,-3.0889,-3.0889,-3.0889,-3.0889,-3.0889,-3.0889,-3.0889,-3.0684,-3.0303,-2.9678,-2.9365,-2.9357,-2.9815,-3.0856,-3.1982,-3.3051,-3.4115,-3.4775,-3.4775,-3.4775,-3.4775,-3.4775,-3.4775,-3.4775,-3.4775,-3.4498,-3.4342,-3.4342,-3.3897,-3.3477,-3.3188,-3.2731,-3.2346,-3.2034,-3.1825,-3.1705,-3.1705,-3.1705,-3.1705,-3.1045,-3.1743,-3.2173,-3.2576,-3.2669,-3.2318,-3.0939,-3.0625,-3.0113,-2.8471,0.0,0.0,-2.5732,0.0,-2.6999,-2.5854,0.0,-2.9809,-3.0616,-3.0761,-3.1401,-3.317,-3.3418,-3.3418,-3.3418,-3.3418,-3.3418,-3.3418,-3.3418,-3.3418,-3.3418,-3.3418,-3.3418,-3.3418,-3.3418,-3.3418,-3.3418,-3.3418,-3.3418,-3.3418,-3.3476,-3.3711,-3.4072,-3.4131,-3.4385,-3.4795,-3.4795,-3.5049,-3.5478,-3.5478,-3.5693,-3.6016,-3.6016,-3.5517,-3.4785,-3.4717,-3.4199,-3.3496,-3.3437,-3.3418,-3.3359,-3.2998,-3.2598,-3.2168,-3.1738,-3.1309,-3.0967,-3.0908,-3.0889,-3.0889,-3.0889,-3.0889,-3.0889,-3.0889,-3.0889,-3.0889,-3.0889,-3.0889,-3.0889,-3.0889,-3.0889,-3.0605,-2.9726,-2.9626,-2.9709,-3.0056,-3.0959,-3.2033,-3.325,-3.4225,-3.4775,-3.4775,-3.4775,-3.4775,-3.4775,-3.4775,-3.4775,-3.4775,-3.4775,-3.4775,-3.4775,-3.4342,-3.4066,-3.3994,-3.3092,-3.2575,-3.2548,-3.1982,-3.1705,-3.1749,-3.1749,-3.1705,-3.1329,-3.1981,-3.2576,-3.2659,-3.2669,-3.2318,-3.0939,-3.0625,0.0,0.0,0.0,-2.588,-2.4683,-2.5372,0.0,-2.6993,0.0,0.0,0.0,0.0,-3.2253,0.0,0.0,0.0,0.0,0.0,0.0,0.0,0.0,-3.3418,-3.3418,-3.3418,-3.3418,-3.3418,-3.3418,-3.3418,-3.3418,-3.3418,-3.3418,-3.3428,-3.3789,-3.4004,-3.4082,-3.4434,-3.4844,-3.5273,-3.5273,0.0,-3.5908,-3.5908,-3.5957,-3.6016,-3.6016,-3.5713,-3.5225,-3.4844,-3.4385,-3.3906,-3.3545,-3.3418,-3.3408,-3.334,-3.3027,-3.2607,-3.2178,-3.1748,-3.1338,-3.0986,-3.0889,-3.0889,-3.0889,-3.0889,-3.0889,-3.0889,-3.0889,-3.0889,-3.0889,-3.0889,-3.0889,-3.0889,-3.0889,-3.0605,-2.9726,-2.9626,-2.9973,-3.115,-3.1472,-3.2286,-3.4262,-3.4677,-3.4775,-3.4775,-3.4775,-3.4775,-3.4775,-3.4775,-3.4775,-3.4775,-3.4775,-3.4775,-3.4775,-3.4691,-3.4438,-3.4006,-3.3452,-3.3015,-3.275,-3.2014,-3.1805,-3.1937,-3.1937,-3.1849,-3.0946,-3.1681,-3.2318,-3.2318,-3.2318,-3.184,-2.9918,0.0,0.0,0.0,0.0,-2.5023,-2.4325,0.0,0.0,0.0,0.0,0.0,0.0,0.0,0.0,0.0,0.0,0.0,0.0,0.0,0.0,0.0,0.0,-3.3418,-3.3418,-3.3418,-3.3418,-3.3418,-3.3418,-3.3418,-3.3418,-3.3418,-3.3535,-3.3769,-3.3975,-3.4316,-3.4766,-3.4971,-3.5303,-3.5723,-3.5723,-3.583,-3.6016,-3.6016,-3.6016,-3.6016,-3.6016,-3.5762,-3.5332,-3.4873,-3.4434,-3.4004,-3.3574,-3.3418,-3.3418,-3.3418,-3.3135,-3.2715,-3.2295,-3.1865,-3.1435,-3.1006,-3.0889,-3.0889,-3.0889,-3.0889,-3.0889,-3.0889,-3.0889,-3.0889,-3.0889,-3.0889,-3.0889,-3.0889,-3.0889,-3.0605,-2.9726,-2.9626,-3.0083,-3.1408,-3.1575,-3.2387,-3.4519,-3.4775,-3.4775,-3.4775,-3.4775,-3.4775,-3.4775,-3.4775,-3.4775,-3.4775,-3.4775,-3.4775,-3.4775,-3.4775,-3.4667,-3.4402,-3.3945,-3.3463,-3.3071,-3.2527,-3.2172,-3.1994,-3.2125,-3.2169,-3.0269,-3.1086,-3.1777,-3.1843,-3.1787,-3.1085,-2.8813,-2.7924,0.0,0.0,0.0,0.0,0.0,0.0,0.0,0.0,0.0,0.0,0.0,0.0,0.0,0.0,0.0,0.0,0.0,0.0,0.0,0.0,0.0,0.0,-3.3418,-3.3418,-3.3418,-3.3418,-3.3418,-3.3418,-3.3418,-3.3516,-3.374,-3.4072,-3.4267,-3.4726,-3.54,-3.5488,-3.5703,-3.6016,-3.6016,-3.6016,-3.6016,-3.6016,-3.6016,-3.6016,-3.6016,-3.582,-3.5459,-3.4902,-3.4492,-3.4131,-3.3603,-3.3418,-3.3418,-3.3418,-3.3203,-3.2832,-3.2324,-3.1934,-3.1553,-3.1035,-3.0889,-3.0889,-3.0889,-3.0889,-3.0889,-3.0889,-3.0889,-3.0889,-3.0889,-3.0889,-3.0889,-3.0889,-3.0889,-3.0605,-2.9726,-2.9626,-2.9973,-3.1047,-3.1421,-3.2286,-3.4225,-3.4677,-3.4775,-3.4775,-3.4775,-3.4775,-3.4775,-3.4775,-3.4775,-3.4775,-3.4775,-3.4775,-3.4775,-3.4884,-3.4884,-3.4884,-3.4354,-3.3883,-3.3504,-3.2971,-3.2516,-3.2157,-3.23,-3.24,-2.9605,-3.0322,-3.1072,-3.1378,-3.1038,-3.0123,-2.8262,0.0,0.0,0.0,0.0,0.0,0.0,0.0,0.0,0.0,0.0,0.0,0.0,0.0,0.0,0.0,0.0,0.0,0.0,0.0,0.0,0.0,0.0,0.0,-3.3418,-3.3418,-3.3418,-3.3418,-3.3418,-3.3418,-3.3418,-3.3809,-3.4033,-3.4082,-3.4883,-3.5312,-3.54,-3.5791,-3.5986,-3.6016,-3.6016,-3.6016,0.0,-3.6016,-3.6016,-3.6016,-3.6016,-3.5996,-3.5859,-3.501,-3.4678,-3.4531,-3.3711,-3.3418,-3.3418,-3.3418,-3.3389,-3.3213,-3.2412,-3.2139,-3.1943,-3.1123,-3.0889,-3.0889,-3.0889,-3.0889,-3.0889,-3.0889,-3.0889,-3.0889,-3.0889,-3.0889,-3.0889,-3.0889,-3.0889,-3.0605,-2.9726,-2.9626,-2.9709,-3.0004,-3.0959,-3.2033,-3.3201,-3.4213,-3.4775,-3.4775,-3.4775,-3.4775,-3.4775,-3.4775,-3.4775,-3.4775,-3.4775,-3.4775,-3.4775,-3.5017,-3.5175,-3.5175,-3.4653,-3.4293,-3.4214,-3.3062,-3.2573,-3.2624,-3.2475,-3.24,-2.8868,-2.9316,-2.9599,-3.0194,-2.9677,-2.8751,-2.7711,0.0,0.0,0.0,-2.4202,-2.4202,-2.4202,0.0,0.0,0.0,0.0,0.0,0.0,0.0,0.0,0.0,0.0,0.0,0.0,0.0,0.0,0.0,0.0,0.0,-3.3418,-3.3418,-3.3418,-3.3418,-3.3672,-3.3809,-3.3809,-3.4238,-3.459,-3.4873,-3.5225,-3.5527,-3.5771,-3.5947,-3.6016,-3.6016,-3.6016,-3.6016,0.0,-3.6016,-3.6016,-3.6016,-3.6016,-3.6016,-3.5908,-3.5029,-3.4697,-3.458,-3.3721,-3.3418,-3.3418,-3.3418,-3.3418,-3.3262,-3.2422,-3.2229,-3.2053,-3.1133,-3.0889,-3.0889,-3.0889,-3.0889,-3.0889,-3.0889,-3.0889,-3.0889,-3.0889,-3.0889,-3.0889,-3.0889,-3.0889,-3.0605,-2.9726,-2.9626,-2.9919,-3.0787,-3.1319,-3.1982,-3.3051,-3.4115,-3.4568,-3.3918,-3.4421,-3.4775,-3.4775,-3.4775,-3.4775,-3.4775,-3.4775,-3.4775,-3.4775,-3.4872,-3.4981,-3.4981,-3.4776,-3.4339,-3.3689,-3.3515,-3.3114,-3.2519,-3.2736,-3.2822,-2.7863,-2.8287,-2.8528,-2.8969,-2.8353,-2.7516,0.0,0.0,0.0,-2.4384,-2.4202,-2.4202,-2.4202,0.0,0.0,0.0,0.0,0.0,0.0,0.0,0.0,0.0,0.0,0.0,0.0,0.0,0.0,0.0,0.0,0.0,-3.3603,-3.3613,-3.3613,-3.3613,-3.3916,-3.4131,-3.4258,-3.4687,-3.5068,-3.5391,-3.5517,-3.5732,-3.6016,-3.6016,-3.6016,-3.6016,-3.6016,-3.6016,0.0,-3.6016,-3.6016,-3.6016,-3.6016,-3.6016,-3.5908,-3.5029,-3.4697,-3.458,-3.3721,-3.3418,-3.3418,-3.3418,-3.3418,-3.3262,-3.2422,-3.2229,-3.2053,-3.1133,-3.0889,-3.0889,-3.0889,-3.0889,-3.0889,-3.0889,-3.0889,-3.0889,-3.0889,-3.0889,-3.0889,-3.0889,-3.0889,-3.0605,-2.9726,-2.9626,-2.9809,-3.0538,-3.0908,-3.1472,-3.2588,-3.3659,-3.4164,-3.3709,-3.4372,-3.4775,-3.4775,-3.4775,-3.4775,-3.4775,-3.4775,-3.4775,-3.4775,-3.4884,-3.4932,-3.4932,-3.4932,-3.4462,-3.3516,-3.3689,-3.3322,-3.2388,-3.2736,-3.2995,-2.6475,-2.7237,-2.8058,-2.7955,-2.7276,-2.6487,0.0,0.0,0.0,-2.4334,-2.4202,-2.4202,-2.4202,0.0,0.0,0.0,0.0,0.0,0.0,0.0,0.0,0.0,0.0,0.0,0.0,0.0,0.0,0.0,0.0,0.0,-3.4043,-3.4062,-3.4062,-3.4062,-3.4072,-3.4267,-3.4687,-3.5156,-3.5391,-3.54,-3.581,-3.6016,-3.6016,-3.6016,-3.6016,-3.6016,-3.6016,-3.6016,0.0,-3.6016,-3.6016,-3.6016,-3.6016,-3.6016,-3.5908,-3.5029,-3.4697,-3.458,-3.3721,-3.3418,-3.3418,-3.3418,-3.3418,-3.3262,-3.2422,-3.2229,-3.2053,-3.1133,-3.0889,-3.0889,-3.0889,-3.0889,-3.0889,-3.0889,-3.0889,-3.0889,-3.0889,-3.0889,-3.0889,-3.0889,-3.0889,-3.0605,-2.9726,-2.9626,-2.9333,-2.8472,-2.926,-3.0338,-3.1472,-3.2538,-3.361,-3.4677,-3.4775,-3.4775,-3.4775,-3.4775,-3.4775,-3.4775,-3.4775,-3.4775,-3.4775,-3.5078,-3.5223,-3.5223,-3.5223,-3.4795,-3.401,-3.3516,-3.3004,-3.24,-3.24,-3.2649,-2.5969,-2.6039,-2.6018,-2.6483,-2.5898,-2.5217,-2.5409,0.0,0.0,-2.4229,-2.4202,-2.4202,-2.4202,-2.4202,0.0,0.0,0.0,0.0,0.0,0.0,0.0,0.0,0.0,0.0,0.0,0.0,0.0,0.0,0.0,0.0,-3.4062,-3.4346,-3.4502,-3.4502,-3.4814,-3.5039,-3.5176,-3.5605,-3.582,-3.582,-3.5957,-3.6016,-3.6016,-3.6016,-3.6016,0.0,-3.6016,-3.6016,-3.6016,-3.6016,-3.6016,-3.6016,-3.6016,-3.584,-3.5517,-3.4922,-3.4521,-3.4189,-3.3623,-3.3418,-3.3418,-3.3418,-3.3418,-3.3262,-3.2422,-3.2229,-3.2053,-3.1133,-3.0889,-3.0889,-3.0889,-3.0889,-3.0889,-3.0889,-3.0889,-3.0889,-3.0889,-3.0889,-3.0889,-3.0889,-3.0889,-3.0605,-2.9726,-2.9626,-2.9544,-2.9391,-2.967,-3.0338,-3.1472,-3.2549,-3.335,-3.3659,-3.4372,-3.4775,-3.4775,-3.4775,-3.4775,-3.4775,-3.4775,-3.4775,-3.4775,-3.4884,-3.4932,-3.4932,-3.4571,-3.41,-3.3516,-3.3323,-3.2999,-3.2593,-3.2593,-3.2593,0.0,-2.5303,-2.5246,-2.5509,-2.5032,0.0,0.0,0.0,0.0,-2.4202,-2.4202,-2.4202,-2.4202,0.0,0.0,0.0,0.0,0.0,0.0,0.0,0.0,0.0,0.0,0.0,0.0,0.0,0.0,0.0,0.0,0.0,-3.4297,-3.4726,-3.5029,-3.5195,-3.5322,-3.5469,-3.5625,-3.5889,-3.6016,-3.6016,-3.6016,-3.6016,-3.6016,-3.6016,-3.6016,-3.6016,-3.6016,-3.6016,0.0,-3.6016,-3.6016,-3.6006,-3.584,-3.5625,-3.5322,-3.4687,-3.4297,-3.4004,-3.3574,-3.3418,-3.3418,-3.3418,-3.3203,-3.2851,-3.2324,-3.1943,-3.1572,-3.1045,-3.0889,-3.0889,-3.0889,-3.0889,-3.0889,-3.0889,-3.0889,-3.0889,-3.0889,-3.0889,-3.0889,-3.0889,-3.0889,-3.0605,-2.9726,-2.9626,-2.9544,-2.9349,-2.9313,-2.9723,-3.0805,-3.1931,-3.275,-3.3151,-3.4164,-3.4775,-3.4775,-3.4775,-3.4775,-3.4775,-3.4775,-3.4775,-3.4775,-3.4775,-3.4679,-3.4486,-3.4162,-3.3646,-3.2996,-3.2759,-3.2575,-3.2463,-3.255,-3.255,0.0,0.0,0.0,0.0,0.0,0.0,0.0,0.0,0.0,-2.4202,-2.4202,-2.4202,0.0,0.0,0.0,0.0,0.0,0.0,0.0,0.0,0.0,0.0,0.0,0.0,0.0,0.0,0.0,0.0,0.0,0.0,-3.4726,-3.5185,-3.5615,-3.6006,-3.5644,-3.5625,-3.6016,-3.6016,-3.6016,-3.6016,-3.6016,-3.6016,-3.6016,-3.6016,-3.6016,0.0,-3.6016,-3.6006,-3.5976,-3.5976,-3.5957,-3.5889,-3.5498,-3.5322,-3.5195,-3.4375,-3.4053,-3.3965,-3.3564,-3.3418,-3.3418,-3.3418,-3.2851,-3.2229,-3.2229,-3.1572,-3.0889,-3.0889,-3.0889,-3.0889,-3.0889,-3.0889,-3.0889,-3.0889,-3.0889,-3.0889,-3.0889,-3.0889,-3.0889,-3.0889,-3.0859,-3.0566,-2.9717,-2.9541,-2.9293,-2.8515,-2.8344,-2.8698,-2.9869,-3.0959,-3.2033,-3.3101,-3.4164,-3.4775,-3.4775,-3.4775,-3.4775,-3.4775,-3.4775,-3.4775,-3.4775,-3.4739,-3.4498,-3.4006,-3.3922,-3.344,-3.2442,-3.1958,-3.1805,-3.1994,-3.2257,-3.2475,-2.4251,0.0,-2.452,0.0,0.0,0.0,0.0,0.0,0.0,0.0,0.0,0.0,0.0,0.0,0.0,0.0,0.0,0.0,0.0,0.0,0.0,0.0,0.0,0.0,0.0,0.0,0.0,0.0,0.0,-3.5127,-3.5225,-3.5635,-3.5918,-3.6016,-3.5928,-3.5918,-3.6016,-3.6016,-3.6016,-3.6016,-3.6016,-3.6016,-3.6016,-3.6016,-3.6016,-3.6016,-3.6016,-3.584,-3.5537,-3.5537,-3.5332,-3.5,-3.4902,-3.4668,-3.4355,-3.415,-3.3857,-3.3555,-3.3457,-3.3418,-3.3418,-3.3418,-3.2851,-3.2229,-3.2229,-3.1572,-3.0889,-3.0889,-3.0889,-3.0889,-3.0889,-3.0889,-3.0889,-3.0889,-3.0889,-3.0889,-3.0889,-3.0889,-3.0889,-3.0889,-3.0605,-3.0195,-2.9658,-2.9287,-2.9159,-2.9499,-2.8804,-2.9016,-3.0959,-3.1421,-3.2033,-3.3101,-3.4164,-3.4775,-3.4775,-3.4775,-3.4775,-3.4775,-3.4775,-3.4775,-3.4775,-3.439,-3.4114,-3.3994,-3.326,-3.2629,-3.2099,-3.1821,-3.1805,-3.1994,-3.2081,-3.2213,-2.4202,-2.4202,-2.4202,-2.4202,-2.4202,-2.4202,0.0,0.0,0.0,0.0,0.0,0.0,0.0,0.0,0.0,0.0,0.0,0.0,0.0,0.0,0.0,0.0,0.0,0.0,0.0,0.0,0.0,0.0,0.0,-3.5391,-3.5391,-3.5791,-3.6016,-3.6016,-3.6016,-3.6016,-3.6016,-3.6016,-3.6016,-3.6016,-3.6016,-3.6016,-3.6016,-3.6016,-3.5918,-3.5732,-3.5732,-3.5478,-3.5078,-3.5078,-3.4922,-3.4678,-3.4492,-3.4267,-3.4053,-3.3848,-3.3623,-3.3418,-3.3418,-3.3418,-3.3389,-3.3193,-3.2695,-3.2129,-3.1934,-3.1406,-3.0889,-3.0889,-3.0889,-3.0889,-3.0889,-3.0889,-3.0889,-3.0889,-3.0889,-3.0889,-3.0889,-3.0889,-3.0889,-3.0889,-3.0518,-3.0068,-2.9648,-2.9209,-2.8987,-2.9119,-2.8644,-2.891,-3.0598,-3.1268,-3.2033,-3.3101,-3.4164,-3.4775,-3.4775,-3.4775,-3.4775,-3.4775,-3.4775,-3.4667,-3.4426,-3.4138,-3.3766,-3.3344,-3.2539,-3.2063,-3.1849,-3.1749,-3.1761,-3.1849,-3.195,-3.2125,-2.4128,-2.4202,-2.4334,-2.422,-2.4156,-2.4128,0.0,0.0,0.0,0.0,0.0,0.0,0.0,0.0,0.0,0.0,0.0,0.0,0.0,0.0,0.0,0.0,0.0,0.0,0.0,0.0,0.0,0.0,0.0,-3.5488,-3.5488,-3.583,-3.6016,-3.6016,-3.6016,-3.6016,-3.6016,-3.6016,-3.6016,-3.6016,-3.6016,-3.6016,-3.6016,-3.5957,-3.5732,-3.5391,0.0,0.0,-3.46,-3.46,-3.457,-3.4473,-3.4111,-3.3975,-3.3926,-3.3555,-3.3418,-3.3418,-3.3418,-3.3418,-3.335,-3.293,-3.251,-3.209,-3.165,-3.1221,-3.0889,-3.0889,-3.0889,-3.0889,-3.0889,-3.0889,-3.0889,-3.0889,-3.0889,-3.0889,-3.0889,-3.0889,-3.0869,-3.0801,-3.042,-2.9971,-2.9541,-2.9111,-2.8755,-2.8544,-2.8398,-2.8751,-2.9974,-3.1011,-3.2033,-3.3101,-3.4164,-3.4775,-3.4775,-3.4775,-3.4751,-3.4667,-3.4667,-3.439,-3.379,-3.3754,-3.331,-3.2394,-3.1946,-3.1705,-3.1705,-3.1705,-3.1705,-3.1705,-3.1893,-3.2081,-2.373,-2.4332,-2.4926,-2.4334,-2.3895,-2.373,0.0,0.0,0.0,0.0,0.0,0.0,0.0,0.0,0.0,0.0,0.0,0.0,0.0,0.0,0.0,0.0,0.0,0.0,0.0,0.0,0.0,0.0,0.0,-3.5928,-3.5928,-3.5986,-3.6016,-3.6016,-3.6016,-3.6016,-3.6016,-3.6016,-3.6016,-3.6016,-3.6016,-3.6016,-3.6006,-3.5654,-3.5459,-3.5371,0.0,-3.456,-3.417,-3.417,-3.3955,-3.3613,-3.3545,-3.3525,-3.3516,-3.3447,-3.3418,-3.3418,-3.3418,-3.3418,-3.335,-3.293,-3.251,-3.209,-3.165,-3.1221,-3.0889,-3.0889,-3.0889,-3.0889,-3.0889,-3.0889,-3.0889,-3.0889,-3.0889,-3.0889,-3.0889,-3.0889,-3.0771,-3.0381,-2.9961,-2.9531,-2.9092,-2.8672,-2.867,-2.9523,-2.891,-2.9069,-3.1062,-3.1472,-3.2033,-3.3101,-3.4164,-3.4775,-3.4775,-3.4775,-3.4595,-3.4138,-3.4114,-3.3682,-3.2779,-3.2743,-3.2442,-3.1849,-3.1753,-3.1705,-3.1705,-3.1705,-3.1705,-3.1705,-3.1705,-3.1849,-2.3544,-2.3705,-2.4082,-2.4612,-2.4842,-2.5017,0.0,0.0,0.0,0.0,0.0,0.0,0.0,0.0,0.0,0.0,0.0,0.0,0.0,0.0,0.0,0.0,0.0,0.0,0.0,0.0,0.0,0.0,0.0,0.0,-3.5312,-3.5312,-3.5312,-3.5312,-3.5312,-3.5312,-3.5312,-3.5312,-3.5547,-3.6016,-3.6016,-3.5898,-3.5674,-3.5478,-3.5137,-3.4668,0.0,-3.4121,-3.3721,-3.3721,-3.3603,-3.3418,-3.3418,-3.3418,-3.3418,-3.3418,-3.3418,-3.3418,-3.3418,-3.3418,-3.331,-3.2666,-3.2324,-3.2041,-3.1377,-3.1045,-3.0889,-3.0889,-3.0889,-3.0889,-3.0889,-3.0889,-3.0889,-3.0889,-3.0889,-3.0889,-3.0889,-3.0889,-3.0752,-3.0293,-2.9853,-2.9434,-2.8994,-2.8574,-2.8441,-2.8953,-2.9112,-2.9723,-3.137,-3.2083,-3.2901,-3.3967,-3.4519,-3.4775,-3.4775,-3.4522,-3.4246,-3.4006,-3.3466,-3.2996,-3.2527,-3.2214,-3.1925,-3.1717,-3.1705,-3.1705,-3.1705,-3.1705,-3.1705,-3.1705,-3.1705,-3.1805,-2.3304,-2.327,-2.3503,0.0,0.0,0.0,0.0,0.0,0.0,0.0,0.0,0.0,0.0,0.0,0.0,0.0,0.0,0.0,0.0,0.0,0.0,0.0,0.0,0.0,0.0,0.0,0.0,0.0,0.0,0.0,-3.4697,-3.4697,-3.4697,-3.4697,-3.4697,-3.4697,-3.4697,-3.4697,-3.5039,-3.5713,-3.5713,-3.5547,-3.5225,-3.5127,-3.4717,-3.4062,-3.3965,-3.373,-3.3418,-3.3418,-3.3418,-3.3418,-3.3418,-3.3418,-3.3418,-3.3418,-3.3418,-3.3418,-3.3418,-3.3359,-3.3154,-3.2412,-3.216,-3.1875,-3.1113,-3.0889,-3.0889,-3.0889,-3.0889,-3.0889,-3.0889,-3.0889,-3.0889,-3.0889,-3.0889,-3.0889,-3.0889,-3.0801,-3.0596,-3.0137,-2.9707,-2.9277,-2.8848,-2.8506,-2.8291,-2.8291,-2.9207,-3.0338,-3.1472,-3.2549,-3.361,-3.4677,-3.4775,-3.4727,-3.4607,-3.4006,-3.3634,-3.3634,-3.2935,-3.2442,-3.231,-3.1934,-3.1705,-3.1705,-3.1705,-3.1705,-3.1705,-3.1705,-3.1705,-3.1705,-3.1705,-3.1793,-2.2639,-2.3365,-2.4137,-2.422,0.0,0.0,0.0,0.0,0.0,0.0,0.0,0.0,0.0,0.0,0.0,0.0,0.0,0.0,0.0,0.0,0.0,0.0,0.0,0.0,0.0,0.0,0.0,0.0,0.0,0.0,-3.4697,-3.4697,-3.4697,-3.4697,-3.4697,-3.4697,-3.4697,-3.4697,-3.4736,-3.4795,-3.4795,-3.4775,-3.4736,-3.4346,-3.4131,-3.4053,-3.3643,-3.3447,-3.3418,-3.3418,-3.3418,-3.3418,-3.3418,-3.3418,-3.3418,-3.3418,-3.3418,-3.3418,-3.3418,-3.3164,-3.2764,-3.2314,-3.1894,-3.1484,-3.1025,-3.0889,-3.0889,-3.0889,-3.0889,-3.0889,-3.0889,-3.0889,-3.0889,-3.0889,-3.0889,-3.0889,-3.0889,-3.0547,-3.0127,-2.9697,-2.9258,-2.8828,-2.8408,-2.831,-2.8291,-2.8291,-2.9207,-3.0338,-3.1472,-3.2549,-3.361,-3.4677,-3.4775,-3.4583,-3.409,-3.3188,-3.2611,-3.2611,-3.2539,-3.2262,-3.1789,-3.1729,-3.1705,-3.1705,-3.1705,-3.1705,-3.1705,-3.1705,-3.1705,-3.1705,-3.1705,-3.1705,-2.1962,-2.2867,-2.3806,-2.3669,0.0,0.0,0.0,0.0,0.0,0.0,0.0,0.0,0.0,0.0,0.0,0.0,0.0,0.0,0.0,0.0,0.0,0.0,0.0,0.0,0.0,0.0,0.0,0.0,0.0,0.0,-3.3906,-3.3906,-3.3906,-3.3906,-3.3906,-3.3906,-3.3906,-3.3906,-3.3906,-3.3906,-3.4443,-3.456,-3.4307,-3.415,-3.3926,-3.3652,-3.3496,-3.3418,-3.3418,-3.3418,-3.3418,-3.3418,-3.3418,-3.3418,-3.3418,-3.3418,-3.3418,-3.3379,-3.3125,-3.293,-3.2685,-3.1982,-3.165,-3.1435,-3.1016,-3.0889,-3.0889,-3.0889,-3.0889,-3.0889,-3.0889,-3.0889,-3.0889,-3.0889,-3.0889,-3.081,-3.0518,-3.0322,-2.999,-2.9297,-2.9033,-2.8789,-2.8369,-2.8291,-2.8291,-2.8291,-2.9828,-3.0856,-3.0598,-3.2072,-3.3101,-3.2851,-3.3123,-3.3001,-3.2219,-3.234,-3.2346,-3.1997,-3.1985,-3.1934,-3.1717,-3.1705,-3.1705,-3.1705,-3.1705,-3.1705,-3.1705,-3.1705,-3.1705,-3.1705,-3.1705,-3.1705,-2.2042,-2.2684,-2.3416,0.0,0.0,0.0,0.0,0.0,0.0,0.0,0.0,0.0,0.0,0.0,0.0,0.0,0.0,0.0,0.0,0.0,0.0,0.0,0.0,0.0,0.0,0.0,0.0,0.0,0.0,0.0,0.0,-3.3418,-3.3418,-3.3418,-3.3418,-3.3418,-3.3418,-3.3418,-3.3418,-3.3428,-3.4014,-3.415,-3.3867,-3.3867,-3.3701,-3.3418,-3.3418,-3.3418,-3.3418,-3.3418,-3.3418,-3.3418,-3.3418,-3.3418,-3.3418,-3.3418,-3.334,-3.3184,-3.29,-3.2617,-3.2295,-3.1709,-3.1426,-3.1269,-3.0976,-3.0889,-3.0889,-3.0889,-3.0889,-3.0889,-3.0889,-3.0889,-3.0889,-3.0889,-3.0781,-3.0586,-3.0264,-2.998,-2.9619,-2.9033,-2.8809,-2.8633,-2.834,-2.8291,-2.8291,-2.8291,-3.0193,-3.1165,-3.0026,-3.1819,-3.2833,-3.1923,-3.1935,-3.1803,-3.1507,-3.196,-3.207,-3.1729,-3.1705,-3.1705,-3.1705,-3.1705,-3.1705,-3.1705,-3.1705,-3.1705,-3.1705,-3.1705,-3.1705,-3.1705,-3.1705,-3.1705,-2.3021,-2.2949,0.0,0.0,0.0,0.0,0.0,0.0,0.0,0.0,0.0,0.0,0.0,0.0,0.0,0.0,0.0,0.0,0.0,0.0,0.0,0.0,0.0,0.0,0.0,0.0,0.0,0.0,0.0,0.0,0.0,-3.3408,-3.3408,-3.3408,-3.3408,-3.3408,-3.3408,-3.3408,-3.3408,-3.3408,-3.3408,-3.3418,-3.3418,-3.3418,-3.3418,-3.3418,-3.3418,-3.3418,-3.3418,-3.3418,-3.3418,-3.3418,-3.3418,-3.3418,-3.3418,-3.3418,-3.3144,-3.2793,-3.2783,-3.2226,-3.1514,-3.1514,-3.123,-3.0889,-3.0889,-3.0889,-3.0889,-3.0889,-3.0889,-3.0889,-3.0889,-3.0889,-3.0889,-3.0889,-3.0537,-3.0195,-3.0195,-2.9521,-2.8916,-2.8916,-2.8574,-2.8291,-2.8291,-2.8291,-2.8291,-2.8291,-3.0193,-3.1154,-3.0026,-3.1807,-3.2944,-3.2391,-3.1512,-3.1402,-3.24,-3.1985,-3.1705,-3.1705,-3.1705,-3.1705,-3.1705,-3.1705,-3.1705,-3.1705,-3.1705,-3.1705,-3.1705,-3.1705,-3.1705,-3.1705,-3.1705,-3.1705,-2.1098,0.0,0.0,0.0,0.0,0.0,0.0,0.0,0.0,0.0,0.0,0.0,0.0,0.0,0.0,0.0,0.0,0.0,0.0,0.0,0.0,0.0,0.0,0.0,0.0,0.0,0.0,0.0,0.0,0.0,0.0,-3.2539,-3.2539,-3.2539,-3.2539,-3.2539,-3.2539,-3.2539,-3.2539,-3.2539,-3.2539,-3.2851,-3.3418,-3.3418,-3.3418,-3.3418,-3.3418,-3.3418,-3.3418,-3.3418,-3.3418,-3.3418,-3.3418,-3.3242,-3.2978,-3.2978,-3.2715,-3.2305,-3.2002,-3.1728,-3.1465,-3.1172,-3.0996,-3.0889,-3.0889,-3.0889,-3.0889,-3.0889,-3.0889,-3.0889,-3.0889,-3.0889,-3.0889,-3.0889,-3.0537,-3.0117,-2.9824,-2.9316,-2.8838,-2.8535,-2.8379,-2.8291,-2.8291,-2.8291,-2.8291,-2.8291,-2.9523,-3.0171,-2.9549,-2.9415,-2.9319,-2.9228,-2.9598,-3.0092,-3.081,-3.1377,-3.1705,-3.1705,-3.1705,-3.1705,-3.1705,-3.1705,-3.1705,-3.1705,-3.1705,-3.1705,-3.1705,-3.1705,-3.1705,-3.1705,-3.1705,-3.1705,0.0,0.0,0.0,0.0,0.0,0.0,0.0,0.0,0.0,0.0,0.0,0.0,0.0,0.0,0.0,0.0,0.0,0.0,0.0,0.0,0.0,0.0,0.0,0.0,0.0,0.0,0.0,0.0,0.0,0.0,0.0,-3.2229,-3.2229,-3.2229,-3.2229,-3.2229,-3.2229,-3.2229,-3.2229,-3.2229,-3.2229,-3.2432,-3.292,-3.292,-3.292,-3.292,-3.292,-3.292,-3.292,-3.292,-3.292,-3.292,-3.292,-3.2764,-3.2549,-3.2549,-3.2275,-3.1875,-3.1611,-3.1406,-3.123,-3.0976,-3.0889,-3.0889,-3.0889,-3.0889,-3.0889,-3.0889,-3.0889,-3.0889,-3.0889,-3.0752,-3.0615,-3.0615,-3.0273,-2.9834,-2.9404,-2.8975,-2.8594,-2.834,-2.8291,-2.8291,-2.8291,-2.8291,-2.8291,-2.8291,-2.8707,-2.9114,-2.929,-2.8064,-2.7501,-2.8355,-2.8821,-2.9522,-3.0701,-3.1339,-3.1705,-3.1705,-3.1705,-3.1705,-3.1705,-3.1705,-3.1705,-3.1705,-3.1705,-3.1705,-3.1705,-3.1705,-3.1705,-3.1705,-3.1705,-3.1705,0.0,0.0,0.0,0.0,0.0,0.0,0.0,0.0,0.0,0.0,0.0,0.0,0.0,0.0,0.0,0.0,0.0,0.0,0.0,0.0,0.0,0.0,0.0,0.0,0.0,0.0,0.0,0.0,0.0,0.0,0.0,-3.2051,-3.2051,-3.2051,-3.2051,-3.2051,-3.2051,-3.2051,-3.2051,-3.2051,-3.2051,-3.2051,-3.2051,-3.2129,-3.2229,-3.2229,-3.2229,-3.2229,-3.2229,-3.2229,-3.2229,-3.2229,-3.2229,-3.2148,-3.2109,-3.2109,-3.1836,-3.1465,-3.1465,-3.1211,-3.0889,-3.0889,-3.0889,-3.0889,-3.0889,-3.0889,-3.0889,-3.0889,-3.0889,-3.0879,-3.084,-3.0518,-3.0176,-3.0098,-2.9785,-2.9404,-2.9004,-2.8584,-2.8291,-2.8291,-2.8291,-2.8291,-2.8291,-2.8291,-2.8281,-2.8242,-2.791,-2.8034,-2.8901,-2.7543,-2.7179,-2.8929,-2.8953,-2.9567,-3.1427,-3.1661,-3.1705,-3.1705,-3.1705,-3.1705,-3.1705,-3.1705,-3.1705,-3.1705,-3.1705,-3.1705,-3.1705,-3.1705,-3.1705,-3.1705,-3.1705,-3.1705,0.0,0.0,0.0,0.0,0.0,0.0,0.0,0.0,0.0,0.0,0.0,0.0,0.0,0.0,0.0,0.0,0.0,0.0,0.0,0.0,0.0,0.0,0.0,0.0,0.0,0.0,0.0,0.0,0.0,0.0,-3.1162,-3.1162,-3.1162,-3.1162,-3.1162,-3.1162,-3.1162,-3.1162,-3.1162,-3.1162,-3.1162,-3.1162,-3.1191,-3.1865,-3.2229,-3.2229,-3.2229,-3.2229,-3.2229,-3.2229,-3.2229,-3.2229,-3.2229,-3.1963,-3.166,-3.166,-3.1387,-3.1025,-3.1025,-3.0967,-3.0889,-3.0889,-3.0889,-3.0889,-3.0889,-3.0889,-3.0889,-3.0889,-3.0889,-3.081,-3.0439,-3.0273,-3.0029,-2.9355,-2.9121,-2.9033,-2.8935,-2.8584,-2.8291,-2.8291,-2.8291,-2.8291,-2.8291,-2.8291,-2.8174,-2.7904,-2.7777,-2.7525,-2.7091,-2.737,-2.7585,-2.7662,-2.8978,-3.0022,-3.0498,-3.1238,-3.1705,-3.1705,-3.1705,-3.1705,-3.1705,-3.1705,-3.1705,-3.1705,-3.1705,-3.1705,-3.1705,-3.1705,-3.1705,-3.1705,-3.1705,-3.1705,0.0,0.0,0.0,0.0,0.0,0.0,0.0,0.0,0.0,0.0,0.0,0.0,0.0,0.0,0.0,0.0,0.0,0.0,0.0,0.0,0.0,0.0,0.0,0.0,0.0,0.0,0.0,0.0,0.0,-3.0889,-3.0889,-3.0889,-3.0889,-3.0889,-3.0889,-3.0889,-3.0889,-3.0889,-3.0889,-3.0889,-3.0889,-3.0889,-3.0908,-3.1357,-3.1562,-3.1562,-3.1562,-3.1562,-3.1562,-3.1562,-3.1562,-3.1562,-3.1562,-3.1416,-3.1211,-3.1211,-3.1074,-3.0889,-3.0889,-3.0889,-3.0889,-3.0889,-3.0889,-3.0889,-3.0889,-3.0889,-3.0889,-3.0889,-3.0732,-3.0508,-3.0264,-2.9893,-2.9473,-2.9023,-2.8916,-2.8867,-2.8662,-2.8447,-2.8291,-2.8291,-2.8291,-2.8291,-2.8291,-2.8125,-2.792,-2.7748,-2.7314,-2.6894,-2.6445,-2.6685,-2.6921,-2.7163,-2.8588,-2.9704,-3.017,-3.1104,-3.1705,-3.1705,-3.1705,-3.1705,-3.1705,-3.1705,-3.1705,-3.1705,-3.1705,-3.1705,-3.1705,-3.1705,-3.1705,-3.1705,-3.1705,-3.1705,0.0,0.0,0.0,0.0,0.0,0.0,0.0,0.0,0.0,0.0,0.0,0.0,0.0,0.0,0.0,0.0,0.0,0.0,0.0,0.0,0.0,0.0,0.0,0.0,0.0,0.0,0.0,0.0,0.0,-3.0889,-3.0889,-3.0889,-3.0889,-3.0889,-3.0889,-3.0889,-3.0889,-3.0889,-3.0889,-3.0889,-3.0889,-3.0889,-3.0889,-3.0889,-3.0889,-3.0889,-3.0889,-3.0889,-3.0889,-3.0889,-3.0889,-3.0889,-3.0889,-3.0889,-3.0889,-3.0889,-3.0889,-3.0889,-3.0889,-3.0889,-3.0889,-3.0889,-3.0889,-3.0889,-3.0889,-3.083,-3.0771,-3.0771,-3.0439,-3.0068,-2.999,-2.9443,-2.8896,-2.8828,-2.8809,-2.8711,-2.8369,-2.8291,-2.8291,-2.8291,-2.8291,-2.8271,-2.8193,-2.7891,-2.7669,-2.7523,-2.6846,-2.6357,-2.6289,-2.6094,-2.6284,-2.7094,-2.8262,-2.928,-3.0125,-3.1104,-3.1705,-3.1705,-3.1705,-3.1705,-3.1705,-3.1705,-3.1705,-3.1705,-3.1705,-3.1705,-3.1705,-3.1705,-3.1705,-3.1705,-3.1705,-3.1705,0.0,0.0,0.0,0.0,0.0,0.0,0.0,0.0,0.0,0.0,0.0,0.0,0.0,0.0,0.0,0.0,0.0,0.0,0.0,0.0,0.0,0.0,0.0,0.0,0.0,0.0,0.0,0.0,-3.0889,-3.0889,-3.0889,-3.0889,-3.0889,-3.0889,-3.0889,-3.0889,-3.0889,-3.0889,-3.0889,-3.0889,-3.0889,-3.0889,-3.0889,-3.0889,-3.0889,-3.0889,-3.0889,-3.0889,-3.0889,-3.0889,-3.0889,-3.0889,-3.0889,-3.0889,-3.0889,-3.0889,-3.0889,-3.0889,-3.0889,-3.0889,-3.0889,-3.0889,-3.0889,-3.0889,-3.0889,-3.0605,-3.0293,-3.0293,-2.998,-2.957,-2.9189,-2.9004,-2.8828,-2.8467,-2.8379,-2.8359,-2.8301,-2.8291,-2.8291,-2.8291,-2.8291,-2.8174,-2.7812,-2.7757,-2.7412,-2.667,-2.6465,-2.625,-2.583,-2.6496,-2.7047,-2.7189,-2.8866,-3.0022,-3.017,-3.1104,-3.1705,-3.1705,-3.1705,-3.1705,-3.1705,-3.1705,-3.1705,-3.1705,-3.1705,-3.1705,-3.1705,-3.1705,-3.1705,-3.1705,-3.1705,-3.1705,0.0,0.0,0.0,0.0,0.0,0.0,0.0,0.0,0.0,0.0,0.0,0.0,0.0,0.0,0.0,0.0,0.0,0.0,0.0,0.0,0.0,0.0,0.0,0.0,0.0,0.0,0.0,0.0,-3.0146,-3.0146,-3.0146,-3.0146,-3.0146,-3.0146,-3.0146,-3.0146,-3.0146,-3.0381,-3.0635,-3.0889,-3.0889,-3.0889,-3.0889,-3.0889,-3.0889,-3.0889,-3.0889,-3.0889,-3.0889,-3.0889,-3.0889,-3.0889,-3.0889,-3.0889,-3.0889,-3.0889,-3.0889,-3.0889,-3.0889,-3.0889,-3.0889,-3.0889,-3.0713,-3.0508,-3.0508,-3.0195,-2.9844,-2.9844,-2.9531,-2.916,-2.8965,-2.874,-2.8525,-2.834,-2.8291,-2.8291,-2.8291,-2.8291,-2.8291,-2.8291,-2.8105,-2.7933,-2.7748,-2.7317,-2.6826,-2.6445,-2.6182,-2.5908,-2.5713,-2.66,-2.6962,-2.6418,-2.8179,-2.9143,-2.8588,-2.9418,-3.0022,-3.0022,-3.0543,-3.0869,-3.0869,-3.1383,-3.1705,-3.1705,-3.1705,-3.1705,-3.1705,-3.1705,-3.1705,-3.1705,-3.1705,-3.1705,0.0,0.0,0.0,0.0,0.0,0.0,0.0,0.0,0.0,0.0,0.0,0.0,0.0,0.0,0.0,0.0,0.0,0.0,0.0,0.0,0.0,0.0,0.0,0.0,0.0,0.0,0.0,0.0,-2.9458,-2.9514,-2.9626,-2.9626,-2.9626,-2.9626,-2.9626,-2.9626,-2.9626,-2.9883,-3.0215,-3.0557,-3.0557,-3.0557,-3.0557,-3.0557,-3.0557,-3.0566,-3.0791,-3.0889,-3.0889,-3.0889,-3.0889,-3.0889,-3.0889,-3.0889,-3.0889,-3.0889,-3.0889,-3.0869,-3.0752,-3.0713,-3.0693,-3.0596,-3.0322,-3.0039,-3.0039,-2.9746,-2.9404,-2.9404,-2.9092,-2.876,-2.876,-2.8525,-2.8291,-2.8291,-2.8291,-2.8291,-2.8291,-2.8291,-2.8262,-2.8154,-2.7933,-2.765,-2.7434,-2.6816,-2.6357,-2.624,-2.5947,-2.5693,-2.5693,-2.66,-2.6914,-2.6139,-2.7662,-2.8402,-2.7652,-2.8262,-2.8819,-2.905,-2.9795,-3.0306,-3.0588,-3.1294,-3.1705,-3.1705,-3.1705,-3.1705,-3.1705,-3.1705,-3.1705,-3.1705,-3.1705,-3.1705,0.0,0.0,0.0,0.0,0.0,0.0,0.0,0.0,0.0,0.0,0.0,0.0,0.0,0.0,0.0,0.0,0.0,0.0,0.0,0.0,0.0,0.0,0.0,0.0,0.0,0.0,0.0,0.0,-2.9122,-2.9234,-2.957,-2.9626,-2.9626,-2.9626,-2.9626,-2.9626,-2.9626,-2.959,-2.9619,-2.9695,-2.9695,-2.9695,-2.9695,-2.9695,-2.9695,-2.9687,-3.0527,-3.0889,-3.0889,-3.0889,-3.0889,-3.0889,-3.0889,-3.0889,-3.0889,-3.0889,-3.0889,-3.083,-3.0391,-3.0234,-3.0166,-2.9766,-2.9675,-2.96,-2.96,-2.9297,-2.8955,-2.8955,-2.8652,-2.833,-2.833,-2.831,-2.8291,-2.8291,-2.8291,-2.8291,-2.8291,-2.8291,-2.8174,-2.7826,-2.7738,-2.7464,-2.6602,-2.6416,-2.625,-2.5781,-2.5703,-2.5693,-2.5693,-2.66,-2.7189,-2.7142,-2.8075,-2.868,-2.8634,-2.868,-2.9096,-3.0068,-3.017,-3.0633,-3.1572,-3.1661,-3.1705,-3.1705,-3.1705,-3.1705,-3.1705,-3.1705,-3.1705,-3.1705,-3.1705,-3.1705,0.0,0.0,0.0,0.0,0.0,0.0,0.0,0.0,0.0,0.0,0.0,0.0,0.0,0.0,0.0,0.0,0.0,0.0,0.0,0.0,0.0,0.0,0.0,0.0,0.0,0.0,0.0,0.0,0.0,-2.8041,-2.8195,-2.8205,-2.8205,-2.8205,-2.8205,-2.8339,-2.8607,-2.8995,-2.9186,-2.929,-2.9514,-2.9626,-2.9626,-2.9626,-2.9626,-2.9646,-2.9902,-3.0039,-3.0039,-3.0039,-3.0039,-3.0039,-3.0039,-3.0039,-3.0039,-3.0039,-3.0039,-3.0019,-2.9853,-2.9795,-2.9766,-2.9675,-2.9385,-2.915,-2.915,-2.8857,-2.8516,-2.8516,-2.8408,-2.8291,-2.8291,-2.8291,-2.8291,-2.8291,-2.8291,-2.8223,-2.7949,-2.7891,-2.7851,-2.7748,-2.7226,-2.6748,-2.6435,-2.6162,-2.5869,-2.5713,-2.5693,-2.5693,-2.5693,-2.66,-2.6962,-2.6332,-2.7152,-2.7746,-2.7746,-2.7746,-2.8168,-2.9189,-2.9841,-3.0351,-3.0722,-3.1383,-3.1705,-3.1705,-3.1705,-3.1705,-3.1705,-3.1705,-3.1705,-3.1705,-3.1705,-3.1705,0.0,0.0,0.0,0.0,0.0,0.0,0.0,0.0,0.0,0.0,0.0,0.0,0.0,0.0,0.0,0.0,0.0,0.0,0.0,0.0,0.0,0.0,0.0,0.0,0.0,0.0,0.0,0.0,0.0,0.0,-2.7377,-2.7377,-2.7377,-2.7377,-2.7377,-2.7564,-2.7848,-2.8221,-2.853,-2.8699,-2.892,-2.9085,-2.9141,-2.9141,-2.9141,-2.9141,-2.9141,-2.9307,-2.9626,-2.9626,-2.9626,-2.9626,-2.9626,-2.9626,-2.9626,-2.9626,-2.9626,-2.9607,-2.9404,-2.9355,-2.9326,-2.9189,-2.8945,-2.8711,-2.8711,-2.8516,-2.8291,-2.8291,-2.8291,-2.8291,-2.8291,-2.8291,-2.8262,-2.8115,-2.8086,-2.7969,-2.7539,-2.7568,-2.763,-2.7346,-2.6777,-2.6338,-2.6191,-2.5928,-2.5693,-2.5693,-2.5693,-2.5693,-2.5693,-2.66,-2.6819,-2.583,-2.66,-2.7189,-2.7189,-2.7189,-2.7793,-2.9143,-2.9841,-3.0351,-3.0678,-3.1339,-3.1705,-3.1705,-3.1705,-3.1705,-3.1705,-3.1705,-3.1705,-3.1705,-3.1705,-3.1705,0.0,0.0,0.0,0.0,0.0,0.0,0.0,0.0,0.0,0.0,0.0,0.0,0.0,0.0,0.0,0.0,0.0,0.0,0.0,0.0,0.0,0.0,0.0,0.0,0.0,0.0,0.0,0.0,-2.6989,-2.7098,-2.7377,-2.7377,-2.7377,-2.7377,-2.7377,-2.7377,-2.7377,-2.7377,-2.7584,-2.7853,-2.7906,-2.8014,-2.8291,-2.8291,-2.8291,-2.8291,-2.8291,-2.876,-2.9531,-2.9531,-2.9531,-2.9531,-2.9531,-2.9531,-2.9531,-2.9531,-2.9531,-2.9528,-2.9053,-2.8896,-2.8838,-2.8428,-2.8291,-2.8291,-2.8291,-2.8291,-2.8291,-2.8291,-2.8291,-2.8291,-2.8281,-2.8262,-2.8144,-2.7744,-2.7699,-2.7529,-2.709,-2.7334,-2.7434,-2.6553,-2.6377,-2.623,-2.5762,-2.5693,-2.5693,-2.5693,-2.5693,-2.5693,-2.5693,-2.6552,-2.6781,-2.5781,-2.66,-2.7237,-2.7237,-2.7274,-2.8121,-3.0125,-3.0215,-3.0678,-3.1661,-3.1705,-3.1705,-3.1705,-3.1705,-3.1705,-3.1705,-3.1705,-3.1705,-3.1705,-3.1705,-3.1705,-1.9533,0.0,0.0,0.0,0.0,0.0,0.0,0.0,0.0,0.0,0.0,0.0,0.0,0.0,0.0,0.0,0.0,0.0,0.0,0.0,0.0,0.0,0.0,0.0,0.0,0.0,0.0,0.0,-2.6691,-2.6745,-2.68,-2.68,-2.68,-2.68,-2.6999,-2.6999,-2.68,-2.7215,-2.7368,-2.726,-2.7422,-2.7593,-2.7647,-2.7647,-2.7647,-2.7647,-2.7647,-2.7933,-2.8372,-2.8588,-2.8643,-2.8643,-2.8643,-2.8643,-2.8643,-2.8643,-2.8643,-2.8633,-2.8506,-2.8467,-2.8447,-2.833,-2.8291,-2.8291,-2.8291,-2.8291,-2.8291,-2.8291,-2.8291,-2.8223,-2.792,-2.7607,-2.7344,-2.7217,-2.7197,-2.708,-2.665,-2.666,-2.667,-2.6435,-2.6133,-2.583,-2.5713,-2.5693,-2.5693,-2.5693,-2.5693,-2.5693,-2.5693,-2.5965,-2.6004,-2.5732,-2.66,-2.751,-2.8215,-2.8958,-2.9932,-3.1193,-3.1104,-3.1116,-3.1395,-3.1395,-3.1395,-3.1395,-3.1617,-3.1705,-3.1705,-3.1705,-3.1705,-3.1705,-3.1705,-3.1705,0.0,0.0,0.0,0.0,0.0,0.0,-2.1544,-2.1757,0.0,0.0,0.0,0.0,0.0,0.0,0.0,0.0,0.0,0.0,0.0,0.0,0.0,0.0,0.0,0.0,0.0,-2.6078,-2.6078,-2.6078,-2.6078,-2.6078,-2.6078,-2.6078,-2.6078,-2.6078,-2.6229,-2.6356,-2.6325,-2.6639,-2.6875,-2.6989,-2.7152,-2.7314,-2.7377,-2.7377,-2.7377,-2.7377,-2.7377,-2.753,-2.7691,-2.8014,-2.8184,-2.8291,-2.8291,-2.8291,-2.8291,-2.8291,-2.8291,-2.8291,-2.8291,-2.8291,-2.8291,-2.8184,-2.8121,-2.813,-2.797,-2.7898,-2.7859,-2.7859,-2.7785,-2.7705,-2.7461,-2.7207,-2.6973,-2.6797,-2.6647,-2.648,-2.6052,-2.5965,-2.5965,-2.6064,-2.5908,-2.5693,-2.5693,-2.5693,-2.5693,-2.5693,-2.5693,-2.5635,-2.5538,-2.5538,-2.5489,-2.5382,-2.5887,-2.6856,-2.8402,-2.8958,-2.9886,-3.1439,-3.1318,-3.1184,-3.1184,-3.1184,-3.1184,-3.1184,-3.1318,-3.1407,-3.1407,-3.1496,-3.1496,-3.1407,-3.1407,-3.1451,0.0,0.0,0.0,0.0,0.0,0.0,-2.1743,-2.1937,-2.23,0.0,0.0,0.0,0.0,0.0,0.0,0.0,0.0,0.0,0.0,0.0,0.0,0.0,0.0,0.0,-2.5424,-2.5424,-2.5424,-2.5424,-2.5424,-2.5424,-2.5424,-2.5424,-2.5424,-2.5424,-2.5424,-2.5589,-2.5938,-2.5947,-2.6229,-2.6805,-2.6805,-2.6967,-2.7182,-2.7182,-2.7182,-2.7182,-2.7182,-2.7182,-2.7236,-2.7548,-2.7883,-2.8237,-2.8291,-2.8291,-2.8237,-2.8237,-2.8237,-2.8184,-2.8184,-2.8184,-2.8174,-2.7858,-2.7785,-2.7722,-2.7353,-2.7184,-2.7141,-2.7193,-2.7059,-2.6943,-2.6943,-2.6853,-2.6727,-2.6356,-2.606,-2.5745,-2.537,-2.5235,-2.5342,-2.5538,-2.5635,-2.5693,-2.5693,-2.5684,-2.5635,-2.5635,-2.5635,-2.5538,-2.5284,-2.5235,-2.5137,-2.4932,-2.5118,-2.6061,-2.8075,-2.8157,-2.8993,-3.1116,-3.096,-3.0838,-3.0927,-3.0972,-3.0972,-3.0972,-3.0984,-3.0984,-3.0972,-3.1184,-3.1184,-3.0984,-3.0984,-3.1107,0.0,0.0,0.0,0.0,0.0,0.0,-2.0563,-2.0365,-2.0429,0.0,0.0,0.0,0.0,0.0,0.0,0.0,0.0,0.0,0.0,0.0,0.0,0.0,0.0,0.0,-2.5424,-2.5424,-2.5424,-2.5424,-2.5424,-2.5424,-2.5424,-2.5424,-2.5424,-2.5424,-2.5424,-2.546,-2.5534,-2.5534,-2.5571,-2.5706,-2.5706,-2.5758,-2.5811,-2.5811,-2.5811,-2.5811,-2.5811,-2.5915,-2.6134,-2.6186,-2.694,-2.8014,-2.8237,-2.8184,-2.796,-2.796,-2.7799,-2.7593,-2.7593,-2.7593,-2.7536,-2.715,-2.6992,-2.6926,-2.6575,-2.6569,-2.6769,-2.6975,-2.6785,-2.6514,-2.6514,-2.6091,-2.5613,-2.5526,-2.531,-2.5085,-2.5,-2.4981,-2.4981,-2.5039,-2.5391,-2.5693,-2.5693,-2.5538,-2.5382,-2.5382,-2.5186,-2.5039,-2.4981,-2.4981,-2.4981,-2.4883,-2.633,-2.75,-2.7923,-2.8659,-2.9658,-3.0972,-3.008,-2.9829,-3.0623,-3.0679,-3.0679,-3.0679,-3.0871,-3.0871,-3.0679,-3.0916,-3.1017,-3.0984,-3.0984,-3.1107,0.0,0.0,0.0,-1.9517,0.0,0.0,0.0,-2.0332,-2.0478,0.0,0.0,0.0,0.0,0.0,0.0,0.0,0.0,0.0,0.0,0.0,0.0,0.0,0.0,0.0,-2.4808,-2.4808,-2.4808,-2.4808,-2.4808,-2.4808,-2.4808,-2.4808,-2.4808,-2.4808,-2.4808,-2.4918,-2.5078,-2.5078,-2.5179,-2.5424,-2.5424,-2.5424,-2.5424,-2.5424,-2.5424,-2.5424,-2.5424,-2.5476,-2.5631,-2.5735,-2.6238,-2.6869,-2.7175,-2.7165,-2.706,-2.706,-2.6965,-2.6797,-2.6797,-2.6797,-2.6769,-2.6422,-2.6304,-2.6266,-2.5886,-2.5825,-2.5863,-2.6075,-2.5913,-2.566,-2.566,-2.5398,-2.5088,-2.5088,-2.4883,-2.4686,-2.4686,-2.4686,-2.4686,-2.4686,-2.5039,-2.5284,-2.5284,-2.5186,-2.5088,-2.5088,-2.499,-2.4833,-2.4735,-2.4686,-2.4637,-2.4538,-2.5431,-2.6512,-2.7662,-2.8064,-2.9015,-3.0679,-3.0068,-2.9875,-3.0397,-3.0397,-3.0397,-3.0397,-3.0544,-3.0544,-3.0397,-3.0544,-3.0601,-3.0601,-3.0601,-3.0724,0.0,0.0,0.0,0.0,0.0,-1.9653,0.0,0.0,0.0,0.0,0.0,0.0,0.0,0.0,0.0,0.0,0.0,0.0,0.0,0.0,0.0,0.0,0.0,0.0,0.0,-2.3993,-2.407,-2.4192,-2.4079,-2.407,-2.4192,-2.4202,-2.4202,-2.4202,-2.4202,-2.4367,-2.4656,-2.4656,-2.4872,-2.5185,-2.5185,-2.5185,-2.5185,-2.5185,-2.5185,-2.5185,-2.5185,-2.5185,-2.5194,-2.54,-2.5503,-2.5563,-2.6012,-2.6172,-2.613,-2.613,-2.6069,-2.6027,-2.6027,-2.6027,-2.6017,-2.5694,-2.5568,-2.5451,-2.5288,-2.509,-2.4998,-2.5174,-2.5088,-2.4883,-2.4883,-2.4883,-2.4833,-2.4833,-2.4637,-2.444,-2.444,-2.444,-2.444,-2.444,-2.4637,-2.4784,-2.4883,-2.4883,-2.4833,-2.4833,-2.4784,-2.4686,-2.4489,-2.444,-2.439,-2.4202,-2.4538,-2.5538,-2.7352,-2.7484,-2.8366,-3.0385,-3.0114,-2.9977,-3.017,-3.0216,-3.0216,-3.0216,-3.0216,-3.0216,-3.0216,-3.0124,-3.0124,-3.0216,-3.0124,-3.0213,0.0,0.0,0.0,0.0,-1.9234,0.0,0.0,0.0,-1.9754,-1.9795,0.0,0.0,0.0,0.0,0.0,0.0,0.0,0.0,0.0,0.0,0.0,0.0,0.0,0.0,0.0,-2.3289,-2.3581,-2.4174,-2.3626,-2.359,-2.4183,-2.4202,-2.4202,-2.4202,-2.4202,-2.422,-2.4275,-2.4275,-2.4293,-2.4339,-2.4339,-2.4339,-2.4339,-2.4339,-2.4339,-2.4339,-2.4339,-2.4339,-2.4339,-2.4389,-2.4389,-2.4513,-2.5735,-2.6027,-2.5839,-2.5839,-2.5683,-2.5466,-2.5466,-2.5466,-2.5411,-2.5019,-2.4643,-2.4389,-2.4579,-2.4591,-2.4644,-2.4892,-2.4932,-2.4883,-2.4883,-2.4735,-2.4538,-2.4538,-2.439,-2.4251,-2.4251,-2.4251,-2.4251,-2.4251,-2.4251,-2.4399,-2.4833,-2.4686,-2.4538,-2.4538,-2.439,-2.4251,-2.4251,-2.4251,-2.4251,-2.4202,-2.5819,-2.6952,-2.7237,-2.8049,-2.9002,-3.017,-2.9382,-2.9279,-3.017,-3.0216,-3.0216,-3.0216,-3.0216,-3.0216,-3.0216,-2.9791,-2.9802,-3.0204,-2.978,-2.9706,0.0,0.0,0.0,0.0,0.0,0.0,-1.906,0.0,-1.9342,0.0,0.0,0.0,0.0,0.0,0.0,0.0,-2.0562,0.0,0.0,0.0,0.0,0.0,0.0,0.0,0.0,0.0,0.0,0.0,-2.3947,-2.3879,-2.4192,-2.4202,-2.4202,-2.4202,-2.4202,-2.4202,-2.4202,-2.4202,-2.4202,-2.4202,-2.4202,-2.4202,-2.4202,-2.4202,-2.4202,-2.4202,-2.4202,-2.4202,-2.4202,-2.4202,-2.4202,-2.4238,-2.482,-2.4959,-2.4868,-2.4868,-2.4817,-2.4716,-2.4716,-2.4716,-2.4689,-2.4523,-2.4349,-2.4251,-2.444,-2.444,-2.439,-2.4587,-2.4587,-2.4489,-2.4489,-2.439,-2.435,-2.435,-2.4251,-2.4202,-2.4202,-2.4202,-2.4202,-2.4202,-2.4202,-2.4251,-2.4449,-2.4399,-2.435,-2.435,-2.4242,-2.4202,-2.4202,-2.4202,-2.4202,-2.4202,-2.4962,-2.5674,-2.6302,-2.6733,-2.7389,-2.8412,-2.862,-2.9141,-3.017,-3.0216,-3.0216,-3.0216,-3.0216,-3.0078,-2.9802,-2.9596,-2.9435,-2.9332,-2.9125,-2.9077,-1.8996,0.0,0.0,0.0,0.0,0.0,0.0,0.0,0.0,0.0,0.0,0.0,0.0,0.0,0.0,0.0,0.0,0.0,0.0,0.0,0.0,0.0,0.0,0.0,0.0,0.0,0.0,-2.3764,-2.3672,-2.37,-2.3978,-2.3987,-2.4082,-2.4202,-2.4202,-2.4202,-2.4202,-2.4202,-2.4202,-2.4202,-2.4202,-2.4202,-2.4202,-2.4202,-2.4202,-2.4202,-2.4202,-2.4202,-2.4202,-2.4202,-2.4202,-2.4202,-2.4202,-2.4202,-2.4202,-2.4202,-2.4202,-2.4202,-2.4202,-2.4202,-2.4202,-2.4202,-2.4202,-2.4251,-2.439,-2.4341,-2.4251,-2.439,-2.4291,-2.4202,-2.4202,-2.4202,-2.4202,-2.4202,-2.4202,-2.4202,-2.4202,-2.4202,-2.4202,-2.4202,-2.4202,-2.4202,-2.4202,-2.4202,-2.4202,-2.4202,-2.4202,-2.4202,-2.4202,-2.4202,-2.4202,-2.4202,-2.444,-2.4932,-2.5645,-2.6215,-2.6962,-2.7945,-2.8713,-2.9428,-3.017,-3.0216,-3.0147,-3.0021,-3.0021,-2.978,-2.9274,-2.9148,-2.8884,-2.8505,-2.8505,-2.8505,0.0,0.0,0.0,-1.8512,0.0,0.0,0.0,0.0,-1.8827,0.0,0.0,0.0,0.0,0.0,0.0,0.0,0.0,0.0,0.0,0.0,0.0,0.0,0.0,0.0,0.0,0.0,0.0,-2.2612,-2.2295,-2.2506,-2.3471,-2.3517,-2.3739,-2.4192,-2.4202,-2.4202,-2.4202,-2.4202,-2.4202,-2.4202,-2.4202,-2.4202,-2.4202,-2.4202,-2.4202,-2.4202,-2.4202,-2.4202,-2.4202,-2.4202,-2.4202,-2.4202,-2.4202,-2.4202,-2.4202,-2.4202,-2.4202,-2.4202,-2.4202,-2.4202,-2.4202,-2.4202,-2.4202,-2.4202,-2.4202,-2.4202,-2.4202,-2.4202,-2.4202,-2.4202,-2.4202,-2.4202,-2.4202,-2.4202,-2.4202,-2.4202,-2.4202,-2.4202,-2.4202,-2.4202,-2.4202,-2.4202,-2.4202,-2.4202,-2.4202,-2.4202,-2.4202,-2.4202,-2.4202,-2.4202,-2.4202,-2.4202,-2.5069,-2.5645,-2.5693,-2.7494,-2.9048,-3.0023,-3.0125,-3.017,-3.0216,-3.0216,-2.9998,-2.9527,-2.9515,-2.9263,-2.8723,-2.8253,-2.8023,-2.8,-2.8,-2.8,0.0,0.0,-1.8123,-1.8288,0.0,0.0,0.0,0.0,0.0,0.0,0.0,0.0,0.0,0.0,0.0,0.0,0.0,0.0,0.0,0.0,0.0,0.0,0.0,0.0,0.0,0.0,0.0,-2.231,-2.2485,-2.2727,-2.3096,-2.3105,-2.3169,-2.3306,-2.3611,-2.3749,-2.3749,-2.4015,-2.4202,-2.4202,-2.4202,-2.4202,-2.4202,-2.4202,-2.4202,-2.4202,-2.4202,-2.4202,-2.4202,-2.4202,-2.4202,-2.4202,-2.4202,-2.4202,-2.4202,-2.4202,-2.4202,-2.4202,-2.4202,-2.4202,-2.4202,-2.4202,-2.4202,-2.4202,-2.4202,-2.4202,-2.4202,-2.4202,-2.4202,-2.4202,-2.4202,-2.4202,-2.4202,-2.4202,-2.4202,-2.4202,-2.4202,-2.4202,-2.4202,-2.4202,-2.4202,-2.4202,-2.4202,-2.4202,-2.4202,-2.4202,-2.4202,-2.4202,-2.4202,-2.4202,-2.4202,-2.4202,-2.4489,-2.4686,-2.4686,-2.5926,-2.6981,-2.7647,-2.8369,-2.888,-2.9185,-2.9217,-2.9137,-2.8976,-2.8964,-2.8723,-2.823,-2.8057,-2.7805,-2.7483,-2.7483,-2.7483,-1.8489,-1.821,0.0,-1.8032,-1.8005,0.0,-1.8312,0.0,-1.8387,0.0,0.0,0.0,0.0,0.0,0.0,0.0,0.0,0.0,0.0,-1.915,0.0,0.0,0.0,0.0,0.0,0.0,-2.1526,-2.1908,-2.2094,-2.2343,0.0,-2.2684,-2.2748,-2.2904,-2.3151,-2.3288,-2.3288,-2.373,-2.3932,-2.3932,-2.4128,-2.4202,-2.4202,-2.4202,-2.4202,-2.4202,-2.4202,-2.4202,-2.4202,-2.4202,-2.4202,-2.4202,-2.4202,-2.4202,-2.4202,-2.4202,-2.4202,-2.4202,-2.4202,-2.4202,-2.4202,-2.4202,-2.4202,-2.4202,-2.4202,-2.4202,-2.4202,-2.4202,-2.4202,-2.4202,-2.4202,-2.4202,-2.4202,-2.4202,-2.4202,-2.4202,-2.4202,-2.4202,-2.4202,-2.4202,-2.4202,-2.4202,-2.4202,-2.4202,-2.4202,-2.4202,-2.4202,-2.4202,-2.4202,-2.4202,-2.4202,-2.4202,-2.4202,-2.4433,-2.4947,-2.5593,-2.6296,-2.7166,-2.7876,-2.8364,-2.8669,-2.87,-2.862,-2.8448,-2.8436,-2.8207,-2.7713,-2.7713,-2.7552,-2.719,-2.719,-2.719]}]]